[[{"header":{"parameterUnit":"m.s-1","parameterCategory":1,"la1":30.6,"la2":29.2853,"lo1":-89.7004,"lo2":-87.6739,"dy":0.0162,"dx":0.0183,"nx":112,"ny":82,"refTime":"2024-10-10T06:00:00:Z","depth":0,"parameterNumber":2,"parameterNumberName":"U-component_of_WINDS"},"data":[0.0,0.0,0.0,0.0,0.0,0.0,0.0,0.0,0.0,0.0,0.0,0.0,0.0,0.0,0.0,0.0,0.0,0.0,0.0,0.0,0.0,0.0,0.0,0.0,0.0,0.0,0.0,0.0,0.0,0.0,0.0,0.0,0.0,0.0,0.0,0.0,0.0,0.0,0.0,0.0,0.0,0.0,0.0,0.0,0.0,0.0,0.0,0.0,0.0,0.0,0.0,0.0,0.0,0.0,0.0,0.0,0.0,0.0,0.0,0.0,0.0,0.0,0.0,0.0,0.0,0.0,0.0,0.0,0.0,0.0,0.0,0.0,0.0,0.0,0.0,0.0,0.0,0.0,0.0,0.0,0.0,0.0,0.0,0.0,0.0,0.0,0.0,0.0,0.0,0.0,0.5033,0.5423,0.5942,0.6207,0.6074,0.6037,0.5704,0.5013,0.0,0.0,0.0,0.0,0.0,0.0,0.0,0.0,0.0,0.0,0.0,0.0,0.0,0.0,0.0,0.0,0.0,0.0,0.0,0.0,0.0,0.0,0.0,0.0,0.0,0.0,0.0,0.0,0.0,0.0,0.0,0.0,0.0,0.0,0.0,0.0,0.0,0.0,0.0,0.0,0.0,0.0,0.0,0.0,0.0,0.0,0.0,0.0,0.0,0.0,0.0,0.0,0.0,0.0,0.0,0.0,0.0,0.0,0.0,0.0,0.0,0.0,0.0,0.0,0.0,0.0,0.0,0.0,0.0,0.0,0.0,0.0,0.0,0.0,0.0,0.0,0.0,0.0,0.0,0.0,0.0,0.0,0.0,0.0,0.0,0.0,0.0,0.0,0.0,0.0,0.0,0.0,0.0,0.0,0.0,0.0,0.0,0.0,0.0,0.0,0.0,0.0,0.0,0.0,0.5033,0.584,0.6129,0.6251,0.6227,0.5992,0.5666,0.5339,0.0,0.0,0.0,0.0,0.0,0.0,0.0,0.0,0.0,0.0,0.0,0.0,0.0,0.0,0.0,0.0,0.0,0.0,0.0,0.0,0.0,0.0,0.0,0.0,0.0,0.0,0.0,0.0,0.0,0.0,0.0,0.0,0.0,0.0,0.0,0.0,0.0,0.0,0.0,0.0,0.0,0.0,0.0,0.0,0.0,0.0,0.0,0.0,0.0,0.0,0.0,0.0,0.0,0.0,0.0,0.0,0.0,0.0,0.0,0.0,0.0,0.0,0.0,0.0,0.0,0.0,0.0,0.0,0.0,0.0,0.0,0.0,0.0,0.0,0.0,0.0,0.0,0.0,0.0,0.0,0.0,0.0,0.0,0.0,0.0,0.0,0.0,0.0,0.0,0.0,0.0,0.0,0.0,0.0,0.0,0.0,0.0,0.0,0.0,0.0,0.0,0.0,0.0,0.4979,0.5335,0.6078,0.6217,0.6338,0.6338,0.5999,0.5689,0.5437,0.4822,0.0,0.0,0.0,0.0,0.0,0.0,0.0,0.0,0.0,0.0,0.0,0.0,0.0,0.0,0.0,0.0,0.0,0.0,0.0,0.0,0.0,0.0,0.0,0.0,0.0,0.0,0.0,0.0,0.0,0.0,0.0,0.0,0.0,0.0,0.0,0.0,0.0,0.0,0.0,0.0,0.0,0.0,0.0,0.0,0.0,0.0,0.0,0.0,0.0,0.0,0.0,0.0,0.0,0.0,0.0,0.0,0.0,0.0,0.0,0.0,0.0,0.0,0.0,0.0,0.0,0.0,0.0,0.0,0.0,0.0,0.0,0.0,0.0,0.0,0.0,0.0,0.0,0.0,0.0,0.0,0.0,0.0,0.0,0.0,0.0,0.0,0.0,0.0,0.0,0.0,0.0,0.0,0.0,0.0,0.0,0.0,0.0,0.0,0.0,0.0,0.0,0.0,0.5471,0.5671,0.6203,0.6338,0.6338,0.6338,0.596,0.5612,0.5313,0.4605,0.0,0.0,0.0,0.0,0.0,0.0,0.0,0.0,0.0,0.0,0.0,0.0,0.0,0.0,0.0,0.0,0.0,0.0,0.0,0.0,0.0,0.0,0.0,0.0,0.0,0.0,0.0,0.0,0.0,0.0,0.0,0.0,0.0,0.0,0.0,0.0,0.0,0.0,0.0,0.0,0.0,0.0,0.0,0.0,0.0,0.0,0.0,0.0,0.0,0.0,0.0,0.0,0.0,0.0,0.0,0.0,0.0,0.0,0.0,0.0,0.0,0.0,0.0,0.0,0.0,0.0,0.0,0.0,0.0,0.0,0.0,0.0,0.0,0.0,0.0,0.0,0.0,0.0,0.0,0.0,0.0,0.0,0.0,0.0,0.0,0.0,0.0,0.0,0.0,0.0,0.0,0.0,0.0,0.0,0.0,0.0,0.0,0.0,0.0,0.0,0.0,0.0,0.5518,0.5898,0.6227,0.6338,0.6338,0.6338,0.577,0.5363,0.512,0.4565,0.0,0.0,0.0,0.0,0.0,0.0,0.0,0.0,0.0,0.0,0.0,0.0,0.0,0.0,0.0,0.0,0.0,0.0,0.0,0.0,0.0,0.0,0.0,0.0,0.0,0.0,0.0,0.0,0.0,0.0,0.0,0.0,0.0,0.0,0.0,0.0,0.0,0.0,0.0,0.0,0.0,0.0,0.0,0.0,0.0,0.0,0.0,0.0,0.0,0.0,0.0,0.0,0.0,0.0,0.0,0.0,0.0,0.0,0.0,0.0,0.0,0.0,0.0,0.0,0.0,0.0,0.0,0.0,0.0,0.0,0.0,0.0,0.0,0.0,0.0,0.0,0.0,0.0,0.0,0.0,0.0,0.0,0.0,0.0,0.0,0.0,0.0,0.0,0.0,0.0,0.0,0.0,0.0,0.0,0.0,0.0,0.0,0.0,0.0,0.0,0.0,0.0,0.5504,0.582,0.6217,0.6338,0.6338,0.6338,0.5864,0.5464,0.5146,0.0,0.0,0.0,0.0,0.0,0.0,0.0,0.0,0.0,0.0,0.0,0.0,0.0,0.0,0.0,0.0,0.0,0.0,0.0,0.0,0.0,0.0,0.0,0.0,0.0,0.0,0.0,0.0,0.0,0.0,0.0,0.0,0.0,0.0,0.0,0.0,0.0,0.0,0.0,0.0,0.0,0.0,0.0,0.0,0.0,0.0,0.0,0.0,0.0,0.0,0.0,0.0,0.0,0.0,0.0,0.0,0.0,0.0,0.0,0.0,0.0,0.0,0.0,0.0,0.0,0.0,0.0,0.0,0.0,0.0,0.0,0.0,0.0,0.0,0.0,0.0,0.0,0.0,0.0,0.0,0.0,0.0,0.0,0.0,0.0,0.0,0.0,0.0,0.0,0.0,0.0,0.0,0.0,0.0,0.0,0.0,0.0,0.0,0.0,0.0,0.0,0.0,0.5336,0.5535,0.5813,0.6217,0.6338,0.6338,0.6338,0.5941,0.5472,0.5072,0.0,0.0,0.0,0.0,0.0,0.0,0.0,0.0,0.0,0.0,0.0,0.0,0.0,0.0,0.0,0.0,0.0,0.0,0.0,0.0,0.0,0.0,0.0,0.0,0.0,0.0,0.0,0.0,0.0,0.0,0.0,0.0,0.0,0.0,0.0,0.0,0.0,0.0,0.0,0.0,0.0,0.0,0.0,0.0,0.0,0.0,0.0,0.0,0.0,0.0,0.0,0.0,0.0,0.0,0.0,0.0,0.0,0.0,0.0,0.0,0.0,0.0,0.0,0.0,0.0,0.0,0.0,0.0,0.0,0.0,0.0,0.0,0.0,0.0,0.0,0.0,0.0,0.0,0.0,0.0,0.0,0.0,0.0,0.0,0.0,0.0,0.0,0.0,0.0,0.0,0.0,0.0,0.0,0.0,0.0,0.0,0.0,0.0,0.0,0.0,0.0,0.0,0.5349,0.562,0.5922,0.6227,0.6338,0.6338,0.6338,0.578,0.5241,0.0,0.0,0.0,0.0,0.0,0.0,0.0,0.0,0.0,0.0,0.0,0.0,0.0,0.0,0.0,0.0,0.0,0.0,0.0,0.0,0.0,0.0,0.0,0.0,0.0,0.0,0.0,0.0,0.0,0.0,0.0,0.0,0.0,0.0,0.0,0.0,0.0,0.0,0.0,0.0,0.0,0.0,0.0,0.0,0.0,0.0,0.0,0.0,0.0,0.0,0.0,0.0,0.0,0.0,0.0,0.0,0.0,0.0,0.0,0.0,0.0,0.0,0.0,0.0,0.0,0.0,0.0,0.0,0.0,0.0,0.0,0.0,0.0,0.0,0.0,0.0,0.0,0.0,0.0,0.0,0.0,0.0,0.0,0.0,0.0,0.0,0.0,0.0,0.0,0.0,0.0,0.0,0.0,0.0,0.0,0.0,0.0,0.0,0.0,0.0,0.0,0.0,0.0,0.5363,0.5715,0.604,0.624,0.6338,0.6338,0.6338,0.586,0.539,0.4919,0.0,0.0,0.0,0.0,0.0,0.0,0.0,0.0,0.0,0.0,0.0,0.0,0.0,0.0,0.0,0.0,0.0,0.0,0.0,0.0,0.0,0.0,0.0,0.0,0.0,0.0,0.0,0.0,0.0,0.0,0.0,0.0,0.0,0.0,0.0,0.0,0.0,0.0,0.0,0.0,0.0,0.0,0.0,0.0,0.0,0.0,0.0,0.0,0.0,0.0,0.0,0.0,0.0,0.0,0.0,0.0,0.0,0.0,0.0,0.0,0.0,0.0,0.0,0.0,0.0,0.0,0.0,0.0,0.0,0.0,0.0,0.0,0.0,0.0,0.0,0.0,0.0,0.0,0.0,0.0,0.0,0.0,0.0,0.0,0.0,0.0,0.0,0.0,0.0,0.0,0.0,0.0,0.0,0.0,0.0,0.0,0.0,0.0,0.0,0.0,0.0,0.0,0.537,0.5752,0.6088,0.6244,0.6338,0.6338,0.6338,0.5941,0.545,0.4991,0.0,0.0,0.0,0.0,0.0,0.0,0.0,0.0,0.0,0.0,0.0,0.0,0.0,0.0,0.0,0.0,0.0,0.0,0.0,0.0,0.0,0.0,0.0,0.0,0.0,0.0,0.0,0.0,0.0,0.0,0.0,0.0,0.0,0.0,0.0,0.0,0.0,0.0,0.0,0.0,0.0,0.0,0.0,0.0,0.0,0.0,0.0,0.0,0.0,0.0,0.0,0.0,0.0,0.0,0.0,0.0,0.0,0.0,0.0,0.0,0.0,0.0,0.0,0.0,0.0,0.0,0.0,0.0,0.0,0.0,0.0,0.0,0.0,0.0,0.0,0.0,0.0,0.0,0.0,0.0,0.0,0.0,0.0,0.0,0.0,0.0,0.0,0.0,0.0,0.0,0.0,0.0,0.0,0.0,0.0,0.0,0.0,0.0,0.0,0.0,0.0,0.0,0.5391,0.5786,0.6129,0.6274,0.6349,0.6338,0.6338,0.6018,0.5623,0.5152,0.0,0.0,0.0,0.0,0.0,0.0,0.0,0.0,0.0,0.0,0.0,0.0,0.0,0.0,0.0,0.0,0.0,0.0,0.0,0.0,0.0,0.0,0.0,0.0,0.0,0.0,0.0,0.0,0.0,0.0,0.0,0.0,0.0,0.0,0.0,0.0,0.0,0.0,0.0,0.0,0.0,0.0,0.0,0.0,0.0,0.0,0.0,0.0,0.0,0.0,0.0,0.0,0.0,0.0,0.0,0.0,0.0,0.0,0.0,0.0,0.464,0.0,0.0,0.0,0.0,0.0,0.0,0.0,0.0,0.0,0.0,0.0,0.0,0.0,0.0,0.0,0.0,0.0,0.0,0.0,0.0,0.0,0.0,0.0,0.0,0.0,0.0,0.0,0.0,0.0,0.0,0.0,0.0,0.0,0.0,0.0,0.0,0.0,0.0,0.0,0.0,0.0,0.5481,0.603,0.6407,0.6485,0.6438,0.6419,0.6338,0.6018,0.5644,0.5349,0.478,0.0,0.0,0.0,0.0,0.0,0.0,0.0,0.0,0.0,0.0,0.0,0.0,0.0,0.0,0.0,0.0,0.0,0.0,0.0,0.0,0.0,0.0,0.0,0.0,0.0,0.0,0.0,0.0,0.0,0.0,0.0,0.0,0.0,0.0,0.0,0.0,0.0,0.0,0.0,0.0,0.0,0.0,0.0,0.0,0.0,0.0,0.0,0.0,0.0,0.0,0.0,0.0,0.0,0.0,0.0,0.0,0.0,0.0,0.0,0.0,0.4999,0.0,0.0,0.0,0.0,0.0,0.0,0.0,0.0,0.0,0.0,0.0,0.0,0.0,0.0,0.0,0.0,0.0,0.0,0.0,0.0,0.0,0.0,0.0,0.0,0.0,0.0,0.0,0.0,0.0,0.0,0.0,0.0,0.0,0.0,0.0,0.0,0.0,0.0,0.0,0.0,0.6014,0.6343,0.6517,0.6607,0.6569,0.65,0.6419,0.6099,0.5812,0.5591,0.5094,0.0,0.0,0.0,0.0,0.0,0.0,0.0,0.0,0.0,0.0,0.0,0.0,0.0,0.0,0.0,0.0,0.0,0.0,0.0,0.0,0.0,0.0,0.0,0.0,0.0,0.0,0.0,0.0,0.0,0.0,0.0,0.0,0.0,0.0,0.0,0.0,0.0,0.0,0.0,0.0,0.0,0.0,0.0,0.0,0.0,0.0,0.0,0.0,0.0,0.0,0.0,0.0,0.0,0.7706,0.7907,0.7613,0.7148,0.6891,0.6641,0.6152,0.5918,0.5844,0.5355,0.0,0.0,0.0,0.0,0.0,0.0,0.0,0.0,0.0,0.0,0.0,0.0,0.0,0.0,0.0,0.0,0.0,0.0,0.0,0.0,0.0,0.0,0.7281,0.7066,0.7901,0.8573,0.8038,0.0,0.0,0.0,0.0,0.0,0.0,0.0,0.0,0.0,0.0,0.0,0.6483,0.6614,0.6631,0.6746,0.6644,0.6537,0.6511,0.6261,0.6022,0.586,0.5496,0.5049,0.0,0.0,0.0,0.0,0.0,0.0,0.0,0.0,0.0,0.0,0.0,0.0,0.0,0.0,0.0,0.0,0.0,0.0,0.0,0.0,0.0,0.0,0.0,0.0,0.0,0.0,0.0,0.0,0.0,0.0,0.0,0.0,0.4168,0.4405,0.0,0.0,0.0,0.0,0.0,0.0,0.0,0.0,0.0,0.0,0.0,0.0,0.0,0.545,0.6655,0.6704,0.6867,0.7093,0.768,0.7989,0.7968,0.7738,0.753,0.7448,0.737,0.0,0.6193,0.6115,0.0,0.0,0.0,0.0,0.0,0.0,0.0,0.0,0.0,0.0,0.0,0.0,0.0,0.0,0.0,0.0,0.0,0.0,0.0,0.0,0.0,0.0,0.9647,0.8425,0.8346,0.8379,0.822,0.8709,0.8871,0.7512,0.6476,0.5717,0.0,0.0,0.0,0.0,0.0,0.0,0.6249,0.668,0.6848,0.688,0.6867,0.6817,0.6705,0.65,0.6342,0.6257,0.587,0.5646,0.547,0.48,0.0,0.0,0.0,0.0,0.0,0.0,0.0,0.0,0.0,0.0,0.0,0.0,0.0,0.0,0.0,0.0,0.0,0.0,0.0,0.0,0.0,0.0,0.0,0.0,0.0,0.0,0.0,0.0,0.0,0.415,0.4616,0.4592,0.4738,0.4684,0.0,0.0,0.0,0.0,0.0,0.0,0.0,0.0,0.0,0.5018,0.4828,0.5577,0.7584,0.762,0.7594,0.7608,0.7882,0.8023,0.8044,0.7918,0.7848,0.7848,0.7848,0.7573,0.7105,0.6773,0.6471,0.619,0.0,0.0,0.0,0.0,0.6118,0.6044,0.6451,0.6491,0.6346,0.6247,0.0,0.0,0.0,0.0,0.0,0.0,0.0,0.7858,0.6976,0.8526,0.9937,0.822,0.9004,0.973,0.8839,0.9471,0.9504,0.7108,0.621,0.5708,0.5147,0.4805,0.0,0.0,0.0,0.6037,0.6939,0.693,0.6946,0.7024,0.6959,0.6857,0.6776,0.6669,0.6614,0.6521,0.6261,0.5987,0.5801,0.5398,0.4954,0.0,0.0,0.0,0.0,0.0,0.0,0.0,0.0,0.0,0.0,0.0,0.0,0.0,0.0,0.0,0.0,0.0,0.0,0.0,0.0,0.0,0.0,0.0,0.0,0.0,0.0,0.0,0.0,0.4711,0.5033,0.488,0.5192,0.5186,0.0,0.0,0.0,0.0,0.0,0.0,0.6017,0.5896,0.5845,0.6126,0.5491,0.6037,0.7987,0.8044,0.808,0.8188,0.8185,0.8144,0.8153,0.8153,0.8153,0.8153,0.8153,0.8089,0.7936,0.7343,0.701,0.6848,0.6586,0.6485,0.6519,0.6776,0.68,0.6773,0.7261,0.7329,0.7177,0.7031,0.6831,0.6556,0.6078,0.0,0.0,0.0,0.0,0.7918,0.7133,0.8511,0.9683,0.7962,0.9019,1.0184,0.9347,0.9574,0.9257,0.7044,0.6543,0.6273,0.5617,0.5481,0.0,0.6298,0.6244,0.6461,0.7326,0.7242,0.7073,0.7119,0.7048,0.6959,0.6959,0.6868,0.6777,0.6764,0.6568,0.6321,0.6157,0.5889,0.5467,0.4924,0.0,0.0,0.0,0.0,0.0,0.0,0.0,0.0,0.0,0.0,0.0,0.0,0.0,0.0,0.0,0.0,0.0,0.0,0.0,0.0,0.0,0.0,0.0,0.0,0.0,0.0,0.0,0.0,0.0,0.5411,0.5919,0.0,0.0,0.0,0.0,0.5962,0.6244,0.6485,0.6647,0.6665,0.686,0.7063,0.7036,0.7344,0.8011,0.8043,0.833,0.888,0.8556,0.8556,0.8567,0.8459,0.8459,0.8459,0.8459,0.8455,0.8401,0.7811,0.7475,0.7322,0.716,0.7095,0.7115,0.7278,0.7333,0.7353,0.7529,0.7489,0.7404,0.7668,0.7461,0.7075,0.6912,0.6664,0.0,0.0,0.7716,0.8673,0.7752,0.8509,0.9248,0.8262,0.811,0.8459,0.9536,0.8833,0.798,0.8275,0.8299,0.8036,0.7334,0.0,0.6553,0.7383,0.7027,0.6773,0.7068,0.7295,0.7309,0.7139,0.7051,0.7051,0.7051,0.6959,0.6858,0.6916,0.6737,0.6646,0.6646,0.6212,0.5945,0.5961,0.5009,0.0,0.0,0.0,0.0,0.0,0.0,0.0,0.0,0.0,0.0,0.0,0.0,0.0,0.0,0.0,0.0,0.0,0.0,0.0,0.0,0.0,0.0,0.0,0.0,0.0,0.0,0.0,0.0,0.6033,0.6386,0.0,0.5989,0.6257,0.6502,0.66,0.6881,0.72,0.7543,0.737,0.7456,0.7639,0.7638,0.7927,0.8619,0.8567,0.8699,0.8916,0.8808,0.8699,0.8591,0.8482,0.8482,0.8482,0.8482,0.8482,0.8465,0.8255,0.8133,0.8079,0.8024,0.8004,0.8001,0.7963,0.795,0.7943,0.7899,0.7848,0.7801,0.7811,0.7641,0.7428,0.7377,0.7346,0.7346,0.74,0.784,0.8218,0.7949,0.8788,0.9527,0.8319,0.8627,0.9197,0.8747,0.8248,0.799,0.8153,0.7953,0.7621,0.7163,0.693,0.6894,0.7101,0.7147,0.725,0.7396,0.7496,0.7507,0.7415,0.7323,0.7323,0.7323,0.7139,0.7051,0.7051,0.6787,0.6661,0.6675,0.6403,0.6017,0.5728,0.5369,0.483,0.0,0.0,0.0,0.0,0.0,0.0,0.0,0.0,0.0,0.0,0.0,0.0,0.0,0.0,0.0,0.0,0.0,0.0,0.0,0.0,0.0,0.0,0.0,0.0,0.0,0.0,0.6515,0.642,0.6851,0.698,0.6529,0.6892,0.7193,0.7295,0.758,0.7875,0.8174,0.7981,0.7962,0.8151,0.8206,0.8451,0.8888,0.8938,0.8859,0.8859,0.8859,0.8855,0.8745,0.8638,0.8635,0.8635,0.8635,0.8635,0.8635,0.8635,0.8635,0.8625,0.8523,0.8482,0.8472,0.8377,0.834,0.8319,0.817,0.8116,0.8092,0.7936,0.7824,0.7746,0.7746,0.7814,0.7889,0.7889,0.796,0.8038,0.8038,0.8627,0.9118,0.8237,0.8726,0.9217,0.8726,0.8333,0.8137,0.8627,0.8086,0.7519,0.7268,0.7305,0.7336,0.7241,0.7385,0.7604,0.7617,0.7626,0.7636,0.7632,0.754,0.7454,0.7432,0.7231,0.7058,0.7031,0.6805,0.667,0.6627,0.6315,0.6044,0.5745,0.5538,0.5043,0.4246,0.0,0.0,0.0,0.0,0.0,0.0,0.0,0.0,0.0,0.0,0.0,0.0,0.0,0.0,0.0,0.0,0.0,0.0,0.0,0.0,0.0,0.0,0.0,0.6057,0.6444,0.6729,0.6732,0.7258,0.7451,0.7014,0.7628,0.8055,0.8055,0.8319,0.8482,0.8489,0.8489,0.8489,0.8496,0.8752,0.8939,0.8939,0.8872,0.8947,0.8947,0.8947,0.8947,0.8947,0.894,0.894,0.894,0.894,0.894,0.894,0.894,0.894,0.891,0.8611,0.8496,0.8496,0.8489,0.8486,0.8462,0.8326,0.8279,0.8252,0.8102,0.8055,0.8055,0.8055,0.8055,0.8055,0.8055,0.8052,0.8045,0.8045,0.8041,0.8038,0.8038,0.8038,0.8333,0.9706,0.892,0.8432,0.9706,0.8924,0.7991,0.7845,0.7818,0.7818,0.7818,0.778,0.0,0.7813,0.7836,0.7733,0.763,0.763,0.7508,0.7403,0.7241,0.7055,0.6913,0.6641,0.6486,0.649,0.6187,0.6027,0.6023,0.544,0.4992,0.4697,0.0,0.0,0.0,0.0,0.0,0.0,0.0,0.0,0.0,0.0,0.0,0.0,0.0,0.0,0.0,0.0,0.0,0.0,0.0,0.0,0.0,0.6213,0.6681,0.6681,0.7068,0.739,0.7492,0.7848,0.8038,0.7913,0.818,0.836,0.836,0.8435,0.853,0.8642,0.8538,0.8588,0.8811,0.8855,0.8876,0.8876,0.9367,0.9441,0.9212,0.9209,0.9093,0.9089,0.8988,0.894,0.894,0.894,0.894,0.894,0.894,0.894,0.893,0.8845,0.8815,0.8801,0.8689,0.8577,0.8476,0.8438,0.8425,0.8418,0.8374,0.836,0.836,0.836,0.836,0.836,0.836,0.8286,0.8208,0.8208,0.8123,0.8038,0.8038,0.8038,0.8137,0.8432,0.8233,0.8137,0.8432,0.8237,0.8024,0.7984,0.7977,0.7977,0.7977,0.7967,0.7977,0.7932,0.7939,0.7939,0.7935,0.7836,0.7671,0.7511,0.7299,0.6961,0.6764,0.6478,0.6342,0.635,0.6112,0.5976,0.5867,0.5491,0.5152,0.0,0.0,0.0,0.0,0.0,0.0,0.0,0.0,0.0,0.0,0.0,0.0,0.0,0.0,0.0,0.0,0.0,0.0,0.0,0.0,0.0,0.0,0.6888,0.7343,0.7472,0.7658,0.7838,0.7987,0.8214,0.836,0.836,0.8492,0.8577,0.8577,0.8635,0.8737,0.8773,0.8669,0.8739,0.8888,0.8891,0.8891,0.8891,0.9439,0.9602,0.9599,0.9363,0.9249,0.9245,0.9161,0.9089,0.9028,0.9028,0.8994,0.894,0.894,0.894,0.894,0.0,0.0,0.0,0.0,0.875,0.8665,0.8601,0.8577,0.8567,0.8503,0.8482,0.8482,0.8482,0.8482,0.8482,0.8482,0.8421,0.836,0.836,0.8248,0.8136,0.8136,0.8089,0.8038,0.8038,0.8038,0.8038,0.8038,0.8038,0.0,0.8038,0.8038,0.8038,0.8038,0.8038,0.8038,0.8038,0.8038,0.8038,0.8038,0.7939,0.7836,0.7733,0.7393,0.0,0.0,0.0,0.6314,0.6148,0.6029,0.0,0.0,0.0,0.0,0.0,0.0,0.0,0.0,0.542,0.5365,0.0,0.0,0.0,0.0,0.0,0.0,0.0,0.0,0.0,0.0,0.0,0.0,0.0,0.0,0.0,0.0,0.757,0.7963,0.8252,0.8191,0.816,0.8282,0.8421,0.8509,0.8509,0.8648,0.8743,0.876,0.8886,0.8913,0.8934,0.0,0.0,0.0,0.0,0.9023,0.9023,0.9278,0.9528,0.9768,0.9528,0.9408,0.9405,0.9388,0.9306,0.9178,0.9178,0.9106,0.8988,0.8988,0.8988,0.8984,0.895,0.894,0.894,0.894,0.894,0.892,0.8781,0.0,0.0,0.8577,0.8533,0.8533,0.8533,0.8533,0.8533,0.8533,0.852,0.8509,0.8509,0.8401,0.8296,0.8296,0.8187,0.8085,0.8069,0.8065,0.8062,0.8041,0.8038,0.8038,0.8038,0.8038,0.8038,0.8038,0.8038,0.8038,0.8038,0.8038,0.8038,0.8038,0.8038,0.0,0.7836,0.755,0.7298,0.7084,0.6761,0.6378,0.6146,0.6017,0.601,0.6129,0.6146,0.6342,0.6725,0.6759,0.6848,0.6959,0.6142,0.6037,0.0,0.0,0.0,0.0,0.0,0.0,0.0,0.0,0.0,0.0,0.0,0.0,0.0,0.0,0.0,0.7451,0.7889,0.8241,0.8418,0.8523,0.8547,0.8452,0.8574,0.8665,0.8665,0.8804,0.8944,0.9059,0.9093,0.9174,0.9093,0.9218,0.9231,0.89,0.9381,0.962,0.962,0.9745,0.9808,0.9811,0.0,0.0,0.9561,0.9439,0.9364,0.9337,0.9337,0.932,0.9296,0.9296,0.9296,0.9273,0.9032,0.894,0.894,0.894,0.894,0.8933,0.8906,0.8896,0.8889,0.8859,0.8852,0.8852,0.8852,0.8852,0.0,0.8852,0.876,0.8665,0.8665,0.8554,0.8442,0.8442,0.8418,0.8364,0.8252,0.8225,0.8187,0.8065,0.8038,0.8038,0.8038,0.8038,0.8038,0.8038,0.8038,0.8038,0.8038,0.8038,0.8038,0.8038,0.8038,0.7939,0.7836,0.7632,0.7446,0.7158,0.689,0.6827,0.6759,0.6834,0.6841,0.6756,0.6868,0.6912,0.6885,0.7126,0.7258,0.7278,0.698,0.6841,0.0,0.0,0.0,0.0,0.0,0.0,0.0,0.0,0.0,0.0,0.0,0.6366,0.6746,0.0,0.76,0.798,0.8296,0.8516,0.8584,0.8726,0.8767,0.8615,0.873,0.8825,0.8825,0.896,0.9076,0.9147,0.9222,0.9334,0.9245,0.9372,0.9406,0.9354,0.9602,0.9846,0.9846,0.9799,0.9837,0.9837,0.9717,0.9717,0.9713,0.9635,0.9561,0.9496,0.9496,0.9452,0.9381,0.9381,0.9381,0.9367,0.9218,0.9113,0.9045,0.9045,0.9001,0.894,0.894,0.894,0.894,0.894,0.894,0.894,0.894,0.894,0.894,0.894,0.8882,0.8825,0.8825,0.871,0.8598,0.8598,0.8537,0.8462,0.8391,0.8319,0.8248,0.817,0.8092,0.8038,0.8038,0.8038,0.8038,0.8038,0.8038,0.8038,0.8038,0.8038,0.8038,0.8038,0.8038,0.7939,0.7939,0.7746,0.7607,0.7321,0.7225,0.7149,0.7149,0.7143,0.7143,0.7149,0.7221,0.7295,0.737,0.7519,0.7631,0.7702,0.7628,0.7509,0.0,0.0,0.0,0.0,0.0,0.0,0.0,0.0,0.5949,0.6302,0.6688,0.7082,0.7475,0.7763,0.8072,0.8462,0.8628,0.872,0.875,0.8862,0.8893,0.8771,0.8889,0.8981,0.8981,0.911,0.9208,0.9239,0.9357,0.949,0.952,0.9526,0.958,0.9819,0.9822,0.9822,0.9822,0.9822,0.9822,0.9822,0.9822,0.9822,0.9822,0.9822,0.9758,0.9649,0.9649,0.9581,0.9466,0.9466,0.9466,0.9466,0.9466,0.9374,0.9239,0.9208,0.9123,0.9022,0.8991,0.8981,0.8977,0.8947,0.894,0.894,0.894,0.894,0.894,0.894,0.894,0.894,0.894,0.8849,0.8754,0.8754,0.8662,0.8564,0.8533,0.8435,0.8347,0.8319,0.8187,0.8089,0.8096,0.8065,0.8038,0.8038,0.8038,0.8038,0.8038,0.8038,0.8038,0.8038,0.8038,0.8038,0.8038,0.7892,0.7767,0.7689,0.757,0.7502,0.7502,0.738,0.7373,0.7499,0.7502,0.7617,0.7855,0.7855,0.7919,0.8038,0.8038,0.7974,0.522,0.5274,0.5437,0.5956,0.5905,0.6006,0.0,0.0,0.6939,0.7495,0.776,0.7946,0.8133,0.8299,0.8469,0.8655,0.8699,0.8757,0.8896,0.8927,0.893,0.8916,0.9042,0.913,0.913,0.9266,0.9412,0.9547,0.9574,0.9526,0.9788,0.9798,0.9805,0.9822,0.9822,0.9822,0.9822,0.9822,0.9822,0.9822,0.9822,0.9822,0.9822,0.9822,0.9812,0.9798,0.9798,0.9788,0.9771,0.9771,0.9771,0.9771,0.9771,0.9683,0.9544,0.9405,0.9347,0.9313,0.9174,0.913,0.911,0.8981,0.894,0.894,0.894,0.894,0.894,0.894,0.894,0.894,0.894,0.8927,0.8913,0.8913,0.8899,0.8852,0.8713,0.8672,0.8621,0.8486,0.8343,0.8258,0.8299,0.8157,0.8038,0.8038,0.8038,0.8038,0.8038,0.8038,0.8038,0.8038,0.8038,0.8038,0.8038,0.8018,0.8001,0.7991,0.7974,0.7963,0.7963,0.7946,0.7946,0.7963,0.7963,0.798,0.8014,0.8014,0.8021,0.8038,0.8038,0.8031,0.6051,0.6074,0.0,0.0,0.6617,0.6848,0.7353,0.7455,0.7563,0.7991,0.8197,0.8343,0.8496,0.8574,0.8665,0.0,0.8845,0.8866,0.893,0.894,0.8906,0.8815,0.9011,0.9154,0.9154,0.9293,0.9445,0.9598,0.9683,0.9758,0.9819,0.9822,0.9822,0.9822,0.9822,0.9822,0.9822,0.9822,0.9822,0.9822,0.9822,0.9822,0.9822,0.9822,0.9822,0.9822,0.9822,0.9822,0.9822,0.9822,0.9822,0.9822,0.9822,0.9785,0.9717,0.9568,0.9459,0.9371,0.9306,0.9286,0.9262,0.911,0.9062,0.9049,0.8964,0.894,0.894,0.894,0.894,0.894,0.894,0.894,0.894,0.894,0.894,0.892,0.8859,0.8774,0.8693,0.8628,0.8556,0.8388,0.8393,0.8303,0.8144,0.8144,0.8041,0.8038,0.8038,0.8038,0.8038,0.8038,0.8038,0.8038,0.8038,0.8038,0.8038,0.8038,0.8038,0.8038,0.8038,0.8038,0.8038,0.8038,0.8038,0.8038,0.8038,0.8038,0.8038,0.8038,0.8038,0.8038,0.6441,0.0,0.0,0.6817,0.719,0.7516,0.76,0.7814,0.8072,0.8336,0.8472,0.8591,0.8747,0.8774,0.8811,0.892,0.894,0.894,0.894,0.8903,0.8835,0.8723,0.8862,0.9001,0.9086,0.9306,0.949,0.9602,0.9741,0.9822,0.9822,0.9822,0.9822,0.9822,0.9822,0.9822,0.9822,0.9822,0.9822,0.9822,0.9822,0.9822,0.9822,0.9822,0.9822,0.9822,0.9822,0.9822,0.9822,0.9822,0.9822,0.9822,0.9822,0.9822,0.9808,0.9707,0.9598,0.9496,0.9459,0.9445,0.9418,0.9266,0.9215,0.9188,0.9042,0.8998,0.8988,0.895,0.894,0.894,0.894,0.894,0.894,0.894,0.894,0.894,0.894,0.8852,0.8774,0.8774,0.869,0.8505,0.8515,0.8463,0.835,0.835,0.8244,0.8041,0.8038,0.8038,0.8038,0.8038,0.8038,0.8038,0.8038,0.8038,0.8038,0.8038,0.8038,0.8038,0.8038,0.8038,0.8038,0.8038,0.8038,0.8038,0.8038,0.8038,0.8038,0.8038,0.8038,0.8038,0.0,0.0,0.6614,0.7204,0.7577,0.7875,0.8174,0.8357,0.8506,0.8665,0.8699,0.875,0.8903,0.893,0.8933,0.894,0.894,0.894,0.894,0.8811,0.8716,0.871,0.8587,0.8618,0.0,0.9344,0.9605,0.9608,0.9741,0.9822,0.9822,0.9822,0.9822,0.9822,0.9822,0.9822,0.9822,0.9822,0.9822,0.9822,0.9822,0.9822,0.9822,0.9822,0.9822,0.9822,0.9822,0.9822,0.9822,0.9822,0.9822,0.9822,0.9822,0.9822,0.9822,0.9815,0.9812,0.9788,0.9649,0.9602,0.9578,0.9422,0.9374,0.9347,0.9195,0.9147,0.9117,0.8977,0.894,0.894,0.894,0.894,0.894,0.894,0.894,0.894,0.894,0.8933,0.893,0.893,0.8771,0.8693,0.8656,0.8539,0.8453,0.8453,0.835,0.8244,0.8041,0.8038,0.8038,0.8038,0.8038,0.8038,0.8038,0.8038,0.8038,0.8038,0.8038,0.8038,0.8038,0.8038,0.8038,0.8038,0.8038,0.8038,0.8038,0.8038,0.8038,0.8038,0.8038,0.8038,0.0,0.0,0.719,0.7689,0.7967,0.8194,0.8492,0.8601,0.8648,0.8699,0.871,0.8696,0.8645,0.8635,0.8669,0.8771,0.8788,0.8821,0.8923,0.8896,0.8784,0.8581,0.8693,0.0,0.0,0.0,0.0,0.9466,0.9656,0.9844,0.9815,0.9822,0.9822,0.9822,0.9822,0.9822,0.9822,0.9822,0.9822,0.9822,0.9822,0.9822,0.9822,0.9822,0.9822,0.9822,0.9822,0.9822,0.9822,0.9822,0.9822,0.9822,0.9822,0.9822,0.9822,0.9822,0.9822,0.9815,0.9768,0.9751,0.9727,0.9581,0.9534,0.9503,0.9351,0.9303,0.9273,0.9123,0.9083,0.9059,0.8964,0.894,0.894,0.894,0.894,0.894,0.894,0.894,0.894,0.894,0.8886,0.8859,0.8813,0.8771,0.8635,0.8525,0.8402,0.8244,0.8041,0.8038,0.8038,0.8038,0.8038,0.8038,0.8038,0.8038,0.8038,0.8038,0.8038,0.8038,0.8038,0.8038,0.8038,0.8038,0.8038,0.8038,0.8038,0.8038,0.8038,0.8038,0.8038,0.8038,0.0,0.7336,0.756,0.8011,0.8275,0.8479,0.8665,0.871,0.871,0.871,0.8625,0.8523,0.8425,0.836,0.8391,0.8594,0.8628,0.8703,0.891,0.8893,0.8804,0.8662,0.8771,0.8821,0.0,0.0,0.0,0.9382,0.9625,0.9847,0.9815,0.9822,0.9822,0.9822,0.9822,0.9822,0.9822,0.9822,0.9822,0.9822,0.9822,0.9822,0.9822,0.9822,0.9822,0.9822,0.9822,0.9822,0.9822,0.9822,0.9822,0.9822,0.9822,0.9822,0.9822,0.9822,0.9822,0.9822,0.9822,0.9822,0.9805,0.9713,0.9686,0.9656,0.9507,0.9462,0.9432,0.9276,0.9235,0.9215,0.912,0.9055,0.9015,0.9015,0.8977,0.894,0.894,0.894,0.894,0.894,0.894,0.894,0.894,0.8826,0.8712,0.8598,0.8501,0.8388,0.8172,0.8041,0.8038,0.8038,0.8038,0.8038,0.8038,0.8038,0.8038,0.8038,0.8038,0.8038,0.8038,0.8038,0.8038,0.8038,0.8038,0.8038,0.8038,0.8038,0.8038,0.8038,0.8038,0.8069,0.7275,0.7512,0.774,0.8184,0.8503,0.871,0.871,0.871,0.8703,0.8672,0.8442,0.8241,0.8218,0.0,0.8113,0.8411,0.8472,0.8591,0.8906,0.8825,0.8788,0.0,0.0,0.0,0.0,0.0,0.0,0.9142,0.0,0.9812,0.9822,0.9822,0.9822,0.9822,0.9822,0.9822,0.9822,0.9822,0.9822,0.9822,0.9822,0.9822,0.9822,0.9822,0.9822,0.9822,0.9822,0.9822,0.9822,0.9822,0.9822,0.9822,0.9822,0.9822,0.9822,0.9822,0.9822,0.9822,0.9822,0.9822,0.9822,0.9822,0.9822,0.9795,0.9659,0.9618,0.9588,0.9435,0.9395,0.9391,0.9384,0.9273,0.9164,0.9164,0.9055,0.895,0.895,0.8944,0.894,0.894,0.894,0.894,0.894,0.894,0.8826,0.8712,0.8712,0.8608,0.8327,0.8144,0.8041,0.8041,0.8038,0.8038,0.8038,0.8038,0.8038,0.8038,0.8038,0.8038,0.8038,0.8038,0.8038,0.8038,0.8045,0.8052,0.8052,0.8058,0.8062,0.8062,0.8062,0.814,0.7607,0.7896,0.818,0.8516,0.8655,0.871,0.871,0.871,0.8584,0.8133,0.798,0.7824,0.7489,0.0,0.0,0.8102,0.834,0.0,0.9039,0.9066,0.0,0.9093,0.0,0.9195,0.9157,0.9238,0.0,0.0,0.9251,0.934,0.9815,0.9822,0.9822,0.9822,0.9822,0.9822,0.9822,0.9822,0.9822,0.9822,0.9822,0.9822,0.9822,0.9822,0.9822,0.9822,0.9822,0.9822,0.9822,0.9822,0.9822,0.9822,0.9822,0.9822,0.9822,0.9822,0.9822,0.9822,0.9822,0.9822,0.9822,0.9822,0.9822,0.9815,0.9778,0.9768,0.9737,0.9591,0.9551,0.9523,0.9412,0.9354,0.9323,0.9323,0.9208,0.9096,0.9096,0.9015,0.894,0.894,0.894,0.894,0.894,0.894,0.8937,0.8826,0.8712,0.8612,0.8431,0.8347,0.8244,0.8244,0.8041,0.8038,0.8038,0.8038,0.8038,0.8038,0.8038,0.8038,0.8038,0.8038,0.8038,0.8038,0.8153,0.8211,0.8211,0.8316,0.8367,0.8367,0.8367,0.8391,0.7933,0.8231,0.8503,0.8669,0.871,0.8676,0.8547,0.8411,0.8163,0.7628,0.7468,0.0,0.6919,0.7149,0.0,0.0,0.0,0.0,0.9079,0.9154,0.9201,0.0,0.9429,0.0,0.9449,0.9602,0.9607,0.0,0.9428,0.946,0.9791,0.9858,0.9895,1.0022,1.0022,1.0022,1.0022,1.0022,0.9988,0.992,0.992,0.9886,0.9822,0.9822,0.9822,0.9822,0.9822,0.9822,0.9822,0.9822,0.9822,0.9822,0.9822,0.9822,0.9822,0.9822,0.9822,0.9822,0.9822,0.9822,0.9822,0.9822,0.9822,0.9822,0.9822,0.9822,0.9805,0.9724,0.9703,0.9683,0.9595,0.953,0.9483,0.9483,0.9364,0.9235,0.9167,0.9089,0.9015,0.895,0.894,0.894,0.894,0.894,0.894,0.894,0.8826,0.8709,0.8696,0.8543,0.8384,0.8354,0.8337,0.8235,0.8235,0.8177,0.814,0.814,0.8075,0.8038,0.8038,0.8106,0.814,0.814,0.8289,0.8364,0.8364,0.8442,0.8482,0.8482,0.8482,0.8516,0.8221,0.8499,0.871,0.871,0.871,0.8621,0.8286,0.7987,0.7645,0.7153,0.0,0.6753,0.6468,0.678,0.7187,0.7516,0.0,0.8448,0.9042,0.914,0.9266,0.9571,0.9625,0.9686,0.9808,0.9822,0.9751,0.9757,0.9928,0.9952,0.9952,0.9946,1.0019,1.028,1.028,1.028,1.028,1.028,1.0212,1.008,1.0059,0.9978,0.9849,0.9829,0.9822,0.9822,0.9822,0.9822,0.9822,0.9822,0.9822,0.9822,0.9822,0.9822,0.9822,0.9822,0.9822,0.9822,0.9822,0.9822,0.9822,0.9822,0.9822,0.9822,0.9822,0.9822,0.9822,0.9822,0.9822,0.9822,0.9822,0.973,0.9639,0.9639,0.952,0.9367,0.9215,0.9154,0.9086,0.8964,0.894,0.894,0.894,0.894,0.894,0.894,0.894,0.894,0.894,0.8712,0.85,0.857,0.8506,0.8482,0.8482,0.837,0.8299,0.8299,0.8153,0.8079,0.8099,0.8211,0.8279,0.8299,0.8438,0.8513,0.8513,0.8533,0.8543,0.8543,0.8543,0.8615,0.8401,0.8574,0.871,0.871,0.871,0.8567,0.8014,0.776,0.0,0.0,0.0,0.6322,0.6139,0.6474,0.0,0.7343,0.0,0.0,0.0,0.0,0.9266,0.0,0.0,0.0,0.0,0.0,0.0,0.0,0.0,1.0503,1.0503,1.0527,1.0541,1.041,1.028,1.028,1.028,1.028,1.0266,1.0239,1.011,1.0036,1.0005,0.988,0.9822,0.9822,0.9822,0.0,0.9822,0.9822,0.9822,0.9822,0.9822,0.9822,0.9822,0.9822,0.9822,0.9822,0.9822,0.9822,0.9822,0.9822,0.9822,0.9822,0.9822,0.9822,0.9822,0.9822,0.9822,0.9822,0.9822,0.9802,0.9785,0.9785,0.9676,0.953,0.9374,0.915,0.8967,0.8944,0.894,0.894,0.894,0.894,0.894,0.894,0.894,0.894,0.894,0.8712,0.8689,0.8639,0.8525,0.8482,0.8482,0.8459,0.8445,0.8445,0.8309,0.8282,0.8401,0.8319,0.8326,0.8442,0.8594,0.8669,0.8672,0.8798,0.8859,0.8859,0.8859,0.8872,0.8357,0.8479,0.8591,0.8591,0.8476,0.8204,0.76,0.0,0.0,0.0,0.5913,0.5745,0.5589,0.0,0.0,0.0,0.0,0.0,0.0,0.0,0.0,0.0,0.0,0.0,0.0,0.0,0.0,0.0,0.0,1.041,1.0675,1.0694,1.0644,1.051,1.051,1.051,1.051,1.051,1.047,1.0388,1.0243,1.0127,1.0042,0.989,0.9822,0.9822,0.9822,0.9822,0.9822,0.9822,0.9822,0.9822,0.9822,0.9822,0.9822,0.9822,0.9822,0.9822,0.9822,0.9822,0.9822,0.9822,0.9822,0.9822,0.9822,0.9822,0.9822,0.9822,0.9822,0.9822,0.9822,0.9822,0.9822,0.9822,0.9652,0.9449,0.9296,0.9093,0.894,0.894,0.894,0.894,0.894,0.894,0.894,0.894,0.894,0.894,0.894,0.8826,0.8826,0.8826,0.8696,0.872,0.872,0.8648,0.8601,0.8601,0.8462,0.8411,0.8479,0.8492,0.853,0.8601,0.875,0.8828,0.8828,0.8903,0.894,0.894,0.894,0.894,0.8275,0.8374,0.8476,0.8445,0.8235,0.7875,0.7238,0.6749,0.0,0.0,0.5311,0.5247,0.5189,0.0,0.0,0.0,0.0,0.0,0.0,0.0,0.0,0.0,0.0,0.0,0.0,0.0,0.0,0.0,0.0,1.0012,1.0635,1.0726,1.0721,1.0721,1.0721,1.0721,1.0721,1.0721,1.066,1.0538,1.0365,1.0215,1.0093,0.9907,0.9822,0.9822,0.9822,0.9822,0.9822,0.9822,0.9822,0.9822,0.9822,0.9822,0.9822,0.9822,0.9822,0.9822,0.9822,0.9822,0.9822,0.9822,0.9822,0.9822,0.9822,0.9822,0.9822,0.9822,0.9822,0.9822,0.9822,0.9822,0.9815,0.9781,0.9574,0.9344,0.9201,0.9049,0.894,0.894,0.894,0.894,0.894,0.894,0.894,0.894,0.894,0.894,0.894,0.894,0.894,0.894,0.894,0.894,0.894,0.8828,0.876,0.876,0.8615,0.8547,0.8577,0.8665,0.8726,0.8757,0.8876,0.894,0.894,0.894,0.894,0.894,0.894,0.894,0.8279,0.8374,0.8452,0.8323,0.8163,0.7848,0.7115,0.0,0.0,0.5555,0.5148,0.5036,0.5291,0.5498,0.582,0.0,0.0,0.0,0.0,0.0,0.0,0.0,0.0,0.0,0.0,0.0,0.0,0.0,0.0,1.0116,1.066,1.0707,1.0721,1.0721,1.0721,1.0721,1.0721,1.0721,1.0714,1.0697,1.0415,1.0273,1.0249,0.9954,0.9822,0.9822,0.9822,0.9822,0.0,0.9822,0.9822,0.9822,0.9822,0.9822,0.9822,0.9822,0.9822,0.9822,0.9822,0.9822,0.9822,0.9822,0.9822,0.9822,0.9822,0.9822,0.9822,0.9822,0.9822,0.9822,0.9822,0.9822,0.9788,0.9659,0.9503,0.9354,0.9252,0.9076,0.894,0.894,0.894,0.894,0.894,0.894,0.894,0.894,0.894,0.894,0.894,0.894,0.894,0.894,0.894,0.894,0.894,0.8927,0.8916,0.8916,0.8774,0.8754,0.8893,0.8777,0.8774,0.8916,0.893,0.894,0.894,0.894,0.894,0.894,0.894,0.894,0.7989,0.8174,0.8201,0.8147,0.7953,0.7604,0.6943,0.0,0.5817,0.5216,0.4853,0.4738,0.504,0.507,0.5301,0.6081,0.6207,0.6508,0.0,0.0,0.0,0.0,0.0,0.0,0.0,0.0,0.0,0.0,0.0,0.991,1.0174,1.032,1.0323,1.0456,1.0456,1.0456,1.0456,1.0456,1.0456,1.0453,1.0243,1.0141,1.0134,0.992,0.9822,0.9822,0.9822,0.9822,0.0,0.9822,0.9822,0.9822,0.9822,0.9822,0.9822,0.9822,0.9822,0.9822,0.9822,0.9822,0.9822,0.9822,0.9822,0.9822,0.9822,0.9822,0.9822,0.9822,0.9822,0.9822,0.9822,0.9758,0.9656,0.9507,0.9354,0.9211,0.9086,0.8994,0.894,0.894,0.894,0.894,0.894,0.894,0.894,0.894,0.894,0.894,0.894,0.894,0.894,0.894,0.894,0.894,0.894,0.894,0.894,0.894,0.8879,0.8876,0.8937,0.8879,0.8876,0.8937,0.894,0.894,0.894,0.894,0.894,0.894,0.894,0.894,0.7744,0.7974,0.8038,0.8038,0.7784,0.7387,0.0,0.0,0.5583,0.5033,0.4674,0.4597,0.4802,0.4799,0.4992,0.5715,0.5806,0.6105,0.7014,0.0,0.0,0.0,0.0,0.0,0.0,0.0,0.0,0.0,0.0,0.9774,0.9751,0.9886,1.0059,1.0276,1.028,1.028,1.028,1.028,1.028,1.028,1.0124,1.0049,1.0046,0.989,0.9822,0.9822,0.9822,0.9822,0.0,0.9822,0.9822,0.9822,0.9822,0.9822,0.9822,0.9822,0.9822,0.9822,0.9822,0.9822,0.9822,0.9822,0.9822,0.9822,0.9822,0.9822,0.9822,0.9822,0.9822,0.9812,0.9771,0.9683,0.9561,0.9361,0.9232,0.9113,0.8967,0.894,0.894,0.894,0.894,0.894,0.894,0.894,0.894,0.894,0.894,0.894,0.894,0.894,0.894,0.894,0.894,0.894,0.894,0.894,0.894,0.894,0.894,0.894,0.894,0.894,0.894,0.894,0.894,0.894,0.894,0.894,0.894,0.894,0.894,0.894,0.7473,0.7818,0.8038,0.8038,0.7702,0.7255,0.0,0.6125,0.5464,0.5013,0.4674,0.4567,0.4663,0.4816,0.5016,0.5318,0.594,0.6461,0.7054,0.0,0.0,0.0,0.0,0.0,0.0,0.0,0.0,0.0,0.0,0.0,0.9825,0.9825,0.9964,1.0273,1.028,1.028,1.028,1.028,1.028,1.028,1.0124,1.0049,1.0046,0.9893,0.9822,0.9822,0.9822,0.9822,0.0,0.9822,0.9822,0.9822,0.9822,0.9822,0.9822,0.9822,0.9822,0.9822,0.9822,0.9822,0.9822,0.9822,0.9822,0.9822,0.9822,0.9822,0.9822,0.9822,0.9822,0.9788,0.9649,0.9612,0.9534,0.9228,0.9154,0.9113,0.8967,0.894,0.894,0.894,0.894,0.894,0.894,0.894,0.894,0.894,0.894,0.894,0.894,0.894,0.894,0.894,0.894,0.894,0.894,0.894,0.894,0.894,0.894,0.894,0.894,0.894,0.894,0.894,0.894,0.894,0.894,0.894,0.894,0.894,0.894,0.894,0.679,0.6973,0.7075,0.6875,0.6719,0.6495,0.6044,0.5677,0.5308,0.4857,0.4602,0.4567,0.4663,0.4646,0.4874,0.5688,0.5891,0.0,0.0,0.0,0.0,0.0,0.0,0.0,0.0,0.0,0.0,0.0,0.0,0.9822,0.9822,0.9822,0.9866,0.9964,0.9964,0.9964,0.9964,0.9964,0.9964,0.9964,0.9917,0.9893,0.9893,0.9842,0.9822,0.9822,0.9822,0.9822,0.9822,0.9822,0.9822,0.9822,0.9822,0.9822,0.9822,0.9822,0.9822,0.9822,0.9822,0.9822,0.9822,0.9822,0.9822,0.9822,0.9822,0.9822,0.9822,0.9822,0.9751,0.9666,0.9622,0.9456,0.9273,0.9174,0.9079,0.8994,0.895,0.894,0.894,0.894,0.894,0.894,0.894,0.894,0.894,0.894,0.894,0.894,0.894,0.894,0.894,0.894,0.894,0.894,0.894,0.894,0.894,0.894,0.894,0.894,0.894,0.894,0.894,0.894,0.894,0.894,0.894,0.894,0.894,0.894,0.894,0.894,0.0,0.6373,0.6491,0.6305,0.6173,0.6,0.5667,0.5386,0.5098,0.4758,0.4568,0.4546,0.4585,0.4572,0.4782,0.5494,0.5718,0.0,0.0,0.0,0.0,0.0,0.0,0.0,0.0,0.0,0.0,0.0,0.9822,0.9822,0.9822,0.9822,0.9822,0.9822,0.9822,0.9822,0.9822,0.9822,0.9822,0.9822,0.9822,0.9822,0.9822,0.9822,0.9822,0.9822,0.9822,0.9822,0.0,0.9822,0.9822,0.9822,0.9822,0.9822,0.9822,0.9822,0.9822,0.9822,0.9822,0.9822,0.9822,0.9822,0.9822,0.9822,0.9822,0.9822,0.9812,0.9754,0.968,0.9585,0.9466,0.9296,0.914,0.9086,0.9001,0.894,0.894,0.894,0.894,0.894,0.894,0.894,0.894,0.894,0.894,0.894,0.894,0.894,0.894,0.894,0.894,0.894,0.894,0.894,0.894,0.894,0.894,0.894,0.894,0.894,0.894,0.894,0.894,0.894,0.894,0.894,0.894,0.894,0.894,0.894,0.894,0.894,0.0,0.5932,0.6159,0.6139,0.5925,0.5684,0.5542,0.5196,0.0,0.4707,0.4562,0.4529,0.456,0.4609,0.4765,0.4992,0.5491,0.0,0.0,0.0,0.0,0.0,0.0,0.0,0.0,0.0,0.0,0.0,0.9822,0.9822,0.9822,0.9822,0.9822,0.9822,0.9822,0.9822,0.9822,0.9822,0.9822,0.9822,0.9822,0.9822,0.9822,0.9822,0.9822,0.0,0.9822,0.9822,0.9822,0.9822,0.9822,0.9822,0.9822,0.9822,0.9822,0.9822,0.9822,0.9822,0.9822,0.9822,0.9822,0.9822,0.9822,0.9819,0.9808,0.9805,0.9778,0.9646,0.9595,0.951,0.9225,0.9147,0.9103,0.8971,0.894,0.894,0.894,0.894,0.894,0.894,0.894,0.894,0.894,0.894,0.894,0.894,0.894,0.894,0.894,0.894,0.894,0.894,0.894,0.894,0.894,0.894,0.894,0.894,0.894,0.894,0.894,0.894,0.894,0.894,0.894,0.894,0.894,0.894,0.894,0.894,0.894,0.894,0.4738,0.0,0.5179,0.5006,0.4918,0.4914,0.0,0.4738,0.4701,0.0,0.0,0.4568,0.4911,0.4819,0.5003,0.5952,0.6224,0.0,0.0,0.0,0.0,0.0,0.0,0.0,0.0,0.0,0.0,0.9822,0.9822,0.9822,0.9822,0.9822,0.9822,0.9822,0.9822,0.9822,0.9822,0.9822,0.9822,0.9822,0.9822,0.9822,0.9822,0.9822,0.9822,0.9822,0.9822,0.9822,0.9822,0.9822,0.9822,0.9822,0.9822,0.9822,0.9822,0.9822,0.9822,0.9822,0.9822,0.9822,0.9822,0.9822,0.9822,0.9802,0.9693,0.9659,0.9652,0.9618,0.9442,0.9245,0.9171,0.9069,0.8981,0.8947,0.894,0.894,0.894,0.894,0.894,0.894,0.894,0.894,0.894,0.894,0.894,0.894,0.894,0.894,0.894,0.894,0.894,0.894,0.894,0.894,0.894,0.894,0.894,0.894,0.894,0.894,0.894,0.894,0.894,0.894,0.894,0.894,0.894,0.894,0.894,0.894,0.894,0.894,0.4519,0.4633,0.4775,0.4609,0.4629,0.467,0.4585,0.0,0.0,0.0,0.0,0.0,0.487,0.4908,0.0,0.5939,0.6352,0.0,0.0,0.0,0.0,0.0,0.0,0.0,0.0,0.0,0.9822,0.9822,0.9822,0.9822,0.9822,0.9822,0.9822,0.9822,0.9822,0.9822,0.9822,0.9822,0.9822,0.9822,0.9822,0.9822,0.9822,0.9822,0.9822,0.9822,0.9822,0.9822,0.9822,0.9822,0.9822,0.9822,0.9822,0.9822,0.9822,0.9822,0.9781,0.9724,0.9724,0.968,0.9632,0.97,0.9676,0.9605,0.953,0.9456,0.9401,0.9401,0.9283,0.9137,0.9072,0.8998,0.894,0.894,0.894,0.894,0.894,0.894,0.894,0.894,0.894,0.894,0.894,0.894,0.894,0.894,0.894,0.894,0.894,0.894,0.894,0.894,0.894,0.894,0.894,0.894,0.894,0.894,0.894,0.894,0.894,0.894,0.894,0.894,0.894,0.894,0.894,0.894,0.894,0.894,0.894,0.894,0.457,0.4643,0.4741,0.4674,0.4674,0.4684,0.466,0.0,0.0,0.0,0.0,0.0,0.0,0.0,0.0,0.0,0.0,0.0,0.0,0.0,0.0,0.0,0.0,0.0,0.0,0.984,0.9798,0.9819,0.9822,0.9822,0.9822,0.9822,0.9822,0.9822,0.9822,0.9822,0.9822,0.9822,0.9822,0.9822,0.9822,0.9822,0.9822,0.9822,0.9822,0.9822,0.9822,0.9822,0.9822,0.9822,0.9822,0.9822,0.9822,0.9805,0.9788,0.9788,0.9696,0.9574,0.9574,0.949,0.9401,0.9534,0.9486,0.9378,0.9354,0.9256,0.9147,0.9127,0.912,0.9093,0.8971,0.894,0.894,0.894,0.894,0.894,0.894,0.894,0.894,0.894,0.894,0.894,0.894,0.894,0.894,0.894,0.894,0.894,0.894,0.894,0.894,0.894,0.894,0.894,0.894,0.894,0.894,0.894,0.894,0.894,0.894,0.894,0.894,0.894,0.894,0.894,0.894,0.894,0.894,0.894,0.894,0.894,0.4745,0.4955,0.4972,0.4592,0.4596,0.4657,0.0,0.0,0.0,0.0,0.0,0.0,0.0,0.0,0.0,0.0,0.0,0.0,0.0,0.0,0.0,0.0,0.0,0.0,0.0,0.9755,0.9816,0.9812,0.9822,0.9822,0.9822,0.9822,0.9822,0.9822,0.9822,0.9822,0.9822,0.9822,0.9822,0.9822,0.9822,0.9822,0.9822,0.9822,0.9822,0.9822,0.9822,0.9822,0.9822,0.9822,0.9822,0.9822,0.9822,0.9747,0.9642,0.9642,0.9547,0.9415,0.9415,0.9401,0.9384,0.9408,0.9401,0.9357,0.9225,0.9171,0.9127,0.9008,0.8971,0.8967,0.8944,0.894,0.894,0.894,0.894,0.894,0.894,0.894,0.894,0.894,0.894,0.894,0.894,0.894,0.894,0.894,0.894,0.894,0.894,0.894,0.894,0.894,0.894,0.894,0.894,0.894,0.894,0.894,0.894,0.894,0.894,0.894,0.894,0.894,0.894,0.894,0.894,0.894,0.894,0.894,0.894,0.894,0.4445,0.4721,0.4863,0.4741,0.4945,0.5138,0.0,0.0,0.0,0.0,0.0,0.0,0.0,0.0,0.0,0.0,0.0,0.0,0.0,0.0,0.0,0.0,0.0,0.8974,0.9231,0.9439,0.9669,0.9696,0.9707,0.9741,0.9819,0.9822,0.9822,0.9822,0.9822,0.9822,0.9822,0.9822,0.9822,0.9822,0.9822,0.9822,0.9822,0.9822,0.9822,0.9819,0.9741,0.9707,0.97,0.9618,0.9585,0.9585,0.9585,0.9544,0.9476,0.9395,0.9317,0.9259,0.9259,0.9208,0.9154,0.9232,0.9205,0.9127,0.9059,0.9035,0.9022,0.8957,0.894,0.894,0.894,0.894,0.894,0.894,0.894,0.894,0.894,0.894,0.894,0.894,0.894,0.894,0.894,0.894,0.894,0.894,0.894,0.894,0.894,0.894,0.894,0.894,0.894,0.894,0.894,0.894,0.894,0.894,0.894,0.894,0.894,0.894,0.894,0.894,0.894,0.894,0.894,0.894,0.894,0.894,0.894,0.894,0.4311,0.4545,0.4735,0.4921,0.0,0.0,0.541,0.0,0.0,0.0,0.0,0.0,0.0,0.0,0.0,0.0,0.0,0.0,0.0,0.0,0.0,0.8923,0.892,0.8881,0.8914,0.9138,0.9391,0.9544,0.9557,0.9602,0.9713,0.9717,0.9717,0.9717,0.9717,0.9717,0.9717,0.9717,0.9751,0.9822,0.9822,0.9822,0.9819,0.9785,0.9771,0.9764,0.9618,0.9557,0.9547,0.9432,0.9381,0.9381,0.9381,0.9361,0.931,0.9157,0.9103,0.9103,0.9103,0.9032,0.8957,0.9066,0.9028,0.894,0.894,0.894,0.894,0.894,0.894,0.894,0.894,0.894,0.894,0.894,0.894,0.894,0.894,0.894,0.894,0.894,0.894,0.894,0.894,0.894,0.894,0.894,0.894,0.894,0.894,0.894,0.894,0.894,0.894,0.8923,0.8889,0.8852,0.8849,0.8882,0.892,0.894,0.894,0.894,0.894,0.894,0.894,0.894,0.894,0.894,0.894,0.894,0.894,0.894,0.4718,0.4782,0.4758,0.5043,0.0,0.0,0.545,0.0,0.0,0.0,0.0,0.0,0.0,0.0,0.0,0.0,0.0,0.0,0.0,0.0,0.8927,0.8937,0.8947,0.8893,0.8907,0.8927,0.9111,0.9384,0.9398,0.9401,0.9412,0.9412,0.9412,0.9412,0.9412,0.9412,0.9412,0.9412,0.9551,0.9822,0.9822,0.9822,0.9815,0.9686,0.9625,0.9615,0.9462,0.9398,0.9398,0.9388,0.9381,0.9381,0.9381,0.9296,0.9154,0.9008,0.8954,0.8954,0.8954,0.8947,0.894,0.895,0.8947,0.894,0.894,0.894,0.894,0.894,0.894,0.894,0.894,0.894,0.894,0.894,0.894,0.894,0.894,0.894,0.894,0.894,0.894,0.894,0.894,0.894,0.894,0.894,0.894,0.894,0.894,0.894,0.894,0.894,0.894,0.8879,0.8737,0.8598,0.8574,0.8716,0.8859,0.894,0.894,0.894,0.894,0.894,0.894,0.894,0.894,0.894,0.894,0.894,0.894,0.894,0.4334,0.4596,0.4762,0.5057,0.0,0.0,0.0,0.0,0.0,0.0,0.0,0.0,0.0,0.0,0.0,0.0,0.0,0.0,0.0,0.8804,0.894,0.894,0.894,0.885,0.89,0.8903,0.8967,0.9228,0.9239,0.9283,0.9374,0.9381,0.9381,0.9381,0.9381,0.9381,0.9381,0.9381,0.9439,0.9547,0.9547,0.9547,0.9547,0.9493,0.9466,0.9459,0.9306,0.9239,0.9232,0.9144,0.9106,0.9106,0.9106,0.9069,0.9015,0.8957,0.894,0.894,0.894,0.894,0.894,0.894,0.894,0.894,0.894,0.894,0.894,0.894,0.894,0.894,0.894,0.894,0.894,0.894,0.894,0.894,0.894,0.894,0.894,0.894,0.894,0.894,0.894,0.894,0.894,0.894,0.894,0.894,0.894,0.894,0.894,0.894,0.8855,0.8733,0.8581,0.8516,0.8506,0.8564,0.8713,0.8838,0.8933,0.8849,0.8798,0.8798,0.8798,0.8798,0.8798,0.8893,0.8889,0.8798,0.8798,0.8747,0.4127,0.4341,0.4633,0.0,0.0,0.0,0.0,0.0,0.0,0.0,0.0,0.0,0.0,0.0,0.0,0.0,0.0,0.0,0.0,0.8855,0.8869,0.8869,0.891,0.894,0.894,0.894,0.8981,0.9079,0.9086,0.913,0.9235,0.9242,0.9242,0.9242,0.9242,0.9242,0.9242,0.9242,0.9242,0.9242,0.9242,0.9289,0.9381,0.9334,0.931,0.93,0.915,0.9086,0.9079,0.8981,0.894,0.894,0.894,0.894,0.894,0.894,0.894,0.894,0.894,0.894,0.894,0.894,0.894,0.894,0.894,0.894,0.894,0.894,0.894,0.894,0.894,0.894,0.894,0.894,0.894,0.894,0.894,0.894,0.894,0.894,0.894,0.894,0.894,0.894,0.894,0.894,0.894,0.894,0.894,0.894,0.892,0.8872,0.8689,0.853,0.8425,0.837,0.8364,0.8411,0.8513,0.8638,0.8788,0.8696,0.8638,0.8638,0.8638,0.8638,0.8638,0.8743,0.874,0.8638,0.8638,0.8581,0.4153,0.42,0.0,0.0,0.0,0.0,0.0,0.0,0.0,0.0,0.0,0.0,0.0,0.0,0.0,0.0,0.7961,0.8166,0.8798,0.8853,0.8928,0.8928,0.8845,0.8937,0.8937,0.894,0.894,0.894,0.894,0.894,0.894,0.894,0.894,0.894,0.894,0.894,0.894,0.894,0.894,0.894,0.894,0.9093,0.9371,0.9218,0.915,0.9144,0.9001,0.894,0.894,0.894,0.894,0.894,0.894,0.894,0.894,0.894,0.894,0.894,0.894,0.894,0.894,0.894,0.894,0.894,0.894,0.8937,0.8937,0.8937,0.8937,0.8937,0.8937,0.8937,0.894,0.894,0.894,0.894,0.894,0.894,0.894,0.894,0.894,0.894,0.894,0.894,0.894,0.894,0.894,0.894,0.8937,0.8933,0.8876,0.8723,0.8445,0.8272,0.8269,0.813,0.8106,0.8258,0.8269,0.8333,0.8476,0.8479,0.8479,0.8479,0.8479,0.8479,0.8479,0.8482,0.8479,0.8479,0.8479,0.8479,0.4153,0.4912,0.0,0.0,0.0,0.0,0.0,0.0,0.0,0.0,0.0,0.0,0.0,0.0,0.0,0.8024,0.7961,0.8057,0.8269,0.8219,0.8441,0.8878,0.8904,0.8893,0.8893,0.8876,0.894,0.894,0.894,0.894,0.894,0.894,0.894,0.894,0.894,0.894,0.894,0.894,0.894,0.894,0.894,0.8984,0.9069,0.9022,0.9001,0.8998,0.8957,0.894,0.894,0.894,0.894,0.894,0.894,0.894,0.894,0.894,0.894,0.894,0.894,0.894,0.894,0.894,0.894,0.9047,1.0131,1.0457,1.0676,1.1647,1.1973,1.1973,1.1973,1.1841,1.1126,0.9282,0.9739,1.0429,1.0429,1.0429,1.0429,1.0429,0.9625,0.894,0.894,0.894,0.894,0.894,0.894,0.8899,0.8791,0.8682,0.8564,0.8418,0.8323,0.8225,0.8116,0.8065,0.8058,0.8106,0.8109,0.8221,0.8472,0.8387,0.8333,0.8333,0.8333,0.8333,0.8333,0.8431,0.8938,0.9638,0.8734,0.878,0.4748,0.0,0.0,0.0,0.0,0.0,0.0,0.0,0.0,0.0,0.0,0.0,0.0,0.0,0.0,0.7997,0.7979,0.8046,0.7968,0.7988,0.818,0.8505,0.853,0.9048,1.013,0.9781,0.9715,1.025,1.025,1.0038,0.9503,0.9566,0.9388,0.8849,0.8906,0.9154,0.9809,0.9809,0.9809,0.9809,0.9809,0.9482,0.894,0.894,0.894,0.894,0.894,0.9265,0.9699,0.9154,0.9265,0.9809,0.9809,1.0131,1.0566,1.0025,1.0131,1.0457,0.9265,0.9699,1.0566,0.9915,1.0131,1.0781,1.1647,1.1914,1.1958,1.2812,1.3067,1.2916,1.2889,1.2832,1.2307,1.0761,1.0659,1.0851,1.0941,1.0574,1.0385,1.0982,1.0429,0.9743,0.9743,0.9743,0.9603,0.8968,0.8798,0.8723,0.8632,0.8489,0.8367,0.8279,0.8214,0.814,0.8045,0.8038,0.8038,0.8038,0.8038,0.8119,0.8299,0.8225,0.8177,0.8177,0.8177,0.848,0.8978,0.9071,0.9669,1.0852,1.0067,1.0108,0.0,0.0,0.0,0.0,0.0,0.0,0.0,0.0,0.0,0.0,0.0,0.0,0.0,0.0,0.7983,0.8031,0.7953,0.7974,0.8031,0.7955,0.8034,0.8031,0.826,0.9399,1.2058,1.1295,1.1061,1.2299,1.2402,1.1883,1.0647,1.0607,1.0067,0.8901,0.8931,0.9662,1.108,1.108,1.1093,1.1105,1.1,1.0241,0.9047,0.8937,0.894,0.894,0.9047,0.9798,1.0975,0.957,0.9885,1.1272,1.1272,1.2022,1.3101,1.1702,1.2027,1.2778,1.0194,1.0946,1.2989,1.1702,1.213,1.3204,1.3419,1.3169,1.3005,1.311,1.2967,1.2751,1.283,1.28,1.2768,1.3068,1.1923,1.0787,1.1045,1.0047,0.9625,1.0949,1.1101,1.0957,1.0826,1.0835,1.0327,0.8932,0.856,0.8462,0.8462,0.8336,0.8248,0.8248,0.8123,0.8038,0.8038,0.8137,0.8134,0.8134,0.8333,0.8333,0.8333,0.8237,0.8134,0.8134,0.8333,0.892,1.0194,1.0096,1.0681,1.2042,1.1848,1.1848,0.0,0.0,0.0,0.0,0.0,0.0,0.0,0.0,0.0,0.0,0.0,0.0,0.0,0.9612,1.0294,0.8347,0.7953,0.7974,0.8031,0.7965,0.7969,0.8024,0.9819,1.1286,1.1952,1.1996,1.2093,1.2402,1.2402,1.2294,1.1986,1.0997,1.0293,1.0088,1.0023,1.0318,1.0988,1.089,1.0858,1.1105,0.9915,0.9805,1.0566,0.9482,0.894,0.8937,1.0131,1.0703,1.0787,1.0469,1.1018,1.2125,1.2125,1.2333,1.2541,1.2229,1.2333,1.2541,1.1917,1.2021,1.2541,1.2229,1.2333,1.2853,1.3881,1.4156,1.4424,1.5562,1.5828,1.5796,1.5745,1.5574,1.5515,1.5571,1.4601,1.3622,1.3635,1.3504,1.3123,1.239,1.1354,1.0221,0.9205,0.9057,0.8899,0.8642,0.8408,0.8316,0.8316,0.8184,0.8089,0.8089,0.8058,0.8038,0.8038,0.892,0.9608,0.9608,1.0485,1.1072,1.1072,1.0096,0.9608,0.9608,1.0583,1.1165,1.1463,1.0485,1.1165,1.3392,1.1356,1.1551,0.0,0.0,0.0,0.0,0.0,0.0,0.0,0.0,0.0,0.0,0.0,0.0,0.0,1.0974,1.19,1.179,0.9637,0.8031,0.7991,0.7997,0.7977,0.8017,1.1382,1.3754,1.3751,1.3331,1.3386,1.3987,1.3987,1.3783,1.3181,1.2486,1.1933,1.1323,1.1317,1.1728,1.2665,1.2566,1.2626,1.2735,1.2,1.158,1.1686,1.1039,1.1186,1.1823,1.1727,1.2049,1.2467,1.174,1.2294,1.3421,1.3421,1.3835,1.4343,1.3625,1.3829,1.4242,1.2915,1.3324,1.4343,1.3625,1.3829,1.4552,1.5368,1.5482,1.5482,1.6295,1.6393,1.6286,1.6286,1.6175,1.6064,1.6064,1.5082,1.4201,1.4328,1.3841,1.3442,1.355,1.2951,1.22,1.1468,1.023,0.9289,0.9289,0.9154,0.9353,0.995,0.9958,0.9899,0.9899,0.9899,0.9899,0.9899,1.0485,1.0877,1.0877,1.156,1.1945,1.1945,1.1843,1.1551,1.0877,1.1556,1.1945,1.1945,1.1268,1.1653,1.2915,1.1556,1.1648,0.0,0.0,0.0,0.0,0.0,0.0,0.0,0.0,0.0,0.0,0.0,0.0,1.1717,1.2289,1.3256,1.5409,1.1405,0.7969,0.8028,0.875,0.9339,0.9364,1.318,1.5809,1.578,1.4802,1.4657,1.573,1.5832,1.5337,1.4268,1.4084,1.3599,1.2506,1.2592,1.3217,1.4476,1.4482,1.45,1.4546,1.4546,1.3931,1.2812,1.3169,1.3778,1.4435,1.3302,1.34,1.4381,1.3158,1.3543,1.4719,1.4719,1.5432,1.6355,1.5126,1.5532,1.6249,1.3808,1.4518,1.6348,1.5126,1.5532,1.6553,1.6553,1.6386,1.6192,1.6192,1.6019,1.5832,1.5832,1.5832,1.5832,1.5832,1.4981,1.4242,1.4349,1.3607,1.3193,1.4242,1.4225,1.4097,1.4037,1.2033,1.0515,1.0515,1.0388,1.0681,1.1755,1.1945,1.1945,1.1945,1.1945,1.1945,1.1945,1.2139,1.2237,1.2237,1.2431,1.2528,1.2528,1.3686,1.3686,1.2624,1.2528,1.2431,1.2237,1.2042,1.1945,1.1848,1.1653,1.1658,0.0,0.0,0.0,0.0,0.0,0.0,0.0,0.0,0.0,0.0,0.0,1.255,1.2001,1.3796,1.5363,1.5704,1.1399,0.7997,0.7966,1.1868,1.4783,1.4762,1.539,1.578,1.5763,1.5642,1.5635,1.5825,1.5832,1.573,1.5534,1.4496,1.3829,1.3636,1.3665,1.3889,1.4307,1.4214,1.433,1.4552,1.4552,1.4451,1.4236,1.537,1.4695,1.2751,1.3744,1.4217,1.412,1.3922,1.4582,1.5652,1.5652,1.5754,1.5945,1.5652,1.5754,1.585,1.5454,1.5556,1.585,1.5652,1.5747,1.5945,1.5945,1.5919,1.5885,1.5885,1.5858,1.5832,1.5832,1.5832,1.5832,1.5832,1.5622,1.5514,1.5615,1.5406,1.5082,1.4135,1.3037,1.2236,1.2215,1.1971,1.1697,1.1697,1.1673,1.175,1.1853,1.1945,1.1945,1.1945,1.1945,1.1945,1.1945,1.3006,1.3584,1.3584,1.4657,1.5248,1.5248,1.5439,1.5439,1.5248,1.5248,1.4758,1.3584,1.2431,1.1945,1.1853,1.0779,1.0877,0.0,0.0,0.0,0.0,0.0,0.0,0.0,0.0,0.0,0.0,0.0,1.4217,1.4066,1.4997,1.5785,1.5754,1.3872,1.2325,1.2373,1.4377,1.584,1.5817,1.5803,1.5783,1.5832,1.5832,1.5832,1.5832,1.5832,1.5832,1.5832,1.5242,1.4949,1.4949,1.4949,1.5006,1.5126,1.5036,1.5099,1.5316,1.5316,1.5218,1.5212,1.5783,1.5486,1.463,1.5084,1.5149,1.5036,1.5036,1.5358,1.5832,1.5832,1.5832,1.5832,1.5832,1.5832,1.5832,1.5832,1.5832,1.5832,1.5832,1.5832,1.5832,1.5832,1.5832,1.5832,1.5832,1.5832,1.5832,1.5832,1.5832,1.5832,1.5832,1.5832,1.5832,1.5832,1.5832,1.5622,1.5082,1.4456,1.3826,1.3098,1.3008,1.3006,1.3006,1.3006,1.3301,1.398,1.4082,1.4082,1.4082,1.4082,1.4082,1.4082,1.4657,1.4949,1.4949,1.5534,1.5832,1.5832,1.5832,1.5832,1.5832,1.5832,1.514,1.3878,1.2522,1.156,1.0779,0.9509,0.9213,0.0,0.0,0.0,0.0,0.0,0.0,0.0,0.0,0.0,0.0,1.463,1.4925,1.5318,1.5643,1.5828,1.5798,1.5757,1.5777,1.5843,1.5754,1.5823,1.5838,1.5832,1.5832,1.5832,1.5832,1.5832,1.5832,1.5832,1.5832,1.5832,1.5832,1.5832,1.5832,1.5832,1.5832,1.5832,1.5832,1.5832,1.5832,1.5832,1.5832,1.5832,1.5832,1.5952,1.6146,1.5925,1.5832,1.5832,1.5832,1.5832,1.5832,1.5832,1.5832,1.5832,1.5832,1.5832,1.5832,1.5832,1.5832,1.5832,1.5832,1.5832,1.5832,1.5832,1.5832,1.5832,1.5832,1.5832,1.5832,1.5832,1.5832,1.5832,1.5832,1.5832,1.5832,1.5832,1.5832,1.5832,1.5832,1.5832,1.5507,1.4551,1.441,1.4364,1.4364,1.4364,1.4752,1.5635,1.5832,1.5832,1.5832,1.5832,1.5832,1.5832,1.5832,1.5832,1.5832,1.5832,1.5832,1.5832,1.5832,1.5832,1.5832,1.5832,1.514,1.3878,1.2909,1.175,1.0485,0.941,0.9019,0.0,0.0,0.0,0.0,0.0,0.0,0.0,0.0,0.0,0.0,1.3838,1.413,1.4215,1.5096,1.5798,1.58,1.5841,1.5837,1.5805,1.5838,1.5838,1.5832,1.5832,1.5832,1.5832,1.5832,1.5832,1.5832,1.5832,1.5832,1.5832,1.5832,1.5832,1.5832,1.5832,1.5832,1.5832,1.5832,1.5832,1.5832,1.5832,1.5832,1.5832,1.5832,1.5838,1.5852,1.5838,1.5832,1.5832,1.5832,1.5832,1.5832,1.5832,1.5832,1.5832,1.5832,1.5832,1.5832,1.5832,1.5832,1.5832,1.5832,1.5832,1.5832,1.5832,1.5832,1.5832,1.5832,1.5832,1.5832,1.5832,1.5832,1.5832,1.5832,1.5832,1.5832,1.5832,1.5832,1.5832,1.5832,1.5832,1.5825,1.5724,1.5724,1.573,1.573,1.573,1.573,1.5825,1.5832,1.5832,1.5832,1.5832,1.5832,1.5832,1.5832,1.5832,1.5832,1.5832,1.5832,1.5832,1.5832,1.5832,1.5832,1.5832,1.514,1.3878,1.3872,1.3102,1.1755,1.175,1.1653,0.0,0.0,0.0,0.0,0.0,0.0,0.0,0.0,0.0,0.0,1.4034,1.4083,1.4095,1.4448,1.4674,1.4669,1.5318,1.5777,1.5782,1.5756,1.5771,1.5771,1.5826,1.5832,1.5832,1.5832,1.5832,1.5832,1.5832,1.5832,1.5832,1.5832,1.5832,1.5832,1.5832,1.5832,1.5832,1.5832,1.5832,1.5832,1.5832,1.5832,1.5832,1.5832,1.5832,1.5832,1.5832,1.5832,1.5832,1.5832,1.5832,1.5832,1.5832,1.5832,1.5832,1.5832,1.5832,1.5832,1.5832,1.5832,1.5832,1.5832,1.5832,1.5832,1.5832,1.5832,1.5832,1.5832,1.5832,1.5832,1.5832,1.5832,1.5832,1.5832,1.5832,1.5832,1.5832,1.5832,1.5832,1.5832,1.5832,1.5832,1.5832,1.5832,1.5832,1.5832,1.5832,1.5832,1.5832,1.5832,1.5832,1.5832,1.5832,1.5832,1.5832,1.5832,1.5832,1.5832,1.5832,1.5832,1.5832,1.5832,1.5832,1.5832,1.5832,1.554,1.5146,1.4268,1.368,1.3199,1.2334,1.1945,0.6908,0.0,0.0,0.0,0.0,0.0,0.0,0.0,0.0,1.3283,1.3537,1.3502,1.3534,1.3821,1.4143,1.4134,1.4714,1.5246,1.5246,1.5228,1.5355,1.5769,1.5824,1.5792,1.5792,1.5778,1.5832,1.5832,1.5832,1.5832,1.5832,1.5832,1.5832,1.5832,1.5832,1.5832,1.5832,1.5832,1.5832,1.5832,1.5832,1.5832,1.5832,1.5832,1.5832,1.5832,1.5832,1.5832,1.5832,1.5832,1.5832,1.5832,1.5832,1.5832,1.5832,1.5832,1.5832,1.5832,1.5832,1.5832,1.5832,1.5832,1.5832,1.5832,1.5832,1.5832,1.5832,1.5832,1.5832,1.5832,1.5832,1.5832,1.5832,1.5832,1.5832,1.5832,1.5832,1.5832,1.5832,1.5832,1.5832,1.5832,1.5832,1.5832,1.5832,1.5832,1.5832,1.5832,1.5832,1.5832,1.5832,1.5832,1.5832,1.5832,1.5832,1.5832,1.5832,1.5832,1.5832,1.5832,1.5832,1.5832,1.5832,1.5832,1.5832,1.5832,1.5832,1.4949,1.4555,1.4561,1.3596,1.3204,0.0,0.0,0.0,0.0,0.0,0.0,0.0,0.0,0.0,1.2131,1.2309,1.2273,1.2327,1.3272,1.4026,1.4051,1.4095,1.4106,1.4091,1.4129,1.4539,1.5652,1.5727,1.5793,1.5793,1.5752,1.5805,1.5805,1.5805,1.5805,1.5812,1.5825,1.5832,1.5832,1.5832,1.5832,1.5832,1.5832,1.5832,1.5832,1.5832,1.5832,1.5832,1.5832,1.5832,1.5832,1.5832,1.5832,1.5832,1.5832,1.5832,1.5832,1.5832,1.5832,1.5832,1.5832,1.5832,1.5832,1.5832,1.5832,1.5832,1.5832,1.5832,1.5832,1.5832,1.5832,1.5832,1.5832,1.5832,1.5832,1.5832,1.5832,1.5832,1.5832,1.5832,1.5832,1.5832,1.5832,1.5832,1.5832,1.5832,1.5832,1.5832,1.5832,1.5832,1.5832,1.5832,1.5832,1.5832,1.5832,1.5832,1.5832,1.5832,1.5832,1.5832,1.5832,1.5832,1.5832,1.5832,1.5832,1.5832,1.5832,1.5832,1.5832,1.5832,1.5832,1.5832,1.5832,1.5832,1.5832,1.5832,1.5832,0.6526,0.0,0.0,0.0,0.0,0.0,0.0,0.0,0.0,1.1066,1.1736,1.2333,1.233,1.2559,1.2779,1.2824,1.3563,1.4085,1.4091,1.4115,1.4245,1.4542,1.4596,1.4766,1.5181,1.5248,1.5204,0.0,1.5204,1.5297,1.5504,1.5712,1.5832,1.5832,1.5832,1.5832,1.5832,1.5832,1.5832,1.5832,1.5832,1.5832,1.5832,1.5832,1.5832,1.5832,1.5832,1.5832,1.5832,1.5832,1.5832,1.5832,1.5832,1.5832,1.5832,1.5832,1.5832,1.5832,1.5832,1.5832,1.5832,1.5832,1.5832,1.5832,1.5832,1.5832,1.5832,1.5832,1.5832,1.5832,1.5832,1.5832,1.5832,1.5832,1.5832,1.5832,1.5832,1.5832,1.5832,1.5832,1.5832,1.5832,1.5832,1.5832,1.5832,1.5832,1.5832,1.5832,1.5832,1.5832,1.5832,1.5832,1.5832,1.5832,1.5832,1.5832,1.5832,1.5832,1.5832,1.5832,1.5832,1.5832,1.5832,1.5832,1.5832,1.5832,1.5832,1.5832,1.5832,1.5832,1.5832,1.5832,0.0,0.0,0.0,0.0,0.0,0.0,0.8682,0.9369,0.0,0.0,1.0793,1.1602,1.1617,1.1995,1.2319,1.2285,1.2888,1.3505,1.4029,1.4072,1.4064,1.4064,1.4128,1.4274,1.4579,1.4883,1.4963,1.4963,1.4963,1.5037,1.5204,1.5491,1.5651,1.5651,1.5765,1.5832,1.5832,1.5832,1.5832,1.5832,1.5832,1.5832,1.5832,1.5832,1.5832,1.5832,1.5832,1.5832,1.5832,1.5832,1.5832,1.5832,1.5832,1.5832,1.5832,1.5832,1.5832,1.5832,1.5832,1.5832,1.5832,1.5832,1.5832,1.5832,1.5832,1.5832,1.5832,1.5832,1.5832,1.5832,1.5832,1.5832,1.5832,1.5832,1.5832,1.5832,1.5832,1.5832,1.5832,1.5832,1.5832,1.5832,1.5832,1.5832,1.5832,1.5832,1.5832,1.5832,1.5832,1.5832,1.5832,1.5832,1.5832,1.5832,1.5832,1.5832,1.5832,1.5832,1.5832,1.5832,1.5832,1.5832,1.5832,1.5832,1.5832,1.5832,1.5832,1.5832,1.5832,1.5832,1.5832,1.5832,0.0,0.0,0.0,0.0,0.0,0.0,0.8515,0.8683,0.8803,0.0,0.9656,1.039,1.0374,1.1358,1.2114,1.2128,1.2217,1.2662,1.3745,1.3897,1.3967,1.4069,1.4055,1.4004,1.4123,1.4562,1.483,1.4863,1.4897,1.4917,1.4917,1.519,1.5351,1.5351,1.5598,1.5732,1.5732,1.5765,1.5785,1.5785,1.5812,1.5832,1.5832,1.5832,1.5832,1.5832,1.5832,1.5832,1.5832,1.5832,1.5832,1.5832,1.5832,1.5832,1.5832,1.5832,1.5832,1.5832,1.5832,1.5832,1.5832,1.5832,1.5832,1.5832,1.5832,1.5832,1.5832,1.5832,1.5832,1.5832,1.5832,1.5832,1.5832,1.5832,1.5832,1.5832,1.5832,1.5832,1.5832,1.5832,1.5832,1.5832,1.5832,1.5832,1.5832,1.5832,1.5832,1.5832,1.5832,1.5832,1.5832,1.5832,1.5832,1.5832,1.5832,1.5832,1.5832,1.5832,1.5832,1.5832,1.5832,1.5832,1.5832,1.5832,1.5832,1.5832,1.5832,1.5832,1.5832,1.5832,1.5832,1.5832,0.7836,0.0,0.0,0.0,0.0,0.0,0.7443,0.8086,0.8799,0.0,0.9006,0.9146,0.9128,1.0139,1.0913,1.0938,1.1703,1.2354,1.259,1.2638,1.3021,1.402,1.3668,1.3561,1.4076,1.3964,1.4001,1.4242,1.4476,1.4603,1.4603,1.489,1.505,1.505,1.5104,1.5137,1.5137,1.5364,1.5478,1.5484,1.5718,1.5832,1.5832,1.5832,1.5832,1.5832,1.5832,1.5832,1.5832,1.5832,1.5832,1.5832,1.5832,1.5832,1.5832,1.5832,1.5832,1.5832,1.5832,1.5832,1.5832,1.5832,1.5832,1.5832,1.5832,1.5832,1.5832,1.5832,1.5832,1.5832,1.5832,1.5832,1.5832,1.5832,1.5832,1.5832,1.5832,1.5832,1.5832,1.5832,1.5832,1.5832,1.5832,1.5832,1.5832,1.5832,1.5832,1.5832,1.5832,1.5832,1.5832,1.5832,1.5832,1.5832,1.5832,1.5832,1.5832,1.5832,1.5832,1.5832,1.5832,1.5832,1.5832,1.5832,1.5832,1.5832,1.5832,1.5832,1.5832,1.5832,1.5832,1.5832,0.827,0.0,0.0,0.841,0.8362,0.0,0.0,0.791,0.7901,0.7897,0.7904,0.7923,0.7894,0.8873,0.9699,0.9687,1.0161,1.079,1.1365,1.1937,1.2556,1.3121,1.2973,1.2831,1.3133,1.334,1.3487,1.3641,1.3921,1.4082,1.4082,1.4502,1.4743,1.4743,1.4883,1.4963,1.4963,1.511,1.5177,1.5184,1.5331,1.5398,1.5398,1.5398,1.5398,1.5404,1.5551,1.5611,1.5625,1.5765,1.5832,1.5832,1.5832,1.5832,1.5832,1.5832,1.5832,1.5832,1.5832,1.5832,1.5832,1.5832,1.5832,1.5832,1.5832,1.5832,1.5832,1.5832,1.5832,1.5832,1.5832,1.5832,1.5832,1.5832,1.5832,1.5832,1.5832,1.5832,1.5832,1.5832,1.5832,1.5832,1.5832,1.5832,1.5832,1.5832,1.5832,1.5832,1.5832,1.5832,1.5832,1.5832,1.5832,1.5832,1.5832,1.5832,1.5832,1.5832,1.5832,1.5832,1.5832,1.5832,1.5832,1.5832,1.5832,1.5832,1.5832,1.5832,1.5832,1.5832,1.5832,1.5832,0.8758,0.8798,0.8957,0.8951,0.8931,0.894,0.0,0.0,0.0,0.703,0.7209,0.0,0.0,0.0,0.0,0.0,0.0,0.0,0.0,1.1059,0.0,1.1911,1.2081,1.2155,1.2152,1.2654,1.3026,1.32,1.332,1.3434,1.3554,1.4062,1.4349,1.4349,1.4643,1.4796,1.4796,1.485,1.4877,1.4877,1.4937,1.4963,1.4963,1.4963,1.4963,1.4977,1.5211,1.5311,1.5331,1.5565,1.5665,1.5671,1.5785,1.5832,1.5832,1.5832,1.5832,1.5832,1.5832,1.5832,1.5832,1.5832,1.5832,1.5832,1.5832,1.5832,1.5832,1.5832,1.5832,1.5832,1.5832,1.5832,1.5832,1.5832,1.5832,1.5832,1.5832,1.5832,1.5832,1.5832,1.5832,1.5832,1.5832,1.5832,1.5832,1.5832,1.5832,1.5832,1.5832,1.5832,1.5832,1.5832,1.5832,1.5832,1.5832,1.5832,1.5832,1.5832,1.5832,1.5832,1.5832,1.5832,1.5832,1.5832,1.5832,1.5832,1.5832,1.5832,1.5832,1.5832,1.5832,1.5832,0.9552,0.9559,0.9532,0.9368,0.9455,0.9471,0.893,0.0,0.8287,0.7206,0.0,0.0,0.0,0.0,0.0,0.0,0.0,0.0,0.8976,0.9099,0.959,1.0701,1.1188,1.1514,1.1477,1.1864,1.2351,1.3146,1.2739,1.2692,1.3233,1.3567,1.3658,1.3658,1.4028,1.4188,1.4188,1.4442,1.4569,1.4569,1.4836,1.4963,1.4963,1.4963,1.4963,1.497,1.4997,1.5017,1.5017,1.505,1.5064,1.511,1.5625,1.5832,1.5832,1.5832,1.5832,1.5832,1.5832,1.5832,1.5832,1.5832,1.5832,1.5832,1.5832,1.5832,1.5832,1.5832,1.5832,1.5832,1.5832,1.5832,1.5832,1.5832,1.5832,1.5832,1.5832,1.5832,1.5832,1.5832,1.5832,1.5832,1.5832,1.5832,1.5832,1.5832,1.5832,1.5832,1.5832,1.5832,1.5832,1.5832,1.5832,1.5832,1.5832,1.5832,1.5832,1.5832,1.5832,1.5832,1.5832,1.5832,1.5832,1.5832,1.5832,1.5832,1.5832,1.5832,1.5832,1.5832,1.5832,1.5832,0.9733,0.9806,0.986,0.9508,0.9266,0.9093,0.8877,0.8822,0.8646,0.8171,0.0,0.0,0.0,0.0,0.0,0.0,0.7777,0.0,0.0,0.0,0.9254,0.0,0.0,0.0,1.1056,1.1289,1.1583,1.2131,1.1937,1.2051,1.2652,1.2959,1.3287,1.3552,1.3768,1.3915,1.4088,1.4208,1.4269,1.4269,1.4396,1.4456,1.4456,1.4456,1.4456,1.4462,1.4629,1.4703,1.4716,1.4897,1.4963,1.499,1.5231,1.5431,1.5598,1.5765,1.5832,1.5832,1.5832,1.5832,1.5832,1.5832,1.5832,1.5832,1.5832,1.5832,1.5832,1.5832,1.5832,1.5832,1.5832,1.5832,1.5832,1.5832,1.5832,1.5832,1.5832,1.5832,1.5832,1.5832,1.5832,1.5832,1.5832,1.5832,1.5832,1.5832,1.5832,1.5832,1.5832,1.5832,1.5832,1.5832,1.5832,1.5832,1.5832,1.5832,1.5832,1.5832,1.5832,1.5832,1.5832,1.5832,1.5832,1.5832,1.5832,1.5832,1.5832,1.5832,1.5745,1.5578,1.5752,1.5738,0.998,1.0074,1.0147,0.9838,0.9356,0.9004,0.8835,0.8798,0.882,0.8784,0.882,0.0,0.0,0.0,0.0,0.0,0.0,0.7294,0.0,0.8318,0.0,0.0,0.0,0.0,0.0,1.0608,1.0701,1.1156,1.1035,1.1236,1.1911,1.2305,1.2746,1.326,1.3434,1.3667,1.3961,1.3968,1.4008,1.4088,1.4088,1.4088,1.4088,1.4088,1.4088,1.4095,1.4309,1.4402,1.4422,1.4636,1.4723,1.473,1.481,1.497,1.519,1.5484,1.5645,1.5712,1.5712,1.5765,1.5832,1.5832,1.5832,1.5832,1.5832,1.5832,1.5832,1.5832,1.5832,1.5832,1.5832,1.5832,1.5832,1.5832,1.5832,1.5832,1.5832,1.5832,1.5832,1.5832,1.5832,1.5832,1.5832,1.5832,1.5832,1.5832,1.5832,1.5832,1.5832,1.5832,1.5832,1.5832,1.5832,1.5832,1.5832,1.5832,1.5832,1.5832,1.5832,1.5832,1.5832,1.5752,1.5712,1.5712,1.5631,1.5591,1.5591,1.5591,1.5484,1.5284,1.5578,1.5558,1.0598,1.0604,1.0608,1.0571,1.0082,0.9532,0.8951,0.8782,0.8825,0.8805,0.8775,0.8806,0.0,0.0,0.0,0.0,0.0,0.0,0.0,0.0,0.0,0.0,0.0,0.0,0.0,0.9575,0.9653,0.0,1.006,1.012,1.0989,1.1583,1.2037,1.2331,1.2919,1.336,1.3572,1.3661,1.3801,1.4088,1.4088,1.4088,1.4088,1.4088,1.4088,1.4088,1.4095,1.4102,1.4102,1.4115,1.4115,1.4142,1.4422,1.4536,1.4583,1.4883,1.517,1.5411,1.5411,1.5591,1.5832,1.5832,1.5832,1.5832,1.5832,1.5832,1.5832,1.5832,1.5832,1.5832,1.5832,1.5832,1.5832,1.5832,1.5832,1.5832,1.5832,1.5832,1.5832,1.5832,1.5832,1.5832,1.5832,1.5832,1.5832,1.5832,1.5832,1.5832,1.5832,1.5832,1.5832,1.5832,1.5832,1.5832,1.5832,1.5832,1.5832,1.5832,1.5832,1.5832,1.5832,1.5558,1.5411,1.5411,1.5137,1.499,1.499,1.499,1.4983,1.4983,1.5277,1.5257,1.1136,1.1276,1.131,1.0739,1.0465,1.0053,0.9023,0.8802,0.9035,0.9841,0.935,0.8783,0.8805,0.0,0.0,0.0,0.0,0.0,0.0,0.0,0.0,0.0,0.0,0.0,0.0,0.0,0.9309,0.9666,0.9499,0.9773,1.0661,1.1076,1.1603,1.2278,1.2692,1.3053,1.3353,1.336,1.3507,1.3794,1.3794,1.3895,1.4088,1.4088,1.4088,1.4088,1.4088,1.4088,1.4088,1.4088,1.4088,1.4095,1.4195,1.4235,1.4295,1.4783,1.5023,1.5137,1.5331,1.5464,1.5571,1.5765,1.5832,1.5832,1.5832,1.5832,1.5832,1.5832,1.5832,1.5832,1.5832,1.5832,1.5832,1.5832,1.5832,1.5832,1.5832,1.5832,1.5832,1.5832,1.5832,1.5832,1.5832,1.5832,1.5832,1.5832,1.5832,1.5832,1.5832,1.5832,1.5832,1.5832,1.5832,1.5832,1.5832,1.5832,1.5745,1.5558,1.5545,1.5458,1.5264,1.5164,1.511,1.511,1.5017,1.4963,1.4963,1.4963,1.4863,1.4669,1.477,1.4763,1.1423,1.1563,1.155,1.0803,1.0573,1.0266,0.908,0.8783,0.9123,1.0354,0.9617,0.8786,0.8825,0.0,0.0,0.0,0.0,0.0,0.0,0.6995,0.0,0.0,0.0,0.0,0.0,0.0,0.8738,0.901,0.8838,0.0,0.0,1.0468,1.1035,1.181,1.2225,1.2708,1.3039,1.3046,1.3193,1.3487,1.3487,1.3641,1.3928,1.3928,1.3988,1.4088,1.4088,1.4088,1.4088,1.4088,1.4088,1.4088,1.4088,1.4088,1.4135,1.4509,1.4716,1.485,1.5137,1.5244,1.5277,1.5464,1.5524,1.5524,1.5524,1.5571,1.5631,1.5631,1.5725,1.5832,1.5832,1.5832,1.5832,1.5832,1.5832,1.5832,1.5832,1.5832,1.5832,1.5832,1.5832,1.5832,1.5832,1.5832,1.5832,1.5832,1.5832,1.5832,1.5832,1.5832,1.5832,1.5832,1.5832,1.5785,1.5685,1.5578,1.5444,1.5257,1.5244,1.5157,1.497,1.4863,1.4803,1.4803,1.4703,1.4656,1.4656,1.4656,1.4556,1.4362,1.4362,1.4362]},{"header":{"parameterUnit":"m.s-1","parameterCategory":1,"la1":30.6,"la2":29.2853,"lo1":-89.7004,"lo2":-87.6739,"dy":0.0162,"dx":0.0183,"nx":112,"ny":82,"refTime":"2024-10-10T06:00:00:Z","depth":0,"parameterNumber":3,"parameterNumberName":"V-component_of_WINDS"},"data":[0.0,0.0,0.0,0.0,0.0,0.0,0.0,0.0,0.0,0.0,0.0,0.0,0.0,0.0,0.0,0.0,0.0,0.0,0.0,0.0,0.0,0.0,0.0,0.0,0.0,0.0,0.0,0.0,0.0,0.0,0.0,0.0,0.0,0.0,0.0,0.0,0.0,0.0,0.0,0.0,0.0,0.0,0.0,0.0,0.0,0.0,0.0,0.0,0.0,0.0,0.0,0.0,0.0,0.0,0.0,0.0,0.0,0.0,0.0,0.0,0.0,0.0,0.0,0.0,0.0,0.0,0.0,0.0,0.0,0.0,0.0,0.0,0.0,0.0,0.0,0.0,0.0,0.0,0.0,0.0,0.0,0.0,0.0,0.0,0.0,0.0,0.0,0.0,0.0,0.0,-2.8544,-3.0756,-3.3699,-3.5199,-3.4449,-3.4237,-3.2769,-2.9558,0.0,0.0,0.0,0.0,0.0,0.0,0.0,0.0,0.0,0.0,0.0,0.0,0.0,0.0,0.0,0.0,0.0,0.0,0.0,0.0,0.0,0.0,0.0,0.0,0.0,0.0,0.0,0.0,0.0,0.0,0.0,0.0,0.0,0.0,0.0,0.0,0.0,0.0,0.0,0.0,0.0,0.0,0.0,0.0,0.0,0.0,0.0,0.0,0.0,0.0,0.0,0.0,0.0,0.0,0.0,0.0,0.0,0.0,0.0,0.0,0.0,0.0,0.0,0.0,0.0,0.0,0.0,0.0,0.0,0.0,0.0,0.0,0.0,0.0,0.0,0.0,0.0,0.0,0.0,0.0,0.0,0.0,0.0,0.0,0.0,0.0,0.0,0.0,0.0,0.0,0.0,0.0,0.0,0.0,0.0,0.0,0.0,0.0,0.0,0.0,0.0,0.0,0.0,0.0,-2.8544,-3.3122,-3.4757,-3.5449,-3.5315,-3.4424,-3.341,-3.2336,0.0,0.0,0.0,0.0,0.0,0.0,0.0,0.0,0.0,0.0,0.0,0.0,0.0,0.0,0.0,0.0,0.0,0.0,0.0,0.0,0.0,0.0,0.0,0.0,0.0,0.0,0.0,0.0,0.0,0.0,0.0,0.0,0.0,0.0,0.0,0.0,0.0,0.0,0.0,0.0,0.0,0.0,0.0,0.0,0.0,0.0,0.0,0.0,0.0,0.0,0.0,0.0,0.0,0.0,0.0,0.0,0.0,0.0,0.0,0.0,0.0,0.0,0.0,0.0,0.0,0.0,0.0,0.0,0.0,0.0,0.0,0.0,0.0,0.0,0.0,0.0,0.0,0.0,0.0,0.0,0.0,0.0,0.0,0.0,0.0,0.0,0.0,0.0,0.0,0.0,0.0,0.0,0.0,0.0,0.0,0.0,0.0,0.0,0.0,0.0,0.0,0.0,0.0,-2.8236,-3.0256,-3.4468,-3.5257,-3.5493,-3.5493,-3.4462,-3.3544,-3.2933,-3.133,0.0,0.0,0.0,0.0,0.0,0.0,0.0,0.0,0.0,0.0,0.0,0.0,0.0,0.0,0.0,0.0,0.0,0.0,0.0,0.0,0.0,0.0,0.0,0.0,0.0,0.0,0.0,0.0,0.0,0.0,0.0,0.0,0.0,0.0,0.0,0.0,0.0,0.0,0.0,0.0,0.0,0.0,0.0,0.0,0.0,0.0,0.0,0.0,0.0,0.0,0.0,0.0,0.0,0.0,0.0,0.0,0.0,0.0,0.0,0.0,0.0,0.0,0.0,0.0,0.0,0.0,0.0,0.0,0.0,0.0,0.0,0.0,0.0,0.0,0.0,0.0,0.0,0.0,0.0,0.0,0.0,0.0,0.0,0.0,0.0,0.0,0.0,0.0,0.0,0.0,0.0,0.0,0.0,0.0,0.0,0.0,0.0,0.0,0.0,0.0,0.0,0.0,-3.1025,-3.216,-3.518,-3.5493,-3.5493,-3.5493,-3.4687,-3.3993,-3.3547,-3.081,0.0,0.0,0.0,0.0,0.0,0.0,0.0,0.0,0.0,0.0,0.0,0.0,0.0,0.0,0.0,0.0,0.0,0.0,0.0,0.0,0.0,0.0,0.0,0.0,0.0,0.0,0.0,0.0,0.0,0.0,0.0,0.0,0.0,0.0,0.0,0.0,0.0,0.0,0.0,0.0,0.0,0.0,0.0,0.0,0.0,0.0,0.0,0.0,0.0,0.0,0.0,0.0,0.0,0.0,0.0,0.0,0.0,0.0,0.0,0.0,0.0,0.0,0.0,0.0,0.0,0.0,0.0,0.0,0.0,0.0,0.0,0.0,0.0,0.0,0.0,0.0,0.0,0.0,0.0,0.0,0.0,0.0,0.0,0.0,0.0,0.0,0.0,0.0,0.0,0.0,0.0,0.0,0.0,0.0,0.0,0.0,0.0,0.0,0.0,0.0,0.0,0.0,-3.1295,-3.3449,-3.5315,-3.5493,-3.5493,-3.5493,-3.5432,-3.5357,-3.5314,-2.9236,0.0,0.0,0.0,0.0,0.0,0.0,0.0,0.0,0.0,0.0,0.0,0.0,0.0,0.0,0.0,0.0,0.0,0.0,0.0,0.0,0.0,0.0,0.0,0.0,0.0,0.0,0.0,0.0,0.0,0.0,0.0,0.0,0.0,0.0,0.0,0.0,0.0,0.0,0.0,0.0,0.0,0.0,0.0,0.0,0.0,0.0,0.0,0.0,0.0,0.0,0.0,0.0,0.0,0.0,0.0,0.0,0.0,0.0,0.0,0.0,0.0,0.0,0.0,0.0,0.0,0.0,0.0,0.0,0.0,0.0,0.0,0.0,0.0,0.0,0.0,0.0,0.0,0.0,0.0,0.0,0.0,0.0,0.0,0.0,0.0,0.0,0.0,0.0,0.0,0.0,0.0,0.0,0.0,0.0,0.0,0.0,0.0,0.0,0.0,0.0,0.0,0.0,-3.1218,-3.3006,-3.5257,-3.5493,-3.5493,-3.5493,-3.5515,-3.55,-3.5488,0.0,0.0,0.0,0.0,0.0,0.0,0.0,0.0,0.0,0.0,0.0,0.0,0.0,0.0,0.0,0.0,0.0,0.0,0.0,0.0,0.0,0.0,0.0,0.0,0.0,0.0,0.0,0.0,0.0,0.0,0.0,0.0,0.0,0.0,0.0,0.0,0.0,0.0,0.0,0.0,0.0,0.0,0.0,0.0,0.0,0.0,0.0,0.0,0.0,0.0,0.0,0.0,0.0,0.0,0.0,0.0,0.0,0.0,0.0,0.0,0.0,0.0,0.0,0.0,0.0,0.0,0.0,0.0,0.0,0.0,0.0,0.0,0.0,0.0,0.0,0.0,0.0,0.0,0.0,0.0,0.0,0.0,0.0,0.0,0.0,0.0,0.0,0.0,0.0,0.0,0.0,0.0,0.0,0.0,0.0,0.0,0.0,0.0,0.0,0.0,0.0,0.0,-2.9879,-3.1391,-3.2968,-3.5257,-3.5493,-3.5493,-3.5493,-3.5502,-3.5044,-3.3939,0.0,0.0,0.0,0.0,0.0,0.0,0.0,0.0,0.0,0.0,0.0,0.0,0.0,0.0,0.0,0.0,0.0,0.0,0.0,0.0,0.0,0.0,0.0,0.0,0.0,0.0,0.0,0.0,0.0,0.0,0.0,0.0,0.0,0.0,0.0,0.0,0.0,0.0,0.0,0.0,0.0,0.0,0.0,0.0,0.0,0.0,0.0,0.0,0.0,0.0,0.0,0.0,0.0,0.0,0.0,0.0,0.0,0.0,0.0,0.0,0.0,0.0,0.0,0.0,0.0,0.0,0.0,0.0,0.0,0.0,0.0,0.0,0.0,0.0,0.0,0.0,0.0,0.0,0.0,0.0,0.0,0.0,0.0,0.0,0.0,0.0,0.0,0.0,0.0,0.0,0.0,0.0,0.0,0.0,0.0,0.0,0.0,0.0,0.0,0.0,0.0,0.0,-2.9956,-3.1872,-3.3583,-3.5315,-3.5493,-3.5493,-3.5493,-3.5489,-3.4052,0.0,0.0,0.0,0.0,0.0,0.0,0.0,0.0,0.0,0.0,0.0,0.0,0.0,0.0,0.0,0.0,0.0,0.0,0.0,0.0,0.0,0.0,0.0,0.0,0.0,0.0,0.0,0.0,0.0,0.0,0.0,0.0,0.0,0.0,0.0,0.0,0.0,0.0,0.0,0.0,0.0,0.0,0.0,0.0,0.0,0.0,0.0,0.0,0.0,0.0,0.0,0.0,0.0,0.0,0.0,0.0,0.0,0.0,0.0,0.0,0.0,0.0,0.0,0.0,0.0,0.0,0.0,0.0,0.0,0.0,0.0,0.0,0.0,0.0,0.0,0.0,0.0,0.0,0.0,0.0,0.0,0.0,0.0,0.0,0.0,0.0,0.0,0.0,0.0,0.0,0.0,0.0,0.0,0.0,0.0,0.0,0.0,0.0,0.0,0.0,0.0,0.0,0.0,-3.0033,-3.241,-3.4257,-3.5391,-3.5493,-3.5493,-3.5493,-3.5496,-3.4029,-3.0623,0.0,0.0,0.0,0.0,0.0,0.0,0.0,0.0,0.0,0.0,0.0,0.0,0.0,0.0,0.0,0.0,0.0,0.0,0.0,0.0,0.0,0.0,0.0,0.0,0.0,0.0,0.0,0.0,0.0,0.0,0.0,0.0,0.0,0.0,0.0,0.0,0.0,0.0,0.0,0.0,0.0,0.0,0.0,0.0,0.0,0.0,0.0,0.0,0.0,0.0,0.0,0.0,0.0,0.0,0.0,0.0,0.0,0.0,0.0,0.0,0.0,0.0,0.0,0.0,0.0,0.0,0.0,0.0,0.0,0.0,0.0,0.0,0.0,0.0,0.0,0.0,0.0,0.0,0.0,0.0,0.0,0.0,0.0,0.0,0.0,0.0,0.0,0.0,0.0,0.0,0.0,0.0,0.0,0.0,0.0,0.0,0.0,0.0,0.0,0.0,0.0,0.0,-3.0071,-3.2622,-3.4526,-3.5411,-3.5493,-3.5493,-3.5493,-3.5502,-3.3465,-2.867,0.0,0.0,0.0,0.0,0.0,0.0,0.0,0.0,0.0,0.0,0.0,0.0,0.0,0.0,0.0,0.0,0.0,0.0,0.0,0.0,0.0,0.0,0.0,0.0,0.0,0.0,0.0,0.0,0.0,0.0,0.0,0.0,0.0,0.0,0.0,0.0,0.0,0.0,0.0,0.0,0.0,0.0,0.0,0.0,0.0,0.0,0.0,0.0,0.0,0.0,0.0,0.0,0.0,0.0,0.0,0.0,0.0,0.0,0.0,0.0,0.0,0.0,0.0,0.0,0.0,0.0,0.0,0.0,0.0,0.0,0.0,0.0,0.0,0.0,0.0,0.0,0.0,0.0,0.0,0.0,0.0,0.0,0.0,0.0,0.0,0.0,0.0,0.0,0.0,0.0,0.0,0.0,0.0,0.0,0.0,0.0,0.0,0.0,0.0,0.0,0.0,0.0,-3.0186,-3.2814,-3.4757,-3.5584,-3.5551,-3.5493,-3.5493,-3.5489,-3.2723,-2.6197,0.0,0.0,0.0,0.0,0.0,0.0,0.0,0.0,0.0,0.0,0.0,0.0,0.0,0.0,0.0,0.0,0.0,0.0,0.0,0.0,0.0,0.0,0.0,0.0,0.0,0.0,0.0,0.0,0.0,0.0,0.0,0.0,0.0,0.0,0.0,0.0,0.0,0.0,0.0,0.0,0.0,0.0,0.0,0.0,0.0,0.0,0.0,0.0,0.0,0.0,0.0,0.0,0.0,0.0,0.0,0.0,0.0,0.0,0.0,0.0,-2.6313,0.0,0.0,0.0,0.0,0.0,0.0,0.0,0.0,0.0,0.0,0.0,0.0,0.0,0.0,0.0,0.0,0.0,0.0,0.0,0.0,0.0,0.0,0.0,0.0,0.0,0.0,0.0,0.0,0.0,0.0,0.0,0.0,0.0,0.0,0.0,0.0,0.0,0.0,0.0,0.0,0.0,-3.1083,-3.4199,-3.6334,-3.6776,-3.6051,-3.5498,-3.5493,-3.5489,-3.373,-2.9579,-2.6109,0.0,0.0,0.0,0.0,0.0,0.0,0.0,0.0,0.0,0.0,0.0,0.0,0.0,0.0,0.0,0.0,0.0,0.0,0.0,0.0,0.0,0.0,0.0,0.0,0.0,0.0,0.0,0.0,0.0,0.0,0.0,0.0,0.0,0.0,0.0,0.0,0.0,0.0,0.0,0.0,0.0,0.0,0.0,0.0,0.0,0.0,0.0,0.0,0.0,0.0,0.0,0.0,0.0,0.0,0.0,0.0,0.0,0.0,0.0,0.0,-2.8352,0.0,0.0,0.0,0.0,0.0,0.0,0.0,0.0,0.0,0.0,0.0,0.0,0.0,0.0,0.0,0.0,0.0,0.0,0.0,0.0,0.0,0.0,0.0,0.0,0.0,0.0,0.0,0.0,0.0,0.0,0.0,0.0,0.0,0.0,0.0,0.0,0.0,0.0,0.0,0.0,-3.1302,-3.4222,-3.6493,-3.7469,-3.6325,-3.5504,-3.5498,-3.5495,-3.4732,-3.2967,-2.9644,0.0,0.0,0.0,0.0,0.0,0.0,0.0,0.0,0.0,0.0,0.0,0.0,0.0,0.0,0.0,0.0,0.0,0.0,0.0,0.0,0.0,0.0,0.0,0.0,0.0,0.0,0.0,0.0,0.0,0.0,0.0,0.0,0.0,0.0,0.0,0.0,0.0,0.0,0.0,0.0,0.0,0.0,0.0,0.0,0.0,0.0,0.0,0.0,0.0,0.0,0.0,0.0,0.0,-3.5122,-3.6037,-3.6599,-3.6773,-3.7179,-3.7661,-3.4891,-3.3564,-3.3141,-3.0371,0.0,0.0,0.0,0.0,0.0,0.0,0.0,0.0,0.0,0.0,0.0,0.0,0.0,0.0,0.0,0.0,0.0,0.0,0.0,0.0,0.0,0.0,-3.1854,-3.2542,-3.3555,-3.3148,-2.8741,0.0,0.0,0.0,0.0,0.0,0.0,0.0,0.0,0.0,0.0,0.0,-3.1867,-3.4429,-3.6671,-3.8257,-3.7204,-3.6152,-3.5561,-3.5507,-3.5509,-3.5496,-3.2844,-2.977,0.0,0.0,0.0,0.0,0.0,0.0,0.0,0.0,0.0,0.0,0.0,0.0,0.0,0.0,0.0,0.0,0.0,0.0,0.0,0.0,0.0,0.0,0.0,0.0,0.0,0.0,0.0,0.0,0.0,0.0,0.0,0.0,-2.3639,-2.4668,0.0,0.0,0.0,0.0,0.0,0.0,0.0,0.0,0.0,0.0,0.0,0.0,0.0,-3.301,-3.464,-3.7074,-3.7978,-3.736,-4.0449,-4.1583,-4.0991,-4.175,-4.2165,-4.2239,-4.1797,0.0,-3.5122,-3.468,0.0,0.0,0.0,0.0,0.0,0.0,0.0,0.0,0.0,0.0,0.0,0.0,0.0,0.0,0.0,0.0,0.0,0.0,0.0,0.0,0.0,0.0,-3.8336,-3.8003,-3.804,-3.7793,-3.6328,-3.2223,-2.8351,-2.686,-2.5499,-2.4277,0.0,0.0,0.0,0.0,0.0,0.0,-3.4557,-3.694,-3.8834,-4.0038,-3.9961,-3.8661,-3.5744,-3.5504,-3.5512,-3.5488,-3.5079,-3.3294,-2.9874,-2.6879,0.0,0.0,0.0,0.0,0.0,0.0,0.0,0.0,0.0,0.0,0.0,0.0,0.0,0.0,0.0,0.0,0.0,0.0,0.0,0.0,0.0,0.0,0.0,0.0,0.0,0.0,0.0,0.0,0.0,-2.3841,-2.6178,-2.6043,-2.6871,-2.6563,0.0,0.0,0.0,0.0,0.0,0.0,0.0,0.0,0.0,-3.5151,-3.6065,-3.732,-3.9016,-4.0619,-4.1478,-4.1555,-4.3054,-4.3822,-4.3938,-4.4338,-4.4509,-4.4509,-4.4509,-4.2951,-4.0296,-3.8411,-3.6699,-3.5103,0.0,0.0,0.0,0.0,-3.4699,-3.4276,-3.6584,-3.6815,-3.5988,-3.543,0.0,0.0,0.0,0.0,0.0,0.0,0.0,-3.4727,-3.5473,-3.768,-3.9854,-4.0403,-4.0615,-4.0528,-3.9872,-3.7635,-3.486,-3.1733,-3.0188,-2.8696,-2.6477,-2.6243,0.0,0.0,0.0,-3.3384,-3.5699,-3.739,-3.8896,-4.035,-4.05,-3.9903,-3.843,-3.831,-3.7507,-3.5619,-3.5507,-3.4841,-3.3327,-3.1831,-2.9212,0.0,0.0,0.0,0.0,0.0,0.0,0.0,0.0,0.0,0.0,0.0,0.0,0.0,0.0,0.0,0.0,0.0,0.0,0.0,0.0,0.0,0.0,0.0,0.0,0.0,0.0,0.0,0.0,-2.6717,-2.8544,-2.7678,-2.9448,-2.941,0.0,0.0,0.0,0.0,0.0,0.0,-3.4122,-3.5233,-3.6903,-3.9232,-4.0351,-4.1635,-4.3094,-4.3938,-4.4685,-4.5281,-4.5262,-4.5607,-4.624,-4.624,-4.624,-4.624,-4.624,-4.5874,-4.5009,-4.1643,-3.9758,-3.8834,-3.7353,-3.6776,-3.6969,-3.843,-3.8565,-3.8411,-4.1181,-4.1566,-4.07,-3.9873,-3.8738,-3.718,-3.4468,0.0,0.0,0.0,0.0,-3.7653,-3.8962,-4.0043,-4.1121,-4.2443,-4.289,-4.2829,-4.216,-4.1888,-4.0498,-3.6236,-3.488,-3.344,-3.0304,-3.0309,0.0,-2.995,-3.2889,-3.5729,-3.7255,-3.8147,-3.9112,-4.0373,-4.0485,-4.05,-4.05,-4.0496,-3.9441,-3.6944,-3.6781,-3.6785,-3.6793,-3.5669,-3.2671,-2.7572,0.0,0.0,0.0,0.0,0.0,0.0,0.0,0.0,0.0,0.0,0.0,0.0,0.0,0.0,0.0,0.0,0.0,0.0,0.0,0.0,0.0,0.0,0.0,0.0,0.0,0.0,0.0,0.0,0.0,-3.0302,-3.3147,0.0,0.0,0.0,0.0,-3.3814,-3.5411,-3.6776,-3.77,-3.9302,-4.0992,-4.278,-4.4427,-4.5722,-4.6621,-4.7428,-4.7854,-4.7914,-4.7914,-4.7914,-4.7971,-4.7971,-4.7971,-4.7971,-4.7971,-4.7952,-4.7644,-4.4297,-4.2393,-4.1527,-4.0604,-4.0239,-4.0354,-4.1277,-4.1585,-4.17,-4.2701,-4.247,-4.1989,-4.3489,-4.2316,-4.0123,-3.92,-3.7796,0.0,0.0,-3.8791,-4.0368,-4.2343,-4.3273,-4.398,-4.5129,-4.5414,-4.5092,-4.3918,-4.3905,-4.3056,-3.9354,-3.863,-3.7808,-3.5261,0.0,-3.5355,-3.5889,-3.7015,-3.8411,-4.0085,-4.0342,-4.0419,-4.0489,-4.0504,-4.0504,-4.0504,-4.05,-4.0438,-4.025,-4.026,-4.0256,-4.0256,-3.615,-3.3718,-3.3378,-2.8052,0.0,0.0,0.0,0.0,0.0,0.0,0.0,0.0,0.0,0.0,0.0,0.0,0.0,0.0,0.0,0.0,0.0,0.0,0.0,0.0,0.0,0.0,0.0,0.0,0.0,0.0,0.0,0.0,-3.3782,-3.6219,0.0,-3.3968,-3.5488,-3.6873,-3.743,-3.9027,-4.0835,-4.2777,-4.3461,-4.4556,-4.6268,-4.6901,-4.7369,-4.7664,-4.7971,-4.8106,-4.8106,-4.8107,-4.8106,-4.8106,-4.8105,-4.8105,-4.8105,-4.8105,-4.8105,-4.8009,-4.6817,-4.6124,-4.5817,-4.5509,-4.5393,-4.5374,-4.5163,-4.5086,-4.5047,-4.4797,-4.4509,-4.4239,-4.4297,-4.3335,-4.2124,-4.1835,-4.1662,-4.1662,-4.197,-4.2823,-4.3806,-4.4511,-4.4691,-4.4819,-4.5436,-4.5438,-4.5207,-4.4998,-4.5052,-4.4741,-4.3461,-4.1888,-4.0142,-3.8182,-3.8324,-3.8608,-3.8312,-3.9039,-4.0092,-4.1415,-4.0941,-4.0502,-4.0499,-4.0495,-4.0495,-4.0495,-4.0489,-4.0504,-4.0504,-3.8488,-3.7777,-3.8845,-3.6315,-3.4122,-3.2487,-3.0448,-2.739,0.0,0.0,0.0,0.0,0.0,0.0,0.0,0.0,0.0,0.0,0.0,0.0,0.0,0.0,0.0,0.0,0.0,0.0,0.0,0.0,0.0,0.0,0.0,0.0,0.0,0.0,-3.6949,-3.6411,-3.8854,-3.9585,-3.7026,-3.9084,-4.0796,-4.1373,-4.2989,-4.4662,-4.6355,-4.6448,-4.6947,-4.8064,-4.8391,-4.8547,-4.8548,-4.8817,-4.8991,-4.8991,-4.8991,-4.8971,-4.8971,-4.899,-4.8971,-4.8971,-4.8971,-4.8971,-4.8971,-4.8971,-4.8971,-4.8913,-4.8336,-4.8105,-4.8048,-4.7509,-4.7298,-4.7182,-4.6336,-4.6028,-4.5893,-4.5009,-4.4374,-4.3932,-4.3932,-4.4316,-4.4739,-4.4739,-4.5143,-4.5586,-4.5586,-4.5438,-4.5322,-4.555,-4.5419,-4.5302,-4.5419,-4.5513,-4.5568,-4.5438,-4.4168,-4.2643,-4.1219,-4.1431,-4.1604,-4.1066,-4.1357,-4.2052,-4.3201,-4.2703,-4.2225,-4.2206,-4.2223,-4.1742,-4.0595,-4.0492,-4.0027,-3.8881,-3.6718,-3.5989,-3.7108,-3.5815,-3.4276,-3.2583,-3.141,-2.8602,-2.4082,0.0,0.0,0.0,0.0,0.0,0.0,0.0,0.0,0.0,0.0,0.0,0.0,0.0,0.0,0.0,0.0,0.0,0.0,0.0,0.0,0.0,0.0,0.0,-3.4353,-3.6546,-3.8161,-3.818,-4.1162,-4.2258,-3.9777,-4.3258,-4.5682,-4.5682,-4.7182,-4.8105,-4.8144,-4.8144,-4.8144,-4.8182,-4.901,-4.9433,-4.9433,-5.0317,-5.0741,-5.0741,-5.0741,-5.0741,-5.0741,-5.0702,-5.0702,-5.0702,-5.0702,-5.0702,-5.0702,-5.0702,-5.0702,-5.0529,-4.8836,-4.8182,-4.8182,-4.8144,-4.8125,-4.799,-4.7221,-4.6951,-4.6797,-4.5951,-4.5682,-4.5682,-4.5682,-4.5682,-4.5682,-4.5682,-4.5663,-4.5624,-4.5624,-4.5605,-4.5586,-4.5586,-4.5586,-4.5513,-4.518,-4.5362,-4.5495,-4.518,-4.5381,-4.5316,-4.4489,-4.4335,-4.4335,-4.4335,-4.4124,0.0,-4.5466,-4.5601,-4.5599,-4.5596,-4.5596,-4.427,-4.0938,-4.055,-3.9016,-3.5565,-3.5398,-3.5427,-3.5446,-3.4647,-3.418,-3.416,-3.0852,-2.8313,-2.664,0.0,0.0,0.0,0.0,0.0,0.0,0.0,0.0,0.0,0.0,0.0,0.0,0.0,0.0,0.0,0.0,0.0,0.0,0.0,0.0,0.0,-3.5238,-3.7892,-3.7892,-4.0085,-4.1912,-4.2489,-4.4509,-4.5586,-4.4874,-4.6394,-4.7413,-4.7413,-4.7836,-4.8375,-4.9009,-4.9047,-4.9336,-4.9971,-5.0221,-5.0337,-5.0337,-5.1161,-5.1565,-5.1586,-5.1567,-5.1568,-5.1548,-5.0971,-5.0702,-5.0702,-5.0702,-5.0702,-5.0702,-5.0702,-5.0702,-5.0644,-5.0164,-4.999,-4.9913,-4.9279,-4.8644,-4.8067,-4.7855,-4.7778,-4.774,-4.749,-4.7413,-4.7413,-4.7413,-4.7413,-4.7413,-4.7413,-4.699,-4.6547,-4.6547,-4.6067,-4.5586,-4.5586,-4.5586,-4.5568,-4.5495,-4.5531,-4.5568,-4.5495,-4.555,-4.5509,-4.5278,-4.524,-4.524,-4.524,-4.5182,-4.524,-4.5565,-4.5603,-4.5603,-4.5584,-4.5601,-4.5233,-4.4289,-4.1928,-3.802,-3.2168,-3.2943,-3.3805,-3.426,-3.4224,-3.3891,-3.3276,-3.1141,-2.9217,0.0,0.0,0.0,0.0,0.0,0.0,0.0,0.0,0.0,0.0,0.0,0.0,0.0,0.0,0.0,0.0,0.0,0.0,0.0,0.0,0.0,0.0,-3.9065,-4.1643,-4.2374,-4.3431,-4.4451,-4.5297,-4.6586,-4.7413,-4.7413,-4.8163,-4.8644,-4.8644,-4.8971,-4.9548,-5.0394,-5.0452,-5.0856,-5.1722,-5.1742,-5.1742,-5.1742,-5.22,-5.2448,-5.2429,-5.2432,-5.2452,-5.2433,-5.1952,-5.1548,-5.1202,-5.1202,-5.101,-5.0702,-5.0702,-5.0702,-5.0702,0.0,0.0,0.0,0.0,-4.9625,-4.9144,-4.8779,-4.8644,-4.8586,-4.8221,-4.8105,-4.8105,-4.8105,-4.8105,-4.8105,-4.8105,-4.7759,-4.7413,-4.7413,-4.6778,-4.6144,-4.6144,-4.5874,-4.5586,-4.5586,-4.5586,-4.5586,-4.5586,-4.5586,0.0,-4.5586,-4.5586,-4.5586,-4.5586,-4.5586,-4.5586,-4.5586,-4.5586,-4.5586,-4.5586,-4.5603,-4.5601,-4.5599,-4.2467,0.0,0.0,0.0,-3.4485,-3.3999,-3.3763,0.0,0.0,0.0,0.0,0.0,0.0,0.0,0.0,-3.0737,-3.0429,0.0,0.0,0.0,0.0,0.0,0.0,0.0,0.0,0.0,0.0,0.0,0.0,0.0,0.0,0.0,0.0,-4.2931,-4.5163,-4.6797,-4.6451,-4.6278,-4.6971,-4.7759,-4.8259,-4.8259,-4.9048,-4.9586,-4.9683,-5.0394,-5.1203,-5.1992,0.0,0.0,0.0,0.0,-5.3205,-5.3205,-5.33,-5.3355,-5.3351,-5.3355,-5.3356,-5.3337,-5.3241,-5.2779,-5.2049,-5.2049,-5.1645,-5.0971,-5.0971,-5.0971,-5.0952,-5.076,-5.0702,-5.0702,-5.0702,-5.0702,-5.0587,-4.9798,0.0,0.0,-4.8644,-4.8394,-4.8394,-4.8394,-4.8394,-4.8394,-4.8394,-4.8317,-4.8259,-4.8259,-4.7644,-4.7048,-4.7048,-4.6432,-4.5855,-4.5759,-4.574,-4.572,-4.5605,-4.5586,-4.5586,-4.5586,-4.5586,-4.5586,-4.5586,-4.5586,-4.5586,-4.5586,-4.5586,-4.5586,-4.5586,-4.5586,0.0,-4.5601,-4.2816,-4.0361,-3.8693,-3.7858,-3.6636,-3.4853,-3.4122,-3.4083,-3.4757,-3.4853,-3.5968,-3.8142,-3.8334,-3.8834,-3.9469,-3.4834,-3.4237,0.0,0.0,0.0,0.0,0.0,0.0,0.0,0.0,0.0,0.0,0.0,0.0,0.0,0.0,0.0,-4.2258,-4.4739,-4.674,-4.774,-4.8336,-4.8471,-4.7932,-4.8625,-4.9144,-4.9144,-4.9933,-5.0721,-5.1375,-5.1568,-5.2029,-5.2916,-5.2954,-5.3031,-5.3186,-5.3203,-5.32,-5.32,-5.3891,-5.4237,-5.4257,0.0,0.0,-5.4222,-5.353,-5.3106,-5.2953,-5.2953,-5.2856,-5.2722,-5.2722,-5.2722,-5.2587,-5.1221,-5.0702,-5.0702,-5.0702,-5.0702,-5.0664,-5.051,-5.0452,-5.0414,-5.024,-5.0202,-5.0202,-5.0202,-5.0202,0.0,-5.0202,-4.9683,-4.9144,-4.9144,-4.8509,-4.7875,-4.7875,-4.774,-4.7432,-4.6797,-4.6644,-4.6432,-4.574,-4.5586,-4.5586,-4.5586,-4.5586,-4.5586,-4.5586,-4.5586,-4.5586,-4.5586,-4.5586,-4.5586,-4.5586,-4.5586,-4.5603,-4.5601,-4.5002,-4.3904,-4.221,-4.0096,-3.8719,-3.8334,-3.8757,-3.8796,-3.8315,-3.895,-3.92,-3.9046,-4.0412,-4.1162,-4.1277,-3.9585,-3.8796,0.0,0.0,0.0,0.0,0.0,0.0,0.0,0.0,0.0,0.0,0.0,-3.6103,-3.8257,0.0,-4.3104,-4.5259,-4.7048,-4.8298,-4.8682,-4.949,-4.9721,-4.8856,-4.951,-5.0048,-5.0048,-5.0818,-5.1471,-5.1875,-5.2299,-5.2933,-5.3801,-5.3839,-5.4031,-5.4436,-5.4453,-5.4449,-5.4449,-5.4874,-5.5085,-5.5085,-5.5107,-5.5107,-5.5088,-5.4645,-5.4222,-5.3857,-5.3857,-5.3606,-5.3203,-5.3203,-5.3203,-5.3126,-5.2279,-5.1683,-5.1298,-5.1298,-5.1048,-5.0702,-5.0702,-5.0702,-5.0702,-5.0702,-5.0702,-5.0702,-5.0702,-5.0702,-5.0702,-5.0702,-5.0375,-5.0048,-5.0048,-4.9394,-4.8759,-4.8759,-4.8413,-4.799,-4.7586,-4.7182,-4.6778,-4.6336,-4.5893,-4.5586,-4.5586,-4.5586,-4.5586,-4.5586,-4.5586,-4.5586,-4.5586,-4.5586,-4.5586,-4.5586,-4.5586,-4.5603,-4.5603,-4.5081,-4.4273,-4.3173,-4.1505,-4.0546,-4.0546,-4.0508,-4.0508,-4.0546,-4.095,-4.1373,-4.1797,-4.2643,-4.3278,-4.3682,-4.3258,-4.2585,0.0,0.0,0.0,0.0,0.0,0.0,0.0,0.0,-3.3737,-3.5738,-3.793,-4.0162,-4.2393,-4.4028,-4.5778,-4.799,-4.8933,-4.9452,-4.9625,-5.026,-5.0433,-4.974,-5.0414,-5.0933,-5.0933,-5.1664,-5.2222,-5.2395,-5.3068,-5.3818,-5.4685,-5.4724,-5.5032,-5.5684,-5.5703,-5.5703,-5.5703,-5.5703,-5.5703,-5.5703,-5.5703,-5.5703,-5.5703,-5.5703,-5.5338,-5.4722,-5.4722,-5.4337,-5.3683,-5.3683,-5.3683,-5.3683,-5.3683,-5.3164,-5.2395,-5.2222,-5.1741,-5.1164,-5.0991,-5.0933,-5.0914,-5.0741,-5.0702,-5.0702,-5.0702,-5.0702,-5.0702,-5.0702,-5.0702,-5.0702,-5.0702,-5.0183,-4.9644,-4.9644,-4.9125,-4.8567,-4.8394,-4.7836,-4.7336,-4.7182,-4.6432,-4.5874,-4.5913,-4.574,-4.5586,-4.5586,-4.5586,-4.5586,-4.5586,-4.5586,-4.5586,-4.5586,-4.5586,-4.5586,-4.5586,-4.4759,-4.4047,-4.3605,-4.2931,-4.2547,-4.2547,-4.1854,-4.1816,-4.2527,-4.2547,-4.3201,-4.4547,-4.4547,-4.4913,-4.5586,-4.5586,-4.522,-2.9602,-2.991,-3.0833,-3.3776,-3.3487,-3.4064,0.0,0.0,-3.9354,-4.2508,-4.4008,-4.5066,-4.6124,-4.7067,-4.8029,-4.9086,-4.9336,-4.9663,-5.0452,-5.0625,-5.0644,-5.0567,-5.1279,-5.1779,-5.1779,-5.2549,-5.3376,-5.4145,-5.4299,-5.4724,-5.5511,-5.5568,-5.5607,-5.5703,-5.5703,-5.5703,-5.5703,-5.5703,-5.5703,-5.5703,-5.5703,-5.5703,-5.5703,-5.5703,-5.5645,-5.5568,-5.5568,-5.5511,-5.5415,-5.5415,-5.5415,-5.5415,-5.5415,-5.4914,-5.4126,-5.3337,-5.301,-5.2818,-5.2029,-5.1779,-5.1664,-5.0933,-5.0702,-5.0702,-5.0702,-5.0702,-5.0702,-5.0702,-5.0702,-5.0702,-5.0702,-5.0625,-5.0548,-5.0548,-5.0471,-5.0202,-4.9413,-4.9183,-4.8894,-4.8125,-4.7317,-4.6836,-4.7067,-4.6259,-4.5586,-4.5586,-4.5586,-4.5586,-4.5586,-4.5586,-4.5586,-4.5586,-4.5586,-4.5586,-4.5586,-4.547,-4.5374,-4.5316,-4.522,-4.5163,-4.5163,-4.5066,-4.5066,-4.5163,-4.5163,-4.5259,-4.5451,-4.5451,-4.549,-4.5586,-4.5586,-4.5547,-3.4314,-3.4449,0.0,0.0,-3.7526,-3.8834,-4.17,-4.2277,-4.2893,-4.5316,-4.649,-4.7317,-4.8182,-4.8625,-4.9144,0.0,-5.0164,-5.0279,-5.0644,-5.0702,-5.051,-4.999,-5.1106,-5.1914,-5.1914,-5.2702,-5.3568,-5.4434,-5.4914,-5.5338,-5.5684,-5.5703,-5.5703,-5.5703,-5.5703,-5.5703,-5.5703,-5.5703,-5.5703,-5.5703,-5.5703,-5.5703,-5.5703,-5.5703,-5.5703,-5.5703,-5.5703,-5.5703,-5.5703,-5.5703,-5.5703,-5.5703,-5.5703,-5.5491,-5.5107,-5.426,-5.3645,-5.3145,-5.2779,-5.2664,-5.2529,-5.1664,-5.1395,-5.1318,-5.0837,-5.0702,-5.0702,-5.0702,-5.0702,-5.0702,-5.0702,-5.0702,-5.0702,-5.0702,-5.0702,-5.0587,-5.024,-4.976,-4.9298,-4.8933,-4.7914,-4.6972,-4.6415,-4.5915,-4.5607,-4.5607,-4.5605,-4.5586,-4.5586,-4.5586,-4.5586,-4.5586,-4.5586,-4.5586,-4.5586,-4.5586,-4.5586,-4.5586,-4.5586,-4.5586,-4.5586,-4.5586,-4.5586,-4.5586,-4.5586,-4.5586,-4.5586,-4.5586,-4.5586,-4.5586,-4.5586,-4.5586,-3.6526,0.0,0.0,-3.8661,-4.0777,-4.2624,-4.3104,-4.4316,-4.5778,-4.7278,-4.8048,-4.8721,-4.9606,-4.976,-4.9971,-5.0587,-5.0702,-5.0702,-5.0702,-5.0491,-5.0106,-4.9471,-5.026,-5.1048,-5.1529,-5.2779,-5.3818,-5.4453,-5.5241,-5.5703,-5.5703,-5.5703,-5.5703,-5.5703,-5.5703,-5.5703,-5.5703,-5.5703,-5.5703,-5.5703,-5.5703,-5.5703,-5.5703,-5.5703,-5.5703,-5.5703,-5.5703,-5.5703,-5.5703,-5.5703,-5.5703,-5.5703,-5.5703,-5.5703,-5.5626,-5.5049,-5.4434,-5.3857,-5.3645,-5.3568,-5.3414,-5.2549,-5.226,-5.2106,-5.1279,-5.1029,-5.0971,-5.076,-5.0702,-5.0702,-5.0702,-5.0702,-5.0702,-5.0702,-5.0702,-5.0702,-5.0702,-5.0202,-4.976,-4.976,-4.8664,-4.7625,-4.7088,-4.6224,-4.5609,-4.5609,-4.5589,-4.5605,-4.5586,-4.5586,-4.5586,-4.5586,-4.5586,-4.5586,-4.5586,-4.5586,-4.5586,-4.5586,-4.5586,-4.5586,-4.5586,-4.5586,-4.5586,-4.5586,-4.5586,-4.5586,-4.5586,-4.5586,-4.5586,-4.5586,-4.5586,-4.5586,0.0,0.0,-3.7507,-4.0854,-4.297,-4.4662,-4.6355,-4.7394,-4.824,-4.9144,-4.9336,-4.9625,-5.0491,-5.0644,-5.0664,-5.0702,-5.0702,-5.0702,-5.0702,-4.9971,-4.9433,-4.9394,-4.8702,-4.8875,0.0,-5.2991,-5.4472,-5.4491,-5.5241,-5.5703,-5.5703,-5.5703,-5.5703,-5.5703,-5.5703,-5.5703,-5.5703,-5.5703,-5.5703,-5.5703,-5.5703,-5.5703,-5.5703,-5.5703,-5.5703,-5.5703,-5.5703,-5.5703,-5.5703,-5.5703,-5.5703,-5.5703,-5.5703,-5.5703,-5.5703,-5.5665,-5.5645,-5.5511,-5.4722,-5.4453,-5.4318,-5.3433,-5.3164,-5.301,-5.2145,-5.1875,-5.1702,-5.0914,-5.0702,-5.0702,-5.0702,-5.0702,-5.0702,-5.0702,-5.0702,-5.0702,-5.0702,-5.0664,-5.0644,-5.0644,-4.974,-4.9298,-5.0375,-4.7818,-4.561,-4.561,-4.5609,-4.5589,-4.5605,-4.5586,-4.5586,-4.5586,-4.5586,-4.5586,-4.5586,-4.5586,-4.5586,-4.5586,-4.5586,-4.5586,-4.5586,-4.5586,-4.5586,-4.5586,-4.5586,-4.5586,-4.5586,-4.5586,-4.5586,-4.5586,-4.5586,-4.5586,0.0,0.0,-4.0777,-4.3605,-4.5182,-4.6471,-4.8163,-4.8779,-4.9048,-4.9336,-4.9394,-4.9317,-4.9029,-4.8971,-4.9163,-4.974,-4.9837,-5.0029,-5.0606,-5.0452,-4.9817,-4.8663,-4.9298,0.0,0.0,0.0,0.0,-5.4377,-5.4761,-5.5124,-5.5665,-5.5703,-5.5703,-5.5703,-5.5703,-5.5703,-5.5703,-5.5703,-5.5703,-5.5703,-5.5703,-5.5703,-5.5703,-5.5703,-5.5703,-5.5703,-5.5703,-5.5703,-5.5703,-5.5703,-5.5703,-5.5703,-5.5703,-5.5703,-5.5703,-5.5703,-5.5703,-5.5665,-5.5395,-5.5299,-5.5164,-5.4337,-5.4068,-5.3895,-5.3029,-5.276,-5.2587,-5.1741,-5.151,-5.1375,-5.0837,-5.0702,-5.0702,-5.0702,-5.0702,-5.0702,-5.0702,-5.0702,-5.0702,-5.0702,-5.0394,-5.024,-5.0625,-4.974,-4.8971,-4.897,-4.7049,-4.5589,-4.5605,-4.5586,-4.5586,-4.5586,-4.5586,-4.5586,-4.5586,-4.5586,-4.5586,-4.5586,-4.5586,-4.5586,-4.5586,-4.5586,-4.5586,-4.5586,-4.5586,-4.5586,-4.5586,-4.5586,-4.5586,-4.5586,-4.5586,-4.5586,0.0,-4.1604,-4.2874,-4.5432,-4.6932,-4.8086,-4.9144,-4.9394,-4.9394,-4.9394,-4.8913,-4.8336,-4.7778,-4.7413,-4.7586,-4.874,-4.8933,-4.9356,-5.0529,-5.0433,-4.9933,-4.9125,-4.974,-5.0029,0.0,0.0,0.0,-5.3896,-5.4587,-5.5143,-5.5665,-5.5703,-5.5703,-5.5703,-5.5703,-5.5703,-5.5703,-5.5703,-5.5703,-5.5703,-5.5703,-5.5703,-5.5703,-5.5703,-5.5703,-5.5703,-5.5703,-5.5703,-5.5703,-5.5703,-5.5703,-5.5703,-5.5703,-5.5703,-5.5703,-5.5703,-5.5703,-5.5703,-5.5703,-5.5703,-5.5607,-5.5088,-5.4934,-5.4761,-5.3914,-5.3664,-5.3491,-5.2606,-5.2375,-5.226,-5.1722,-5.1356,-5.1125,-5.1125,-5.0914,-5.0702,-5.0702,-5.0702,-5.0702,-5.0702,-5.0702,-5.0702,-5.0702,-5.0702,-5.0702,-5.0702,-4.8836,-4.6972,-4.576,-4.5605,-4.5586,-4.5586,-4.5586,-4.5586,-4.5586,-4.5586,-4.5586,-4.5586,-4.5586,-4.5586,-4.5586,-4.5586,-4.5586,-4.5586,-4.5586,-4.5586,-4.5586,-4.5586,-4.5586,-4.5586,-4.5586,-4.5759,-4.1258,-4.2604,-4.3893,-4.6413,-4.8221,-4.9394,-4.9394,-4.9394,-4.9356,-4.9183,-4.7875,-4.674,-4.6605,0.0,-4.6009,-4.7702,-4.8048,-4.8721,-5.051,-5.0048,-4.9837,0.0,0.0,0.0,0.0,0.0,0.0,-5.3205,0.0,-5.5645,-5.5703,-5.5703,-5.5703,-5.5703,-5.5703,-5.5703,-5.5703,-5.5703,-5.5703,-5.5703,-5.5703,-5.5703,-5.5703,-5.5703,-5.5703,-5.5703,-5.5703,-5.5703,-5.5703,-5.5703,-5.5703,-5.5703,-5.5703,-5.5703,-5.5703,-5.5703,-5.5703,-5.5703,-5.5703,-5.5703,-5.5703,-5.5703,-5.5703,-5.5549,-5.478,-5.4549,-5.4376,-5.351,-5.328,-5.326,-5.3222,-5.2587,-5.1972,-5.1972,-5.1356,-5.076,-5.076,-5.0721,-5.0702,-5.0702,-5.0702,-5.0702,-5.0702,-5.0702,-5.0702,-5.0702,-5.0702,-4.9452,-4.605,-4.5607,-4.5605,-4.5605,-4.5586,-4.5586,-4.5586,-4.5586,-4.5586,-4.5586,-4.5586,-4.5586,-4.5586,-4.5586,-4.5586,-4.5586,-4.5624,-4.5663,-4.5663,-4.5701,-4.572,-4.572,-4.572,-4.6163,-4.3143,-4.4778,-4.6394,-4.8298,-4.9086,-4.9394,-4.9394,-4.9394,-4.8682,-4.6124,-4.5259,-4.4374,-4.247,0.0,0.0,-4.5951,-4.7298,0.0,-5.126,-5.1414,0.0,-5.1568,0.0,-5.2145,-5.1933,-5.3069,0.0,0.0,-5.4553,-5.5073,-5.5665,-5.5703,-5.5703,-5.5703,-5.5703,-5.5703,-5.5703,-5.5703,-5.5703,-5.5703,-5.5703,-5.5703,-5.5703,-5.5703,-5.5703,-5.5703,-5.5703,-5.5703,-5.5703,-5.5703,-5.5703,-5.5703,-5.5703,-5.5703,-5.5703,-5.5703,-5.5703,-5.5703,-5.5703,-5.5703,-5.5703,-5.5703,-5.5703,-5.5665,-5.5453,-5.5395,-5.5222,-5.4395,-5.4164,-5.401,-5.3376,-5.3049,-5.2876,-5.2876,-5.2222,-5.1587,-5.1587,-5.1125,-5.0702,-5.0702,-5.0702,-5.0702,-5.0702,-5.0702,-5.0683,-5.0702,-5.0702,-4.9471,-4.6051,-4.559,-4.5589,-4.5589,-4.5605,-4.5586,-4.5586,-4.5586,-4.5586,-4.5586,-4.5586,-4.5586,-4.5586,-4.5586,-4.5586,-4.5586,-4.624,-4.6567,-4.6567,-4.7163,-4.7451,-4.7451,-4.7451,-4.7586,-4.4989,-4.6682,-4.8221,-4.9163,-4.9394,-4.9202,-4.8471,-4.7702,-4.6297,-4.3258,-4.2354,0.0,-3.9238,-4.0546,0.0,0.0,0.0,0.0,-5.1491,-5.1914,-5.2183,0.0,-5.3472,0.0,-5.3587,-5.4453,-5.5186,0.0,-5.5593,-5.5785,-5.6244,-5.6629,-5.684,-5.6838,-5.6838,-5.6838,-5.6838,-5.6838,-5.6646,-5.6261,-5.6261,-5.6069,-5.5703,-5.5703,-5.5703,-5.5703,-5.5703,-5.5703,-5.5703,-5.5703,-5.5703,-5.5703,-5.5703,-5.5703,-5.5703,-5.5703,-5.5703,-5.5703,-5.5703,-5.5703,-5.5703,-5.5703,-5.5703,-5.5703,-5.5703,-5.5703,-5.5607,-5.5145,-5.503,-5.4914,-5.4414,-5.4049,-5.378,-5.378,-5.3106,-5.2375,-5.1991,-5.1548,-5.1125,-5.076,-5.0702,-5.0702,-5.0702,-5.0702,-5.0702,-5.0702,-5.0702,-5.0029,-4.8087,-4.7837,-4.7548,-4.6779,-4.6683,-4.6701,-4.6701,-4.6374,-4.6163,-4.6163,-4.5797,-4.5586,-4.5586,-4.597,-4.6163,-4.6163,-4.7009,-4.7432,-4.7432,-4.7875,-4.8105,-4.8105,-4.8105,-4.8298,-4.6624,-4.8202,-4.9394,-4.9394,-4.9394,-4.8894,-4.699,-4.5297,-4.3355,-4.0566,0.0,-3.8296,-3.668,-3.845,-4.0758,-4.2624,0.0,-4.7913,-5.1279,-5.1837,-5.2549,-5.428,-5.4587,-5.4934,-5.5626,-5.5703,-5.6013,-5.6785,-5.7033,-5.7167,-5.7167,-5.7882,-5.8306,-5.83,-5.83,-5.83,-5.83,-5.83,-5.7915,-5.7165,-5.7049,-5.6588,-5.5857,-5.5742,-5.5703,-5.5703,-5.5703,-5.5703,-5.5703,-5.5703,-5.5703,-5.5703,-5.5703,-5.5703,-5.5703,-5.5703,-5.5703,-5.5703,-5.5703,-5.5703,-5.5703,-5.5703,-5.5703,-5.5703,-5.5703,-5.5703,-5.5703,-5.5703,-5.5703,-5.5703,-5.5703,-5.5184,-5.4664,-5.4664,-5.3991,-5.3126,-5.226,-5.1914,-5.1529,-5.0837,-5.0702,-5.0702,-5.0702,-5.0702,-5.0702,-5.0702,-5.0702,-5.0702,-5.0702,-5.0702,-5.0124,-4.8606,-4.824,-4.8105,-4.8105,-4.7471,-4.7067,-4.7067,-4.624,-4.5817,-4.5932,-4.6567,-4.6951,-4.7067,-4.7855,-4.8279,-4.8279,-4.8394,-4.8452,-4.8452,-4.8452,-4.8856,-4.7644,-4.8625,-4.9394,-4.9394,-4.9394,-4.8586,-4.5451,-4.4008,0.0,0.0,0.0,-3.5853,-3.4814,-3.6719,0.0,-4.1643,0.0,0.0,0.0,0.0,-5.2549,0.0,0.0,0.0,0.0,0.0,0.0,0.0,0.0,-5.8081,-5.8081,-5.8216,-5.8293,-5.8296,-5.83,-5.83,-5.83,-5.83,-5.8223,-5.8069,-5.7338,-5.6915,-5.6742,-5.603,-5.5703,-5.5703,-5.5703,0.0,-5.5703,-5.5703,-5.5703,-5.5703,-5.5703,-5.5703,-5.5703,-5.5703,-5.5703,-5.5703,-5.5703,-5.5703,-5.5703,-5.5703,-5.5703,-5.5703,-5.5703,-5.5703,-5.5703,-5.5703,-5.5703,-5.5703,-5.5703,-5.5588,-5.5491,-5.5491,-5.4876,-5.4049,-5.3164,-5.1895,-5.0856,-5.0721,-5.0702,-5.0702,-5.0702,-5.0702,-5.0702,-5.0702,-5.0702,-5.0702,-5.0702,-5.0702,-5.0567,-5.0279,-4.897,-4.8105,-4.8105,-4.7971,-4.7894,-4.7894,-4.7124,-4.6971,-4.7644,-4.7182,-4.7221,-4.7875,-4.874,-4.9163,-4.9183,-4.9894,-5.024,-5.024,-5.024,-5.0317,-4.7394,-4.8086,-4.8721,-4.8721,-4.8067,-4.6528,-4.3104,0.0,0.0,0.0,-3.3109,-3.2583,-3.1698,0.0,0.0,0.0,0.0,0.0,0.0,0.0,0.0,0.0,0.0,0.0,0.0,0.0,0.0,0.0,0.0,-5.8296,-5.8308,-5.9138,-5.9604,-5.9608,-5.9608,-5.9608,-5.9608,-5.9608,-5.9377,-5.8915,-5.8088,-5.7434,-5.6953,-5.6088,-5.5703,-5.5703,-5.5703,-5.5703,-5.5703,-5.5703,-5.5703,-5.5703,-5.5703,-5.5703,-5.5703,-5.5703,-5.5703,-5.5703,-5.5703,-5.5703,-5.5703,-5.5703,-5.5703,-5.5703,-5.5703,-5.5703,-5.5703,-5.5703,-5.5703,-5.5703,-5.5703,-5.5703,-5.5703,-5.5703,-5.4741,-5.3587,-5.2722,-5.1568,-5.0702,-5.0702,-5.0702,-5.0702,-5.0702,-5.0702,-5.0702,-5.0702,-5.0702,-5.0702,-5.0702,-5.0702,-5.0702,-5.0702,-4.9952,-4.9452,-4.9452,-4.9048,-4.8779,-4.8779,-4.799,-4.7702,-4.8086,-4.8163,-4.8375,-4.8779,-4.9625,-5.0067,-5.0067,-5.0491,-5.0702,-5.0702,-5.0702,-5.0702,-4.6932,-4.749,-4.8067,-4.7894,-4.6701,-4.4662,-4.1046,-3.8277,0.0,0.0,-3.0121,-2.9756,-2.9429,0.0,0.0,0.0,0.0,0.0,0.0,0.0,0.0,0.0,0.0,0.0,0.0,0.0,0.0,0.0,0.0,-5.8267,-5.8812,-6.0065,-6.08,-6.08,-6.08,-6.08,-6.08,-6.08,-6.0454,-5.9762,-5.8781,-5.7934,-5.7242,-5.6184,-5.5703,-5.5703,-5.5703,-5.5703,-5.5703,-5.5703,-5.5703,-5.5703,-5.5703,-5.5703,-5.5703,-5.5703,-5.5703,-5.5703,-5.5703,-5.5703,-5.5703,-5.5703,-5.5703,-5.5703,-5.5703,-5.5703,-5.5703,-5.5703,-5.5703,-5.5703,-5.5703,-5.5703,-5.5665,-5.5472,-5.4299,-5.2991,-5.2183,-5.1318,-5.0702,-5.0702,-5.0702,-5.0702,-5.0702,-5.0702,-5.0702,-5.0702,-5.0702,-5.0702,-5.0702,-5.0702,-5.0702,-5.0702,-5.0702,-5.0702,-5.0702,-5.0067,-4.9683,-4.9683,-4.8856,-4.8471,-4.8644,-4.9144,-4.949,-4.9663,-5.0337,-5.0702,-5.0702,-5.0702,-5.0702,-5.0702,-5.0702,-5.0702,-4.6951,-4.749,-4.7932,-4.7201,-4.6297,-4.4509,-4.0354,0.0,0.0,-3.1109,-2.9198,-2.8563,-3.0006,-3.1179,-3.3006,0.0,0.0,0.0,0.0,0.0,0.0,0.0,0.0,0.0,0.0,0.0,0.0,0.0,0.0,-5.811,-6.0454,-6.0723,-6.08,-6.08,-6.08,-6.08,-6.08,-6.08,-6.0762,-6.0666,-5.9069,-5.8261,-5.8127,-5.6453,-5.5703,-5.5703,-5.5703,-5.5703,0.0,-5.5703,-5.5703,-5.5703,-5.5703,-5.5703,-5.5703,-5.5703,-5.5703,-5.5703,-5.5703,-5.5703,-5.5703,-5.5703,-5.5703,-5.5703,-5.5703,-5.5703,-5.5703,-5.5703,-5.5703,-5.5703,-5.5703,-5.5703,-5.5511,-5.478,-5.3895,-5.3049,-5.2472,-5.1471,-5.0702,-5.0702,-5.0702,-5.0702,-5.0702,-5.0702,-5.0702,-5.0702,-5.0702,-5.0702,-5.0702,-5.0702,-5.0702,-5.0702,-5.0702,-5.0702,-5.0702,-5.0625,-5.0567,-5.0567,-4.976,-4.9644,-5.0433,-4.9779,-4.976,-5.0567,-5.0644,-5.0702,-5.0702,-5.0702,-5.0702,-5.0702,-5.0702,-5.0702,-4.5892,-4.6355,-4.6509,-4.6201,-4.5105,-4.3124,-3.9373,0.0,-3.2987,-2.9583,-2.7525,-2.6871,-2.8582,-2.8756,-3.0063,-3.4487,-3.5199,-3.6911,0.0,0.0,0.0,0.0,0.0,0.0,0.0,0.0,0.0,0.0,0.0,-5.767,-5.921,-5.9284,-5.9303,-5.93,-5.93,-5.93,-5.93,-5.93,-5.93,-5.9281,-5.8088,-5.7511,-5.7473,-5.6261,-5.5703,-5.5703,-5.5703,-5.5703,0.0,-5.5703,-5.5703,-5.5703,-5.5703,-5.5703,-5.5703,-5.5703,-5.5703,-5.5703,-5.5703,-5.5703,-5.5703,-5.5703,-5.5703,-5.5703,-5.5703,-5.5703,-5.5703,-5.5703,-5.5703,-5.5703,-5.5703,-5.5338,-5.4761,-5.3914,-5.3049,-5.2241,-5.1529,-5.101,-5.0702,-5.0702,-5.0702,-5.0702,-5.0702,-5.0702,-5.0702,-5.0702,-5.0702,-5.0702,-5.0702,-5.0702,-5.0702,-5.0702,-5.0702,-5.0702,-5.0702,-5.0702,-5.0702,-5.0702,-5.0356,-5.0337,-5.0683,-5.0356,-5.0337,-5.0683,-5.0702,-5.0702,-5.0702,-5.0702,-5.0702,-5.0702,-5.0702,-5.0702,-4.4487,-4.522,-4.5586,-4.5586,-4.4143,-4.1893,0.0,0.0,-3.166,-2.8544,-2.6505,-2.5745,-2.7236,-2.7217,-2.8313,-3.241,-3.2929,-3.4622,-3.9777,0.0,0.0,0.0,0.0,0.0,0.0,0.0,0.0,0.0,0.0,-5.6881,-5.7499,-5.7536,-5.7783,-5.828,-5.83,-5.83,-5.83,-5.83,-5.83,-5.83,-5.7415,-5.6992,-5.6973,-5.6088,-5.5703,-5.5703,-5.5703,-5.5703,0.0,-5.5703,-5.5703,-5.5703,-5.5703,-5.5703,-5.5703,-5.5703,-5.5703,-5.5703,-5.5703,-5.5703,-5.5703,-5.5703,-5.5703,-5.5703,-5.5703,-5.5703,-5.5703,-5.5703,-5.5703,-5.5645,-5.5415,-5.4914,-5.4222,-5.3087,-5.2356,-5.1683,-5.0856,-5.0702,-5.0702,-5.0702,-5.0702,-5.0702,-5.0702,-5.0702,-5.0702,-5.0702,-5.0702,-5.0702,-5.0702,-5.0702,-5.0702,-5.0702,-5.0702,-5.0702,-5.0702,-5.0702,-5.0702,-5.0702,-5.0702,-5.0702,-5.0702,-5.0702,-5.0702,-5.0702,-5.0702,-5.0702,-5.0702,-5.0702,-5.0702,-5.0702,-5.0702,-5.0702,-4.2929,-4.4335,-4.5586,-4.5586,-4.3682,-4.1143,0.0,-3.4737,-3.0987,-2.8429,-2.6505,-2.5572,-2.6447,-2.7313,-2.8448,-3.016,-3.3263,-3.6642,-4.0008,0.0,0.0,0.0,0.0,0.0,0.0,0.0,0.0,0.0,0.0,0.0,-5.5722,-5.5722,-5.6511,-5.8261,-5.83,-5.83,-5.83,-5.83,-5.83,-5.83,-5.7415,-5.6992,-5.6973,-5.6107,-5.5703,-5.5703,-5.5703,-5.5703,0.0,-5.5703,-5.5703,-5.5703,-5.5703,-5.5703,-5.5703,-5.5703,-5.5703,-5.5703,-5.5703,-5.5703,-5.5703,-5.5703,-5.5703,-5.5703,-5.5703,-5.5703,-5.5703,-5.5703,-5.5703,-5.5511,-5.4722,-5.4511,-5.4068,-5.2337,-5.1914,-5.1683,-5.0856,-5.0702,-5.0702,-5.0702,-5.0702,-5.0702,-5.0702,-5.0702,-5.0702,-5.0702,-5.0702,-5.0702,-5.0702,-5.0702,-5.0702,-5.0702,-5.0702,-5.0702,-5.0702,-5.0702,-5.0702,-5.0702,-5.0702,-5.0702,-5.0702,-5.0702,-5.0702,-5.0702,-5.0702,-5.0702,-5.0702,-5.0702,-5.0702,-5.0702,-5.0702,-5.0702,-3.8507,-3.9546,-4.0123,-3.8988,-3.8104,-3.6834,-3.4276,-3.2199,-3.0102,-2.7544,-2.6101,-2.5572,-2.6447,-2.6351,-2.764,-3.2256,-3.341,0.0,0.0,0.0,0.0,0.0,0.0,0.0,0.0,0.0,0.0,0.0,0.0,-5.5703,-5.5703,-5.5703,-5.5953,-5.6511,-5.6511,-5.6511,-5.6511,-5.6511,-5.6511,-5.6511,-5.6242,-5.6107,-5.6107,-5.5818,-5.5703,-5.5703,-5.5703,-5.5703,-5.5703,-5.5703,-5.5703,-5.5703,-5.5703,-5.5703,-5.5703,-5.5703,-5.5703,-5.5703,-5.5703,-5.5703,-5.5703,-5.5703,-5.5703,-5.5703,-5.5703,-5.5703,-5.5703,-5.5703,-5.5299,-5.4818,-5.4568,-5.3626,-5.2587,-5.2029,-5.1491,-5.101,-5.076,-5.0702,-5.0702,-5.0702,-5.0702,-5.0702,-5.0702,-5.0702,-5.0702,-5.0702,-5.0702,-5.0702,-5.0702,-5.0702,-5.0702,-5.0702,-5.0702,-5.0702,-5.0702,-5.0702,-5.0702,-5.0702,-5.0702,-5.0702,-5.0702,-5.0702,-5.0702,-5.0702,-5.0702,-5.0702,-5.0702,-5.0702,-5.0702,-5.0702,-5.0702,-5.0702,0.0,-3.6142,-3.6815,-3.5757,-3.5007,-3.4026,-3.2141,-3.0544,-2.8909,-2.6986,-2.5909,-2.5457,-2.6005,-2.5928,-2.7121,-3.116,-3.2429,0.0,0.0,0.0,0.0,0.0,0.0,0.0,0.0,0.0,0.0,0.0,-5.5703,-5.5703,-5.5703,-5.5703,-5.5703,-5.5703,-5.5703,-5.5703,-5.5703,-5.5703,-5.5703,-5.5703,-5.5703,-5.5703,-5.5703,-5.5703,-5.5703,-5.5703,-5.5703,-5.5703,0.0,-5.5703,-5.5703,-5.5703,-5.5703,-5.5703,-5.5703,-5.5703,-5.5703,-5.5703,-5.5703,-5.5703,-5.5703,-5.5703,-5.5703,-5.5703,-5.5703,-5.5703,-5.5645,-5.5318,-5.4895,-5.4357,-5.3683,-5.2722,-5.1837,-5.1529,-5.1048,-5.0702,-5.0702,-5.0702,-5.0702,-5.0702,-5.0702,-5.0702,-5.0702,-5.0702,-5.0702,-5.0702,-5.0702,-5.0702,-5.0702,-5.0702,-5.0702,-5.0702,-5.0702,-5.0702,-5.0702,-5.0702,-5.0702,-5.0702,-5.0702,-5.0702,-5.0702,-5.0702,-5.0702,-5.0702,-5.0702,-5.0702,-5.0702,-5.0702,-5.0702,-5.0702,-5.0702,-5.0702,0.0,-3.3641,-3.493,-3.4814,-3.3603,-3.2237,-3.1429,-2.9467,0.0,-2.6697,-2.587,-2.536,-2.5534,-2.614,-2.7024,-2.8313,-3.1141,0.0,0.0,0.0,0.0,0.0,0.0,0.0,0.0,0.0,0.0,0.0,-5.5703,-5.5703,-5.5703,-5.5703,-5.5703,-5.5703,-5.5703,-5.5703,-5.5703,-5.5703,-5.5703,-5.5703,-5.5703,-5.5703,-5.5703,-5.5703,-5.5703,0.0,-5.5703,-5.5703,-5.5703,-5.5703,-5.5703,-5.5703,-5.5703,-5.5703,-5.5703,-5.5703,-5.5703,-5.5703,-5.5703,-5.5703,-5.5703,-5.5703,-5.5703,-5.5684,-5.5626,-5.5607,-5.5453,-5.4703,-5.4414,-5.3933,-5.2318,-5.1875,-5.1625,-5.0875,-5.0702,-5.0702,-5.0702,-5.0702,-5.0702,-5.0702,-5.0702,-5.0702,-5.0702,-5.0702,-5.0702,-5.0702,-5.0702,-5.0702,-5.0702,-5.0702,-5.0702,-5.0702,-5.0702,-5.0702,-5.0702,-5.0702,-5.0702,-5.0702,-5.0702,-5.0702,-5.0702,-5.0702,-5.0702,-5.0702,-5.0702,-5.0702,-5.0702,-5.0702,-5.0702,-5.0702,-5.0702,-5.0702,-2.6871,0.0,-2.9371,-2.8033,-2.789,-2.7871,0.0,-2.6871,-2.6659,0.0,0.0,-2.5909,-2.7852,-2.7332,-2.8371,-3.3757,-3.5295,0.0,0.0,0.0,0.0,0.0,0.0,0.0,0.0,0.0,0.0,-5.5703,-5.5703,-5.5703,-5.5703,-5.5703,-5.5703,-5.5703,-5.5703,-5.5703,-5.5703,-5.5703,-5.5703,-5.5703,-5.5703,-5.5703,-5.5703,-5.5703,-5.5703,-5.5703,-5.5703,-5.5703,-5.5703,-5.5703,-5.5703,-5.5703,-5.5703,-5.5703,-5.5703,-5.5703,-5.5703,-5.5703,-5.5703,-5.5703,-5.5703,-5.5703,-5.5703,-5.5588,-5.4972,-5.478,-5.4741,-5.4549,-5.3549,-5.2433,-5.201,-5.1433,-5.0933,-5.0741,-5.0702,-5.0702,-5.0702,-5.0702,-5.0702,-5.0702,-5.0702,-5.0702,-5.0702,-5.0702,-5.0702,-5.0702,-5.0702,-5.0702,-5.0702,-5.0702,-5.0702,-5.0702,-5.0702,-5.0702,-5.0702,-5.0702,-5.0702,-5.0702,-5.0702,-5.0702,-5.0702,-5.0702,-5.0702,-5.0702,-5.0702,-5.0702,-5.0702,-5.0702,-5.0702,-5.0702,-5.0702,-5.0702,-2.5303,-2.6274,-2.7082,-2.614,-2.6255,-2.6486,-2.6005,0.0,0.0,0.0,0.0,0.0,-2.7621,-2.7832,0.0,-3.368,-3.6026,0.0,0.0,0.0,0.0,0.0,0.0,0.0,0.0,0.0,-5.5703,-5.5703,-5.5703,-5.5703,-5.5703,-5.5703,-5.5703,-5.5703,-5.5703,-5.5703,-5.5703,-5.5703,-5.5703,-5.5703,-5.5703,-5.5703,-5.5703,-5.5703,-5.5703,-5.5703,-5.5703,-5.5703,-5.5703,-5.5703,-5.5703,-5.5703,-5.5703,-5.5703,-5.5703,-5.5703,-5.5472,-5.5145,-5.5145,-5.4895,-5.4626,-5.5011,-5.4876,-5.4472,-5.4049,-5.3626,-5.3318,-5.3318,-5.2645,-5.1818,-5.1452,-5.1029,-5.0702,-5.0702,-5.0702,-5.0702,-5.0702,-5.0702,-5.0702,-5.0702,-5.0702,-5.0702,-5.0702,-5.0702,-5.0702,-5.0702,-5.0702,-5.0702,-5.0702,-5.0702,-5.0702,-5.0702,-5.0702,-5.0702,-5.0702,-5.0702,-5.0702,-5.0702,-5.0702,-5.0702,-5.0702,-5.0702,-5.0702,-5.0702,-5.0702,-5.0702,-5.0702,-5.0702,-5.0702,-5.0702,-5.0702,-5.0702,-2.5591,-2.6332,-2.689,-2.6505,-2.6505,-2.6563,-2.6428,0.0,0.0,0.0,0.0,0.0,0.0,0.0,0.0,0.0,0.0,0.0,0.0,0.0,0.0,0.0,0.0,0.0,0.0,-5.5105,-5.5568,-5.5684,-5.5703,-5.5703,-5.5703,-5.5703,-5.5703,-5.5703,-5.5703,-5.5703,-5.5703,-5.5703,-5.5703,-5.5703,-5.5703,-5.5703,-5.5703,-5.5703,-5.5703,-5.5703,-5.5703,-5.5703,-5.5703,-5.5703,-5.5703,-5.5703,-5.5703,-5.5607,-5.5511,-5.5511,-5.4991,-5.4299,-5.4299,-5.3818,-5.3318,-5.4068,-5.3799,-5.3183,-5.3049,-5.2491,-5.1875,-5.176,-5.1722,-5.1568,-5.0875,-5.0702,-5.0702,-5.0702,-5.0702,-5.0702,-5.0702,-5.0702,-5.0702,-5.0702,-5.0702,-5.0702,-5.0702,-5.0702,-5.0702,-5.0702,-5.0702,-5.0702,-5.0702,-5.0702,-5.0702,-5.0702,-5.0702,-5.0702,-5.0702,-5.0702,-5.0702,-5.0702,-5.0702,-5.0702,-5.0702,-5.0702,-5.0702,-5.0702,-5.0702,-5.0702,-5.0702,-5.0702,-5.0702,-5.0702,-5.0702,-5.0702,-2.6909,-2.8102,-2.8198,-2.6043,-2.6063,-2.6409,0.0,0.0,0.0,0.0,0.0,0.0,0.0,0.0,0.0,0.0,0.0,0.0,0.0,0.0,0.0,0.0,0.0,0.0,0.0,-5.4624,-5.497,-5.5645,-5.5703,-5.5703,-5.5703,-5.5703,-5.5703,-5.5703,-5.5703,-5.5703,-5.5703,-5.5703,-5.5703,-5.5703,-5.5703,-5.5703,-5.5703,-5.5703,-5.5703,-5.5703,-5.5703,-5.5703,-5.5703,-5.5703,-5.5703,-5.5703,-5.5703,-5.528,-5.4684,-5.4684,-5.4145,-5.3395,-5.3395,-5.3318,-5.3222,-5.3356,-5.3318,-5.3068,-5.2318,-5.201,-5.176,-5.1087,-5.0875,-5.0856,-5.0721,-5.0702,-5.0702,-5.0702,-5.0702,-5.0702,-5.0702,-5.0702,-5.0702,-5.0702,-5.0702,-5.0702,-5.0702,-5.0702,-5.0702,-5.0702,-5.0702,-5.0702,-5.0702,-5.0702,-5.0702,-5.0702,-5.0702,-5.0702,-5.0702,-5.0702,-5.0702,-5.0702,-5.0702,-5.0702,-5.0702,-5.0702,-5.0702,-5.0702,-5.0702,-5.0702,-5.0702,-5.0702,-5.0702,-5.0702,-5.0702,-5.0702,-2.5534,-2.6774,-2.7582,-2.689,-2.8044,-2.914,0.0,0.0,0.0,0.0,0.0,0.0,0.0,0.0,0.0,0.0,0.0,0.0,0.0,0.0,0.0,0.0,0.0,-5.2223,-5.3031,-5.353,-5.4143,-5.4991,-5.5049,-5.5241,-5.5684,-5.5703,-5.5703,-5.5703,-5.5703,-5.5703,-5.5703,-5.5703,-5.5703,-5.5703,-5.5703,-5.5703,-5.5703,-5.5703,-5.5703,-5.5684,-5.5241,-5.5049,-5.5011,-5.4549,-5.4357,-5.4357,-5.4357,-5.4126,-5.3741,-5.328,-5.2837,-5.251,-5.251,-5.2222,-5.1914,-5.2356,-5.2202,-5.176,-5.1375,-5.1241,-5.1164,-5.0798,-5.0702,-5.0702,-5.0702,-5.0702,-5.0702,-5.0702,-5.0702,-5.0702,-5.0702,-5.0702,-5.0702,-5.0702,-5.0702,-5.0702,-5.0702,-5.0702,-5.0702,-5.0702,-5.0702,-5.0702,-5.0702,-5.0702,-5.0702,-5.0702,-5.0702,-5.0702,-5.0702,-5.0702,-5.0702,-5.0702,-5.0702,-5.0702,-5.0702,-5.0702,-5.0702,-5.0702,-5.0702,-5.0702,-5.0702,-5.0702,-5.0702,-5.0702,-5.0702,-5.0702,-2.4764,-2.5774,-2.6851,-2.7909,0.0,0.0,-3.0679,0.0,0.0,0.0,0.0,0.0,0.0,0.0,0.0,0.0,0.0,0.0,0.0,0.0,0.0,-5.0606,-5.1241,-5.1684,-5.1876,-5.2492,-5.326,-5.4126,-5.4203,-5.4453,-5.5088,-5.5107,-5.5107,-5.5107,-5.5107,-5.5107,-5.5107,-5.5107,-5.5299,-5.5703,-5.5703,-5.5703,-5.5684,-5.5491,-5.5415,-5.5376,-5.4549,-5.4203,-5.4145,-5.3491,-5.3203,-5.3203,-5.3203,-5.3087,-5.2799,-5.1933,-5.1625,-5.1625,-5.1625,-5.1221,-5.0798,-5.1414,-5.1202,-5.0702,-5.0702,-5.0702,-5.0702,-5.0702,-5.0702,-5.0702,-5.0702,-5.0702,-5.0702,-5.0702,-5.0702,-5.0702,-5.0702,-5.0702,-5.0702,-5.0702,-5.0702,-5.0702,-5.0702,-5.0702,-5.0702,-5.0702,-5.0702,-5.0702,-5.0702,-5.0702,-5.0702,-5.0702,-5.0702,-5.0606,-5.0414,-5.0202,-5.0183,-5.0375,-5.0587,-5.0702,-5.0702,-5.0702,-5.0702,-5.0702,-5.0702,-5.0702,-5.0702,-5.0702,-5.0702,-5.0702,-5.0702,-5.0702,-2.6755,-2.7121,-2.6986,-2.8602,0.0,0.0,-3.091,0.0,0.0,0.0,0.0,0.0,0.0,0.0,0.0,0.0,0.0,0.0,0.0,0.0,-5.0625,-5.0683,-5.0741,-5.1087,-5.1838,-5.1953,-5.2338,-5.3222,-5.3299,-5.3318,-5.3376,-5.3376,-5.3376,-5.3376,-5.3376,-5.3376,-5.3376,-5.3376,-5.4164,-5.5703,-5.5703,-5.5703,-5.5665,-5.4934,-5.4587,-5.453,-5.3664,-5.3299,-5.3299,-5.3241,-5.3203,-5.3203,-5.3203,-5.2722,-5.1914,-5.1087,-5.0779,-5.0779,-5.0779,-5.0741,-5.0702,-5.076,-5.0741,-5.0702,-5.0702,-5.0702,-5.0702,-5.0702,-5.0702,-5.0702,-5.0702,-5.0702,-5.0702,-5.0702,-5.0702,-5.0702,-5.0702,-5.0702,-5.0702,-5.0702,-5.0702,-5.0702,-5.0702,-5.0702,-5.0702,-5.0702,-5.0702,-5.0702,-5.0702,-5.0702,-5.0702,-5.0702,-5.0702,-5.0356,-4.9548,-4.8759,-4.8625,-4.9433,-5.024,-5.0702,-5.0702,-5.0702,-5.0702,-5.0702,-5.0702,-5.0702,-5.0702,-5.0702,-5.0702,-5.0702,-5.0702,-5.0702,-2.4899,-2.6063,-2.7005,-2.8679,0.0,0.0,0.0,0.0,0.0,0.0,0.0,0.0,0.0,0.0,0.0,0.0,0.0,0.0,0.0,-4.9933,-5.0702,-5.0702,-5.0702,-5.0837,-5.1126,-5.1145,-5.151,-5.2337,-5.2395,-5.2645,-5.3164,-5.3203,-5.3203,-5.3203,-5.3203,-5.3203,-5.3203,-5.3203,-5.353,-5.4145,-5.4145,-5.4145,-5.4145,-5.3837,-5.3683,-5.3645,-5.2779,-5.2395,-5.2356,-5.1856,-5.1645,-5.1645,-5.1645,-5.1433,-5.1125,-5.0798,-5.0702,-5.0702,-5.0702,-5.0702,-5.0702,-5.0702,-5.0702,-5.0702,-5.0702,-5.0702,-5.0702,-5.0702,-5.0702,-5.0702,-5.0702,-5.0702,-5.0702,-5.0702,-5.0702,-5.0702,-5.0702,-5.0702,-5.0702,-5.0702,-5.0702,-5.0702,-5.0702,-5.0702,-5.0702,-5.0702,-5.0702,-5.0702,-5.0702,-5.0702,-5.0702,-5.0702,-5.0221,-4.9529,-4.8663,-4.8298,-4.824,-4.8567,-4.9413,-5.0125,-5.0664,-5.0183,-4.9894,-4.9894,-4.9894,-4.9894,-4.9894,-5.0433,-5.0414,-4.9894,-4.9894,-4.9606,-2.3706,-2.4937,-2.6274,0.0,0.0,0.0,0.0,0.0,0.0,0.0,0.0,0.0,0.0,0.0,0.0,0.0,0.0,0.0,0.0,-4.9587,-5.0298,-5.0298,-5.0529,-5.0702,-5.0702,-5.0702,-5.0933,-5.1491,-5.1529,-5.1779,-5.2375,-5.2414,-5.2414,-5.2414,-5.2414,-5.2414,-5.2414,-5.2414,-5.2414,-5.2414,-5.2414,-5.2683,-5.3203,-5.2933,-5.2799,-5.2741,-5.1895,-5.1529,-5.1491,-5.0933,-5.0702,-5.0702,-5.0702,-5.0702,-5.0702,-5.0702,-5.0702,-5.0702,-5.0702,-5.0702,-5.0702,-5.0702,-5.0702,-5.0702,-5.0702,-5.0702,-5.0702,-5.0702,-5.0702,-5.0702,-5.0702,-5.0702,-5.0702,-5.0702,-5.0702,-5.0702,-5.0702,-5.0702,-5.0702,-5.0702,-5.0702,-5.0702,-5.0702,-5.0702,-5.0702,-5.0702,-5.0702,-5.0702,-5.0702,-5.0702,-5.0587,-5.0317,-4.9279,-4.8375,-4.7778,-4.7471,-4.7432,-4.7702,-4.8279,-4.899,-4.9837,-4.9317,-4.899,-4.899,-4.899,-4.899,-4.899,-4.9586,-4.9567,-4.899,-4.899,-4.8663,-2.386,-2.4129,0.0,0.0,0.0,0.0,0.0,0.0,0.0,0.0,0.0,0.0,0.0,0.0,0.0,0.0,-4.6333,-4.6912,-4.6897,-4.8356,-4.9375,-4.9375,-5.0164,-5.0683,-5.0683,-5.0702,-5.0702,-5.0702,-5.0702,-5.0702,-5.0702,-5.0702,-5.0702,-5.0702,-5.0702,-5.0702,-5.0702,-5.0702,-5.0702,-5.0702,-5.0702,-5.1568,-5.3145,-5.2279,-5.1895,-5.1856,-5.1048,-5.0702,-5.0702,-5.0702,-5.0702,-5.0702,-5.0702,-5.0702,-5.0702,-5.0702,-5.0702,-5.0702,-5.0702,-5.0702,-5.0702,-5.0702,-5.0702,-5.0702,-5.0702,-5.0683,-5.0683,-5.0683,-5.0683,-5.0683,-5.0683,-5.0683,-5.0702,-5.0702,-5.0702,-5.0702,-5.0702,-5.0702,-5.0702,-5.0702,-5.0702,-5.0702,-5.0702,-5.0702,-5.0702,-5.0702,-5.0702,-5.0702,-5.0683,-5.0664,-5.0337,-4.9471,-4.7894,-4.6913,-4.6894,-4.6105,-4.597,-4.6836,-4.6894,-4.7259,-4.8067,-4.8086,-4.8086,-4.8086,-4.8086,-4.8086,-4.8086,-4.8105,-4.8086,-4.8086,-4.8086,-4.8086,-2.386,-2.5269,0.0,0.0,0.0,0.0,0.0,0.0,0.0,0.0,0.0,0.0,0.0,0.0,0.0,-4.5509,-4.6333,-4.6891,-4.6894,-4.7834,-4.8489,-4.8491,-4.924,-4.9798,-4.9798,-5.0337,-5.0702,-5.0702,-5.0702,-5.0702,-5.0702,-5.0702,-5.0702,-5.0702,-5.0702,-5.0702,-5.0702,-5.0702,-5.0702,-5.0702,-5.0702,-5.0952,-5.1433,-5.1164,-5.1048,-5.1029,-5.0798,-5.0702,-5.0702,-5.0702,-5.0702,-5.0702,-5.0702,-5.0702,-5.0702,-5.0702,-5.0702,-5.0702,-5.0702,-5.0702,-5.0702,-5.0702,-5.0702,-5.0663,-5.0358,-5.0272,-5.0225,-4.9949,-4.9872,-4.9872,-4.9872,-5.0285,-5.0708,-5.07,-5.0694,-5.0696,-5.0696,-5.0696,-5.0696,-5.0696,-5.0696,-5.0702,-5.0702,-5.0702,-5.0702,-5.0702,-5.0702,-5.0471,-4.9856,-4.924,-4.8567,-4.774,-4.7201,-4.6644,-4.6028,-4.574,-4.5701,-4.597,-4.599,-4.6624,-4.8048,-4.7567,-4.7259,-4.7259,-4.7259,-4.7259,-4.7259,-4.7817,-4.7645,-4.6851,-4.7127,-4.6801,-2.4147,0.0,0.0,0.0,0.0,0.0,0.0,0.0,0.0,0.0,0.0,0.0,0.0,0.0,0.0,-4.5355,-4.5834,-4.6219,-4.6371,-4.7101,-4.7603,-4.7625,-4.8375,-4.8817,-4.8704,-4.9173,-4.9405,-4.9277,-4.9277,-4.9341,-4.9466,-4.9792,-5.0045,-5.0183,-5.051,-5.0624,-5.0462,-5.0462,-5.0462,-5.0462,-5.0462,-5.0544,-5.0702,-5.0702,-5.0702,-5.0702,-5.0702,-5.0604,-5.0483,-5.0624,-5.0604,-5.0462,-5.0462,-5.0358,-5.0249,-5.0399,-5.0358,-5.0272,-5.0604,-5.0483,-5.0249,-5.0421,-5.0358,-5.0183,-4.9949,-4.9625,-4.9333,-4.9098,-4.8768,-4.8626,-4.8957,-4.9617,-5.0293,-5.0627,-5.0688,-5.0508,-4.9868,-4.9748,-4.9927,-5.0579,-5.0696,-5.0713,-5.0713,-5.0713,-5.0581,-5.0221,-4.9894,-4.9471,-4.8952,-4.8144,-4.7451,-4.6951,-4.6586,-4.6163,-4.5624,-4.5586,-4.5586,-4.5586,-4.5586,-4.6047,-4.7067,-4.6644,-4.6374,-4.6374,-4.6374,-4.632,-4.6186,-4.6666,-4.6485,-4.5641,-4.5881,-4.5592,0.0,0.0,0.0,0.0,0.0,0.0,0.0,0.0,0.0,0.0,0.0,0.0,0.0,0.0,-4.4147,-4.4972,-4.5105,-4.522,-4.5547,-4.6294,-4.6756,-4.6737,-4.745,-4.7795,-4.7477,-4.7504,-4.7438,-4.7133,-4.7106,-4.7219,-4.7533,-4.8342,-4.8936,-4.9221,-5.001,-5.0291,-4.9978,-4.9978,-5.0035,-5.0092,-5.0135,-5.0336,-5.0663,-5.0683,-5.0702,-5.0702,-5.0663,-5.0404,-5.0021,-5.0408,-5.0268,-4.9815,-4.9815,-4.9599,-4.9325,-4.9695,-4.9618,-4.9409,-5.0106,-4.9887,-4.9334,-4.9695,-4.9572,-4.9277,-4.9219,-4.872,-4.8117,-4.8089,-4.7561,-4.7174,-4.7881,-4.8617,-4.9372,-5.0081,-5.0145,-4.9682,-4.8324,-4.8302,-4.8945,-5.0427,-5.0593,-5.0465,-5.0393,-5.0431,-5.0199,-4.9394,-4.8548,-4.799,-4.799,-4.7278,-4.6778,-4.6778,-4.6067,-4.5586,-4.5586,-4.5568,-4.5549,-4.5549,-4.5513,-4.5513,-4.5513,-4.555,-4.5549,-4.5549,-4.5513,-4.5362,-4.5052,-4.5074,-4.4919,-4.4553,-4.4606,-4.4606,0.0,0.0,0.0,0.0,0.0,0.0,0.0,0.0,0.0,0.0,0.0,0.0,0.0,-4.4741,-4.4589,-4.5034,-4.5105,-4.522,-4.5547,-4.5757,-4.5776,-4.5509,-4.6194,-4.6562,-4.6214,-4.6807,-4.7186,-4.7106,-4.7106,-4.7114,-4.7193,-4.7634,-4.7911,-4.7974,-4.8187,-4.8544,-4.9058,-4.912,-4.9487,-5.0092,-5.0421,-5.0442,-5.0249,-5.0544,-5.0702,-5.0683,-5.0358,-4.982,-4.9162,-4.9251,-4.8691,-4.7742,-4.7742,-4.7689,-4.7634,-4.7716,-4.7689,-4.7634,-4.7795,-4.7768,-4.7634,-4.7716,-4.7689,-4.7551,-4.7241,-4.7037,-4.6813,-4.6509,-4.6295,-4.6202,-4.6385,-4.6546,-4.6709,-4.6876,-4.5959,-4.526,-4.6031,-4.8284,-5.0289,-5.0635,-4.9676,-4.8605,-4.7913,-4.8279,-4.8606,-4.8394,-4.7682,-4.7163,-4.7163,-4.6413,-4.5874,-4.5874,-4.5701,-4.5586,-4.5586,-4.5362,-4.5201,-4.5201,-4.4966,-4.4825,-4.4825,-4.5074,-4.5201,-4.5201,-4.4943,-4.4781,-4.4726,-4.4966,-4.4781,-4.4146,-4.4713,-4.4663,0.0,0.0,0.0,0.0,0.0,0.0,0.0,0.0,0.0,0.0,0.0,0.0,0.0,-4.4426,-4.441,-4.4782,-4.4855,-4.4972,-4.5316,-4.5355,-4.524,-4.4895,-4.523,-4.5342,-4.4976,-4.5367,-4.5554,-4.5394,-4.5394,-4.5436,-4.5594,-4.6194,-4.6561,-4.6714,-4.7137,-4.7479,-4.7682,-4.7729,-4.7956,-4.8371,-4.8579,-4.8701,-4.8675,-4.9286,-4.9434,-4.9245,-4.8846,-4.8325,-4.7775,-4.7979,-4.7537,-4.6805,-4.6805,-4.6705,-4.6551,-4.6746,-4.6686,-4.6582,-4.6968,-4.6853,-4.6551,-4.6746,-4.6686,-4.6507,-4.6264,-4.5938,-4.5608,-4.5386,-4.5039,-4.4745,-4.4745,-4.4744,-4.4743,-4.4743,-4.4114,-4.3708,-4.4426,-4.599,-4.7266,-4.7256,-4.7099,-4.6755,-4.5994,-4.6625,-4.724,-4.724,-4.655,-4.5972,-4.5827,-4.5385,-4.5118,-4.5118,-4.5118,-4.5118,-4.5118,-4.4966,-4.4872,-4.4872,-4.4701,-4.458,-4.458,-4.4587,-4.4663,-4.4872,-4.4682,-4.458,-4.458,-4.4776,-4.4657,-4.4308,-4.4682,-4.4638,0.0,0.0,0.0,0.0,0.0,0.0,0.0,0.0,0.0,0.0,0.0,0.0,-4.4115,-4.3939,-4.4044,-4.4435,-4.4499,-4.4626,-4.4953,-4.5017,-4.4898,-4.4534,-4.4495,-4.4336,-4.3952,-4.392,-4.3804,-4.3513,-4.3497,-4.3612,-4.3912,-4.4668,-4.5185,-4.548,-4.6185,-4.6477,-4.6265,-4.6283,-4.6339,-4.6488,-4.6488,-4.6656,-4.6996,-4.7485,-4.7658,-4.7585,-4.7164,-4.673,-4.6315,-4.6656,-4.6465,-4.5983,-4.5983,-4.579,-4.5551,-4.5871,-4.5756,-4.5569,-4.6244,-4.6047,-4.5533,-4.5871,-4.5756,-4.548,-4.548,-4.5021,-4.4488,-4.4488,-4.4011,-4.3497,-4.3497,-4.3497,-4.3497,-4.3497,-4.3509,-4.3509,-4.3515,-4.3487,-4.3492,-4.3509,-4.4439,-4.5053,-4.4519,-4.5304,-4.6001,-4.6001,-4.5449,-4.4919,-4.465,-4.458,-4.458,-4.458,-4.458,-4.458,-4.458,-4.4527,-4.4501,-4.4501,-4.4447,-4.4419,-4.4419,-4.4076,-4.4076,-4.4392,-4.4419,-4.4447,-4.4501,-4.4553,-4.458,-4.4606,-4.4657,-4.4676,0.0,0.0,0.0,0.0,0.0,0.0,0.0,0.0,0.0,0.0,0.0,-4.4129,-4.4018,-4.3755,-4.3686,-4.4042,-4.4077,-4.4224,-4.4607,-4.4681,-4.4503,-4.4119,-4.407,-4.3952,-4.3605,-4.3566,-4.3548,-4.3479,-4.3497,-4.3513,-4.3563,-4.3961,-4.4195,-4.4255,-4.4349,-4.4729,-4.5376,-4.5426,-4.5799,-4.6507,-4.6507,-4.6538,-4.6564,-4.5605,-4.5908,-4.7174,-4.6772,-4.6141,-4.5475,-4.5536,-4.4878,-4.3894,-4.3894,-4.3879,-4.3809,-4.3894,-4.3879,-4.3844,-4.3944,-4.3928,-4.3844,-4.3894,-4.386,-4.3809,-4.3809,-4.3736,-4.3644,-4.3644,-4.3571,-4.3497,-4.3497,-4.3497,-4.3497,-4.3497,-4.3511,-4.3508,-4.3493,-4.3505,-4.3494,-4.3503,-4.3662,-4.3751,-4.3676,-4.429,-4.4827,-4.4827,-4.4732,-4.4631,-4.4624,-4.458,-4.458,-4.458,-4.458,-4.458,-4.458,-4.4261,-4.4087,-4.4087,-4.3804,-4.3664,-4.3664,-4.3597,-4.3597,-4.3664,-4.3664,-4.3791,-4.4087,-4.4447,-4.458,-4.4624,-4.4896,-4.4872,0.0,0.0,0.0,0.0,0.0,0.0,0.0,0.0,0.0,0.0,0.0,-4.2489,-4.2971,-4.2945,-4.3078,-4.3879,-4.3998,-4.407,-4.424,-4.4246,-4.4118,-4.3752,-4.3716,-4.366,-4.3497,-4.3497,-4.3497,-4.3497,-4.3497,-4.3497,-4.3497,-4.3646,-4.3726,-4.3726,-4.3726,-4.3892,-4.4243,-4.4295,-4.448,-4.4798,-4.4798,-4.4831,-4.4813,-4.4262,-4.4657,-4.5704,-4.5082,-4.4628,-4.4295,-4.4295,-4.3977,-4.3497,-4.3497,-4.3497,-4.3497,-4.3497,-4.3497,-4.3497,-4.3497,-4.3497,-4.3497,-4.3497,-4.3497,-4.3497,-4.3497,-4.3497,-4.3497,-4.3497,-4.3497,-4.3497,-4.3497,-4.3497,-4.3497,-4.3497,-4.3497,-4.3497,-4.3497,-4.3497,-4.3511,-4.3494,-4.3521,-4.352,-4.3521,-4.3915,-4.4261,-4.4261,-4.4261,-4.4194,-4.4004,-4.3992,-4.3992,-4.3992,-4.3992,-4.3992,-4.3992,-4.3804,-4.3726,-4.3726,-4.3563,-4.3497,-4.3497,-4.3497,-4.3497,-4.3497,-4.3497,-4.366,-4.4016,-4.4401,-4.4701,-4.4896,-4.5222,-4.5283,0.0,0.0,0.0,0.0,0.0,0.0,0.0,0.0,0.0,0.0,-3.9923,-4.073,-4.1522,-4.1839,-4.2333,-4.3406,-4.3587,-4.3642,-4.3826,-4.3879,-4.3771,-4.3516,-4.3497,-4.3497,-4.3497,-4.3497,-4.3497,-4.3497,-4.3497,-4.3497,-4.3497,-4.3497,-4.3497,-4.3497,-4.3497,-4.3497,-4.3497,-4.3497,-4.3497,-4.3497,-4.3497,-4.3497,-4.3497,-4.3497,-4.3828,-4.436,-4.3754,-4.3497,-4.3497,-4.3497,-4.3497,-4.3497,-4.3497,-4.3497,-4.3497,-4.3497,-4.3497,-4.3497,-4.3497,-4.3497,-4.3497,-4.3497,-4.3497,-4.3497,-4.3497,-4.3497,-4.3497,-4.3497,-4.3497,-4.3497,-4.3497,-4.3497,-4.3497,-4.3497,-4.3497,-4.3497,-4.3497,-4.3497,-4.3497,-4.3497,-4.3497,-4.349,-4.3489,-4.3701,-4.3881,-4.3881,-4.3881,-4.3772,-4.3548,-4.3497,-4.3497,-4.3497,-4.3497,-4.3497,-4.3497,-4.3497,-4.3497,-4.3497,-4.3497,-4.3497,-4.3497,-4.3497,-4.3497,-4.3497,-4.3497,-4.366,-4.4016,-4.429,-4.4631,-4.4966,-4.5243,-4.5342,0.0,0.0,0.0,0.0,0.0,0.0,0.0,0.0,0.0,0.0,-3.8279,-3.9087,-3.9866,-4.0646,-4.1426,-4.226,-4.237,-4.2642,-4.3424,-4.3516,-4.3516,-4.3497,-4.3497,-4.3497,-4.3497,-4.3497,-4.3497,-4.3497,-4.3497,-4.3497,-4.3497,-4.3497,-4.3497,-4.3497,-4.3497,-4.3497,-4.3497,-4.3497,-4.3497,-4.3497,-4.3497,-4.3497,-4.3497,-4.3497,-4.3516,-4.3552,-4.3516,-4.3497,-4.3497,-4.3497,-4.3497,-4.3497,-4.3497,-4.3497,-4.3497,-4.3497,-4.3497,-4.3497,-4.3497,-4.3497,-4.3497,-4.3497,-4.3497,-4.3497,-4.3497,-4.3497,-4.3497,-4.3497,-4.3497,-4.3497,-4.3497,-4.3497,-4.3497,-4.3497,-4.3497,-4.3497,-4.3497,-4.3497,-4.3497,-4.3497,-4.3497,-4.3479,-4.3495,-4.3495,-4.3513,-4.3513,-4.3513,-4.3513,-4.3479,-4.3497,-4.3497,-4.3497,-4.3497,-4.3497,-4.3497,-4.3497,-4.3497,-4.3497,-4.3497,-4.3497,-4.3497,-4.3497,-4.3497,-4.3497,-4.3497,-4.366,-4.4016,-4.3998,-4.4233,-4.465,-4.4631,-4.4657,0.0,0.0,0.0,0.0,0.0,0.0,0.0,0.0,0.0,0.0,-3.6559,-3.7418,-3.8206,-3.9428,-4.0593,-4.1425,-4.1522,-4.1643,-4.1933,-4.2422,-4.275,-4.275,-4.3188,-4.3497,-4.3497,-4.3497,-4.3497,-4.3497,-4.3497,-4.3497,-4.3497,-4.3497,-4.3497,-4.3497,-4.3497,-4.3497,-4.3497,-4.3497,-4.3497,-4.3497,-4.3497,-4.3497,-4.3497,-4.3497,-4.3497,-4.3497,-4.3497,-4.3497,-4.3497,-4.3497,-4.3497,-4.3497,-4.3497,-4.3497,-4.3497,-4.3497,-4.3497,-4.3497,-4.3497,-4.3497,-4.3497,-4.3497,-4.3497,-4.3497,-4.3497,-4.3497,-4.3497,-4.3497,-4.3497,-4.3497,-4.3497,-4.3497,-4.3497,-4.3497,-4.3497,-4.3497,-4.3497,-4.3497,-4.3497,-4.3497,-4.3497,-4.3497,-4.3497,-4.3497,-4.3497,-4.3497,-4.3497,-4.3497,-4.3497,-4.3497,-4.3497,-4.3497,-4.3497,-4.3497,-4.3497,-4.3497,-4.3497,-4.3497,-4.3497,-4.3497,-4.3497,-4.3497,-4.3497,-4.3497,-4.3497,-4.3582,-4.3679,-4.3912,-4.4058,-4.4204,-4.4474,-4.458,-1.8852,0.0,0.0,0.0,0.0,0.0,0.0,0.0,0.0,-3.4379,-3.5264,-3.6113,-3.6934,-3.7973,-3.9124,-4.0474,-4.0703,-4.0778,-4.1049,-4.1556,-4.1904,-4.1896,-4.2606,-4.3096,-4.3096,-4.3351,-4.3497,-4.3497,-4.3497,-4.3497,-4.3497,-4.3497,-4.3497,-4.3497,-4.3497,-4.3497,-4.3497,-4.3497,-4.3497,-4.3497,-4.3497,-4.3497,-4.3497,-4.3497,-4.3497,-4.3497,-4.3497,-4.3497,-4.3497,-4.3497,-4.3497,-4.3497,-4.3497,-4.3497,-4.3497,-4.3497,-4.3497,-4.3497,-4.3497,-4.3497,-4.3497,-4.3497,-4.3497,-4.3497,-4.3497,-4.3497,-4.3497,-4.3497,-4.3497,-4.3497,-4.3497,-4.3497,-4.3497,-4.3497,-4.3497,-4.3497,-4.3497,-4.3497,-4.3497,-4.3497,-4.3497,-4.3497,-4.3497,-4.3497,-4.3497,-4.3497,-4.3497,-4.3497,-4.3497,-4.3497,-4.3497,-4.3497,-4.3497,-4.3497,-4.3497,-4.3497,-4.3497,-4.3497,-4.3497,-4.3497,-4.3497,-4.3497,-4.3497,-4.3497,-4.3497,-4.3497,-4.3497,-4.3726,-4.3818,-4.3836,-4.4125,-4.4223,0.0,0.0,0.0,0.0,0.0,0.0,0.0,0.0,0.0,-3.333,-3.4283,-3.5145,-3.6056,-3.6219,-3.7022,-3.9406,-3.9804,-4.0111,-4.0923,-4.1034,-4.1056,-4.1042,-4.1787,-4.2242,-4.2242,-4.2986,-4.3424,-4.3424,-4.3424,-4.3424,-4.3442,-4.3479,-4.3497,-4.3497,-4.3497,-4.3497,-4.3497,-4.3497,-4.3497,-4.3497,-4.3497,-4.3497,-4.3497,-4.3497,-4.3497,-4.3497,-4.3497,-4.3497,-4.3497,-4.3497,-4.3497,-4.3497,-4.3497,-4.3497,-4.3497,-4.3497,-4.3497,-4.3497,-4.3497,-4.3497,-4.3497,-4.3497,-4.3497,-4.3497,-4.3497,-4.3497,-4.3497,-4.3497,-4.3497,-4.3497,-4.3497,-4.3497,-4.3497,-4.3497,-4.3497,-4.3497,-4.3497,-4.3497,-4.3497,-4.3497,-4.3497,-4.3497,-4.3497,-4.3497,-4.3497,-4.3497,-4.3497,-4.3497,-4.3497,-4.3497,-4.3497,-4.3497,-4.3497,-4.3497,-4.3497,-4.3497,-4.3497,-4.3497,-4.3497,-4.3497,-4.3497,-4.3497,-4.3497,-4.3497,-4.3497,-4.3497,-4.3497,-4.3497,-4.3497,-4.3497,-4.3497,-4.3497,-1.7931,0.0,0.0,0.0,0.0,0.0,0.0,0.0,0.0,-2.9996,-3.0976,-3.2128,-3.4109,-3.4504,-3.511,-3.698,-3.7776,-3.8438,-3.9246,-3.986,-4.0228,-4.0226,-4.0933,-4.1411,-4.1427,-4.1611,-4.1772,0.0,-4.1772,-4.2029,-4.2598,-4.3167,-4.3497,-4.3497,-4.3497,-4.3497,-4.3497,-4.3497,-4.3497,-4.3497,-4.3497,-4.3497,-4.3497,-4.3497,-4.3497,-4.3497,-4.3497,-4.3497,-4.3497,-4.3497,-4.3497,-4.3497,-4.3497,-4.3497,-4.3497,-4.3497,-4.3497,-4.3497,-4.3497,-4.3497,-4.3497,-4.3497,-4.3497,-4.3497,-4.3497,-4.3497,-4.3497,-4.3497,-4.3497,-4.3497,-4.3497,-4.3497,-4.3497,-4.3497,-4.3497,-4.3497,-4.3497,-4.3497,-4.3497,-4.3497,-4.3497,-4.3497,-4.3497,-4.3497,-4.3497,-4.3497,-4.3497,-4.3497,-4.3497,-4.3497,-4.3497,-4.3497,-4.3497,-4.3497,-4.3497,-4.3497,-4.3497,-4.3497,-4.3497,-4.3497,-4.3497,-4.3497,-4.3497,-4.3497,-4.3497,-4.3497,-4.3497,-4.3497,-4.3497,-4.3497,-4.3497,-4.3497,0.0,0.0,0.0,0.0,0.0,0.0,-2.469,-2.5397,0.0,0.0,-2.8868,-2.9835,-3.1916,-3.2297,-3.2948,-3.4934,-3.5652,-3.6362,-3.7522,-3.8401,-3.8903,-3.8903,-3.9896,-4.059,-4.0607,-4.0891,-4.1111,-4.1111,-4.1111,-4.1313,-4.1772,-4.2561,-4.3002,-4.3002,-4.3314,-4.3497,-4.3497,-4.3497,-4.3497,-4.3497,-4.3497,-4.3497,-4.3497,-4.3497,-4.3497,-4.3497,-4.3497,-4.3497,-4.3497,-4.3497,-4.3497,-4.3497,-4.3497,-4.3497,-4.3497,-4.3497,-4.3497,-4.3497,-4.3497,-4.3497,-4.3497,-4.3497,-4.3497,-4.3497,-4.3497,-4.3497,-4.3497,-4.3497,-4.3497,-4.3497,-4.3497,-4.3497,-4.3497,-4.3497,-4.3497,-4.3497,-4.3497,-4.3497,-4.3497,-4.3497,-4.3497,-4.3497,-4.3497,-4.3497,-4.3497,-4.3497,-4.3497,-4.3497,-4.3497,-4.3497,-4.3497,-4.3497,-4.3497,-4.3497,-4.3497,-4.3497,-4.3497,-4.3497,-4.3497,-4.3497,-4.3497,-4.3497,-4.3497,-4.3497,-4.3497,-4.3497,-4.3497,-4.3497,-4.3497,-4.3497,-4.3497,-4.3497,0.0,0.0,0.0,0.0,0.0,0.0,-2.5449,-2.5041,-2.4688,0.0,-2.7267,-2.7789,-2.9499,-2.9783,-3.0557,-3.2873,-3.334,-3.4092,-3.6042,-3.6924,-3.7357,-3.7381,-3.8615,-3.9547,-3.9608,-4.0281,-4.0744,-4.0836,-4.0928,-4.0983,-4.0983,-4.1735,-4.2176,-4.2176,-4.2855,-4.3222,-4.3222,-4.3314,-4.3369,-4.3369,-4.3442,-4.3497,-4.3497,-4.3497,-4.3497,-4.3497,-4.3497,-4.3497,-4.3497,-4.3497,-4.3497,-4.3497,-4.3497,-4.3497,-4.3497,-4.3497,-4.3497,-4.3497,-4.3497,-4.3497,-4.3497,-4.3497,-4.3497,-4.3497,-4.3497,-4.3497,-4.3497,-4.3497,-4.3497,-4.3497,-4.3497,-4.3497,-4.3497,-4.3497,-4.3497,-4.3497,-4.3497,-4.3497,-4.3497,-4.3497,-4.3497,-4.3497,-4.3497,-4.3497,-4.3497,-4.3497,-4.3497,-4.3497,-4.3497,-4.3497,-4.3497,-4.3497,-4.3497,-4.3497,-4.3497,-4.3497,-4.3497,-4.3497,-4.3497,-4.3497,-4.3497,-4.3497,-4.3497,-4.3497,-4.3497,-4.3497,-4.3497,-4.3497,-4.3497,-4.3497,-4.3497,-4.3497,-2.1528,0.0,0.0,0.0,0.0,0.0,-2.2739,-2.2995,-2.3379,0.0,-2.3928,-2.4626,-2.6891,-2.7299,-2.7882,-2.9648,-3.0487,-3.2183,-3.58,-3.6445,-3.6517,-3.6523,-3.6802,-3.7257,-3.79,-3.8108,-3.8469,-3.9129,-3.9772,-4.012,-4.012,-4.091,-4.135,-4.135,-4.1497,-4.1589,-4.1589,-4.2213,-4.2525,-4.2543,-4.3185,-4.3497,-4.3497,-4.3497,-4.3497,-4.3497,-4.3497,-4.3497,-4.3497,-4.3497,-4.3497,-4.3497,-4.3497,-4.3497,-4.3497,-4.3497,-4.3497,-4.3497,-4.3497,-4.3497,-4.3497,-4.3497,-4.3497,-4.3497,-4.3497,-4.3497,-4.3497,-4.3497,-4.3497,-4.3497,-4.3497,-4.3497,-4.3497,-4.3497,-4.3497,-4.3497,-4.3497,-4.3497,-4.3497,-4.3497,-4.3497,-4.3497,-4.3497,-4.3497,-4.3497,-4.3497,-4.3497,-4.3497,-4.3497,-4.3497,-4.3497,-4.3497,-4.3497,-4.3497,-4.3497,-4.3497,-4.3497,-4.3497,-4.3497,-4.3497,-4.3497,-4.3497,-4.3497,-4.3497,-4.3497,-4.3497,-4.3497,-4.3497,-4.3497,-4.3497,-4.3497,-4.3497,-2.2721,0.0,0.0,-2.3585,-2.329,0.0,0.0,-2.2973,-2.2625,-2.3432,-2.2955,-2.301,-2.5035,-2.5409,-2.5941,-2.7546,-2.8496,-2.9848,-3.2318,-3.371,-3.4734,-3.5567,-3.5642,-3.5984,-3.683,-3.6901,-3.7055,-3.7477,-3.8248,-3.8689,-3.8689,-3.9845,-4.0506,-4.0506,-4.0891,-4.1111,-4.1111,-4.1515,-4.1699,-4.1717,-4.2121,-4.2304,-4.2304,-4.2304,-4.2304,-4.2323,-4.2727,-4.2892,-4.2928,-4.3314,-4.3497,-4.3497,-4.3497,-4.3497,-4.3497,-4.3497,-4.3497,-4.3497,-4.3497,-4.3497,-4.3497,-4.3497,-4.3497,-4.3497,-4.3497,-4.3497,-4.3497,-4.3497,-4.3497,-4.3497,-4.3497,-4.3497,-4.3497,-4.3497,-4.3497,-4.3497,-4.3497,-4.3497,-4.3497,-4.3497,-4.3497,-4.3497,-4.3497,-4.3497,-4.3497,-4.3497,-4.3497,-4.3497,-4.3497,-4.3497,-4.3497,-4.3497,-4.3497,-4.3497,-4.3497,-4.3497,-4.3497,-4.3497,-4.3497,-4.3497,-4.3497,-4.3497,-4.3497,-4.3497,-4.3497,-4.3497,-4.3497,-4.3497,-4.3497,-4.3497,-4.3497,-4.3497,-2.4061,-2.4171,-2.4778,-2.5278,-2.4538,-2.3911,0.0,0.0,0.0,-2.3543,-2.2691,0.0,0.0,0.0,0.0,0.0,0.0,0.0,0.0,-2.9978,0.0,-3.3637,-3.4115,-3.4565,-3.5291,-3.5487,-3.5789,-3.6266,-3.6597,-3.6909,-3.7239,-3.8634,-3.9423,-3.9423,-4.023,-4.0653,-4.0653,-4.0799,-4.0873,-4.0873,-4.1038,-4.1111,-4.1111,-4.1111,-4.1111,-4.1148,-4.1791,-4.2066,-4.2121,-4.2763,-4.3039,-4.3057,-4.3369,-4.3497,-4.3497,-4.3497,-4.3497,-4.3497,-4.3497,-4.3497,-4.3497,-4.3497,-4.3497,-4.3497,-4.3497,-4.3497,-4.3497,-4.3497,-4.3497,-4.3497,-4.3497,-4.3497,-4.3497,-4.3497,-4.3497,-4.3497,-4.3497,-4.3497,-4.3497,-4.3497,-4.3497,-4.3497,-4.3497,-4.3497,-4.3497,-4.3497,-4.3497,-4.3497,-4.3497,-4.3497,-4.3497,-4.3497,-4.3497,-4.3497,-4.3497,-4.3497,-4.3497,-4.3497,-4.3497,-4.3497,-4.3497,-4.3497,-4.3497,-4.3497,-4.3497,-4.3497,-4.3497,-4.3497,-4.3497,-4.3497,-4.3497,-4.3497,-2.6245,-2.6264,-2.619,-2.5564,-2.5803,-2.5672,-2.3727,0.0,-2.3566,-2.2343,0.0,0.0,0.0,0.0,0.0,0.0,0.0,0.0,-2.5704,-2.6055,-2.7082,-2.9402,-3.095,-3.185,-3.1967,-3.2596,-3.3935,-3.6119,-3.5,-3.4871,-3.6358,-3.7276,-3.7783,-3.7783,-3.8542,-3.8982,-3.8982,-3.968,-4.0029,-4.0029,-4.0763,-4.1111,-4.1111,-4.1111,-4.1111,-4.113,-4.1203,-4.1258,-4.1258,-4.135,-4.1387,-4.1515,-4.2928,-4.3497,-4.3497,-4.3497,-4.3497,-4.3497,-4.3497,-4.3497,-4.3497,-4.3497,-4.3497,-4.3497,-4.3497,-4.3497,-4.3497,-4.3497,-4.3497,-4.3497,-4.3497,-4.3497,-4.3497,-4.3497,-4.3497,-4.3497,-4.3497,-4.3497,-4.3497,-4.3497,-4.3497,-4.3497,-4.3497,-4.3497,-4.3497,-4.3497,-4.3497,-4.3497,-4.3497,-4.3497,-4.3497,-4.3497,-4.3497,-4.3497,-4.3497,-4.3497,-4.3497,-4.3497,-4.3497,-4.3497,-4.3497,-4.3497,-4.3497,-4.3497,-4.3497,-4.3497,-4.3497,-4.3497,-4.3497,-4.3497,-4.3497,-4.3497,-2.6741,-2.6943,-2.709,-2.6303,-2.6348,-2.6222,-2.4724,-2.3913,-2.3436,-2.3234,0.0,0.0,0.0,0.0,0.0,0.0,-2.2585,0.0,0.0,0.0,-2.5252,0.0,0.0,0.0,-3.0582,-3.1017,-3.1825,-3.333,-3.2797,-3.3109,-3.4761,-3.5605,-3.6505,-3.7489,-3.7826,-3.823,-3.8707,-3.9038,-3.9203,-3.9203,-3.9551,-3.9717,-3.9717,-3.9717,-3.9717,-3.9735,-4.0194,-4.0396,-4.0432,-4.0928,-4.1111,-4.1185,-4.1846,-4.2396,-4.2855,-4.3314,-4.3497,-4.3497,-4.3497,-4.3497,-4.3497,-4.3497,-4.3497,-4.3497,-4.3497,-4.3497,-4.3497,-4.3497,-4.3497,-4.3497,-4.3497,-4.3497,-4.3497,-4.3497,-4.3497,-4.3497,-4.3497,-4.3497,-4.3497,-4.3497,-4.3497,-4.3497,-4.3497,-4.3497,-4.3497,-4.3497,-4.3497,-4.3497,-4.3497,-4.3497,-4.3497,-4.3497,-4.3497,-4.3497,-4.3497,-4.3497,-4.3497,-4.3497,-4.3497,-4.3497,-4.3497,-4.3497,-4.3497,-4.3497,-4.3497,-4.3497,-4.3497,-4.3497,-4.3259,-4.28,-4.3277,-4.324,-2.742,-2.7677,-2.7879,-2.6848,-2.6606,-2.6335,-2.5299,-2.4337,-2.3747,-2.4135,-2.3434,0.0,0.0,0.0,0.0,0.0,0.0,-2.18,0.0,-2.21,0.0,0.0,0.0,0.0,0.0,-2.9145,-2.9402,-3.065,-3.032,-3.087,-3.2724,-3.3807,-3.5018,-3.6431,-3.6909,-3.7551,-3.8358,-3.8377,-3.8487,-3.8707,-3.8707,-3.8707,-3.8707,-3.8707,-3.8707,-3.8726,-3.9313,-3.957,-3.9625,-4.0212,-4.0451,-4.0469,-4.0689,-4.113,-4.1735,-4.2543,-4.2983,-4.3167,-4.3167,-4.3314,-4.3497,-4.3497,-4.3497,-4.3497,-4.3497,-4.3497,-4.3497,-4.3497,-4.3497,-4.3497,-4.3497,-4.3497,-4.3497,-4.3497,-4.3497,-4.3497,-4.3497,-4.3497,-4.3497,-4.3497,-4.3497,-4.3497,-4.3497,-4.3497,-4.3497,-4.3497,-4.3497,-4.3497,-4.3497,-4.3497,-4.3497,-4.3497,-4.3497,-4.3497,-4.3497,-4.3497,-4.3497,-4.3497,-4.3497,-4.3497,-4.3497,-4.3277,-4.3167,-4.3167,-4.2947,-4.2837,-4.2837,-4.2837,-4.2543,-4.1992,-4.28,-4.2745,-2.892,-2.8938,-2.8562,-2.7009,-2.6611,-2.619,-2.4593,-2.48,-2.5095,-2.4356,-2.4781,-2.504,0.0,0.0,0.0,0.0,0.0,0.0,0.0,0.0,0.0,0.0,0.0,0.0,0.0,-2.6486,-2.6521,0.0,-2.764,-2.7805,-3.0191,-3.1825,-3.3073,-3.388,-3.5495,-3.6707,-3.7544,-3.7533,-3.7918,-3.8707,-3.8707,-3.8707,-3.8707,-3.8707,-3.8707,-3.8707,-3.8726,-3.8744,-3.8744,-3.8781,-3.8781,-3.8854,-3.9625,-3.9937,-4.0065,-4.0891,-4.168,-4.2341,-4.2341,-4.2837,-4.3497,-4.3497,-4.3497,-4.3497,-4.3497,-4.3497,-4.3497,-4.3497,-4.3497,-4.3497,-4.3497,-4.3497,-4.3497,-4.3497,-4.3497,-4.3497,-4.3497,-4.3497,-4.3497,-4.3497,-4.3497,-4.3497,-4.3497,-4.3497,-4.3497,-4.3497,-4.3497,-4.3497,-4.3497,-4.3497,-4.3497,-4.3497,-4.3497,-4.3497,-4.3497,-4.3497,-4.3497,-4.3497,-4.3497,-4.3497,-4.3497,-4.2745,-4.2341,-4.2341,-4.1589,-4.1185,-4.1185,-4.1185,-4.1167,-4.1167,-4.1974,-4.1919,-3.0595,-3.098,-3.0864,-2.8722,-2.8178,-2.7622,-2.5481,-2.5206,-2.5165,-2.4357,-2.4842,-2.5151,-2.4356,0.0,0.0,0.0,0.0,0.0,0.0,0.0,0.0,0.0,0.0,0.0,0.0,0.0,-2.5752,-2.6557,-2.6098,-2.6851,-2.9292,-3.043,-3.188,-3.3733,-3.4871,-3.5862,-3.6688,-3.6707,-3.711,-3.79,-3.79,-3.8175,-3.8707,-3.8707,-3.8707,-3.8707,-3.8707,-3.8707,-3.8707,-3.8707,-3.8707,-3.8726,-3.9001,-3.9111,-3.9276,-4.0616,-4.1277,-4.1589,-4.2121,-4.2488,-4.2782,-4.3314,-4.3497,-4.3497,-4.3497,-4.3497,-4.3497,-4.3497,-4.3497,-4.3497,-4.3497,-4.3497,-4.3497,-4.3497,-4.3497,-4.3497,-4.3497,-4.3497,-4.3497,-4.3497,-4.3497,-4.3497,-4.3497,-4.3497,-4.3497,-4.3497,-4.3497,-4.3497,-4.3497,-4.3497,-4.3497,-4.3497,-4.3497,-4.3497,-4.3497,-4.3497,-4.3259,-4.2745,-4.2708,-4.247,-4.1937,-4.1662,-4.1515,-4.1515,-4.1258,-4.1111,-4.1111,-4.1111,-4.0836,-4.0304,-4.0579,-4.0561,-3.1384,-3.177,-3.1733,-2.9885,-2.9448,-2.8791,-2.6371,-2.606,-2.5943,-2.4843,-2.5053,-2.5336,-2.5095,0.0,0.0,0.0,0.0,0.0,0.0,-2.0314,0.0,0.0,0.0,0.0,0.0,0.0,-2.4006,-2.4925,-2.4448,0.0,0.0,-2.876,-3.032,-3.2449,-3.3587,-3.4679,-3.5826,-3.5844,-3.6248,-3.7055,-3.7055,-3.7477,-3.8267,-3.8267,-3.8432,-3.8707,-3.8707,-3.8707,-3.8707,-3.8707,-3.8707,-3.8707,-3.8707,-3.8707,-3.8836,-3.9863,-4.0432,-4.0799,-4.1589,-4.1882,-4.1974,-4.2488,-4.2653,-4.2653,-4.2653,-4.2782,-4.2947,-4.2947,-4.3204,-4.3497,-4.3497,-4.3497,-4.3497,-4.3497,-4.3497,-4.3497,-4.3497,-4.3497,-4.3497,-4.3497,-4.3497,-4.3497,-4.3497,-4.3497,-4.3497,-4.3497,-4.3497,-4.3497,-4.3497,-4.3497,-4.3497,-4.3497,-4.3497,-4.3369,-4.3094,-4.28,-4.2433,-4.1919,-4.1882,-4.1644,-4.113,-4.0836,-4.0671,-4.0671,-4.0396,-4.0267,-4.0267,-4.0267,-3.9992,-3.946,-3.946,-3.946]}]]